GFSSW_sfc_wetblb_024.txt.gz
Wetbulb
57.47 56.43 56.17 56.68 56.90 56.83 55.84 56.14 56.45 56.25 56.24 56.79 57.04 57.32 57.72 57.73 57.07 59.55 55.06 58.26 59.38 60.66 59.86 56.33 55.91 55.61 53.29 51.34 51.50 51.30 46.91 44.68 44.66 45.08 46.18 49.35 48.46 50.59 55.47 55.13 55.86 57.48 58.82 62.18 66.14
57.25 56.87 56.29 56.54 55.68 56.48 56.63 56.73 56.42 56.18 56.29 56.70 57.04 57.20 57.62 57.08 59.41 55.77 59.81 61.64 62.45 61.58 57.02 54.86 52.93 52.66 52.06 51.31 52.36 51.42 47.03 45.22 47.27 48.29 47.75 48.60 48.62 49.94 51.25 51.45 52.70 56.68 60.25 64.05 66.48
56.49 56.62 56.21 55.90 55.98 55.70 56.87 56.52 56.28 56.16 56.57 57.19 57.12 57.58 57.11 58.40 55.57 55.12 61.14 61.78 62.23 61.06 57.64 56.15 55.23 53.87 51.18 52.76 51.48 50.11 46.54 48.49 47.91 49.68 50.09 49.13 48.93 50.23 49.51 48.59 51.19 51.45 57.69 63.69 65.36
56.02 56.20 56.08 55.82 55.74 56.28 56.70 55.89 56.13 56.43 56.79 57.16 57.29 57.67 57.10 59.57 47.14 57.63 60.82 61.31 62.08 60.32 56.91 56.51 54.99 51.96 50.07 48.62 50.84 47.50 49.32 48.76 48.97 49.85 49.45 48.57 50.35 49.32 50.53 50.84 53.38 55.51 59.26 62.72 63.41
55.53 55.55 55.92 56.34 56.52 56.49 56.30 55.65 55.99 56.30 56.71 56.82 57.07 57.56 59.64 54.65 53.46 58.65 60.31 61.72 59.28 58.05 56.33 55.11 52.99 52.09 48.80 50.48 51.50 50.20 50.38 51.12 50.87 50.22 50.81 50.82 49.90 49.95 50.33 52.73 53.61 56.86 60.36 61.32 61.88
55.32 55.36 55.57 55.82 56.26 56.54 56.43 55.87 55.61 55.89 56.08 56.49 57.26 56.85 58.25 50.42 58.39 59.00 57.14 57.94 58.82 58.08 56.71 56.20 54.28 54.54 52.16 51.30 50.59 51.35 51.16 50.55 51.05 50.99 50.34 49.56 50.10 50.79 51.12 52.79 52.87 55.80 58.40 61.08 61.60
55.12 55.00 55.18 55.51 55.63 55.93 55.93 55.59 55.26 55.23 55.96 56.60 57.18 59.87 55.63 52.89 58.57 58.60 56.79 56.98 57.91 58.19 56.05 56.45 56.78 54.51 54.64 52.17 52.86 51.55 49.01 50.68 50.44 50.70 50.46 50.61 48.39 48.57 51.73 52.03 51.30 54.21 57.15 59.82 61.13
55.03 54.94 54.66 54.74 55.04 55.06 55.20 55.06 54.98 55.39 55.77 56.42 57.40 60.22 52.74 58.28 59.89 57.00 57.21 56.66 58.31 58.79 57.93 57.31 57.67 54.82 53.75 53.13 50.45 49.06 49.17 45.48 49.30 50.38 50.52 51.43 46.70 50.47 53.16 51.68 52.31 52.49 53.78 58.35 60.81
54.70 54.48 54.29 53.90 54.02 54.00 54.29 54.37 54.51 55.47 56.28 56.51 60.78 57.74 51.01 59.25 54.84 56.58 56.45 55.11 56.69 57.60 57.47 55.74 55.57 52.82 51.68 49.48 47.03 47.03 43.41 43.21 45.72 49.78 49.85 49.34 46.64 51.23 51.44 50.23 51.80 53.16 54.06 54.38 57.89
54.52 54.33 54.05 53.95 53.71 53.49 53.53 54.23 55.18 55.92 57.80 58.72 56.31 53.12 53.24 51.43 54.51 54.90 56.05 55.80 55.18 55.74 54.89 54.05 53.96 50.62 50.60 47.41 42.27 42.42 42.72 43.84 43.88 47.57 49.00 48.05 47.36 49.30 50.55 50.69 50.64 51.47 52.33 52.82 54.50
54.80 54.82 54.29 53.66 53.26 52.81 55.00 60.43 55.98 54.62 55.63 51.13 51.20 50.85 51.63 54.66 55.72 54.78 54.57 54.46 54.40 53.80 49.70 51.16 49.74 46.33 46.75 47.67 46.72 45.31 44.09 43.45 45.65 47.88 47.55 47.29 46.49 47.98 50.29 51.49 51.53 52.11 52.47 53.02 54.25
54.80 54.86 54.86 54.09 53.45 53.41 61.05 57.82 56.63 58.01 49.95 52.84 52.02 52.31 53.18 54.04 51.50 54.10 56.67 51.85 51.41 48.30 49.98 48.74 45.41 47.29 47.79 47.04 45.95 45.41 43.74 43.74 45.87 47.20 47.35 47.36 45.98 48.02 49.35 49.62 50.83 51.57 52.29 53.30 53.98
54.14 54.68 54.78 53.85 53.78 59.40 62.24 59.67 62.31 60.88 50.89 50.92 52.45 51.89 52.22 54.67 51.23 51.89 54.18 51.69 49.66 47.28 47.83 46.17 45.73 47.20 46.38 46.76 45.70 45.60 44.00 43.70 43.54 46.60 47.89 46.92 45.22 45.86 48.08 49.82 50.65 51.73 52.54 52.78 52.64
53.88 54.45 54.74 53.24 56.50 60.47 58.43 60.61 63.93 59.84 47.70 46.02 49.03 51.57 52.79 52.56 49.67 54.51 54.31 51.28 48.95 46.48 47.54 46.19 47.30 46.91 46.71 45.14 46.44 43.28 45.78 46.14 45.02 44.67 42.27 46.70 40.96 43.88 46.30 47.39 49.34 51.27 52.63 53.28 53.11
53.92 54.69 53.30 53.42 61.11 58.31 59.36 63.09 64.63 60.15 37.60 47.46 49.30 55.13 53.82 50.30 50.31 51.85 54.86 52.62 47.29 46.45 47.83 43.37 45.63 46.04 45.29 44.77 46.97 44.96 47.38 45.81 45.15 44.89 44.11 44.25 42.58 43.48 46.18 45.07 47.45 50.06 51.07 52.12 52.43
54.21 54.42 54.44 60.20 63.18 60.50 63.12 63.06 62.29 47.42 35.28 44.98 49.44 48.62 49.39 50.83 50.04 51.91 52.04 53.92 51.58 48.99 48.90 46.66 49.18 48.69 47.50 47.52 47.45 48.31 46.41 45.51 46.29 45.62 39.69 42.62 42.32 42.75 44.83 44.82 47.35 49.39 50.32 51.01 52.07
54.11 54.51 59.09 61.31 59.02 63.08 63.36 60.65 46.42 40.28 46.81 43.88 45.65 48.24 47.86 46.67 47.87 49.00 48.38 47.55 45.90 42.95 43.03 45.63 46.20 48.80 49.54 46.73 48.65 48.45 45.28 40.34 38.10 38.49 38.28 42.78 41.18 43.10 45.38 46.98 47.93 48.32 49.70 50.97 52.33
53.19 55.31 56.22 61.09 64.08 62.96 61.65 53.48 39.40 42.59 43.89 47.14 47.16 47.55 44.83 46.66 46.65 47.35 46.50 45.30 48.14 46.40 44.63 42.06 39.82 46.28 49.02 46.41 44.52 45.23 44.40 39.47 30.86 34.72 38.52 41.34 38.67 42.46 46.89 48.59 49.24 49.41 49.97 50.70 51.35
53.59 60.96 61.46 61.58 62.58 62.09 55.55 45.93 43.57 44.96 46.86 45.94 46.95 44.44 44.34 46.22 46.41 46.29 45.49 44.58 46.28 47.58 42.62 41.66 40.35 47.75 47.36 48.14 47.22 44.58 42.88 44.84 38.44 37.61 36.65 41.31 42.14 45.60 46.87 46.50 47.45 48.21 49.11 49.44 50.68
59.77 59.44 59.20 61.77 61.26 60.02 53.59 42.72 45.24 47.40 48.05 47.73 43.12 45.14 42.66 44.61 44.51 44.93 44.29 45.88 45.14 47.61 48.64 44.35 39.94 45.16 45.88 48.19 48.44 46.30 46.77 40.96 42.70 33.25 29.72 37.94 38.74 41.31 43.27 45.54 46.12 47.20 47.91 49.18 50.57
59.59 54.22 59.03 61.66 59.79 56.12 48.37 45.77 46.08 48.64 49.64 47.43 45.56 44.32 45.24 44.18 45.29 43.77 43.16 45.57 47.36 46.76 48.47 45.49 43.10 41.98 44.39 43.53 43.03 45.04 43.96 42.96 42.87 40.17 34.21 31.48 37.58 46.32 45.58 46.94 45.90 47.22 47.88 49.03 49.89
57.51 51.08 59.55 60.96 52.17 50.83 47.98 47.49 46.12 48.77 50.52 49.39 49.51 47.65 46.09 45.71 44.52 44.05 43.33 45.58 48.17 48.39 44.04 45.89 43.69 39.17 39.34 44.87 46.75 45.53 42.74 42.10 38.24 34.46 38.06 36.34 36.18 46.53 47.13 47.15 46.97 47.20 48.02 49.82 50.17
56.51 55.67 59.47 58.77 48.66 47.99 48.02 47.49 48.68 48.39 48.08 48.25 47.20 48.60 48.57 45.77 42.83 45.22 45.35 47.63 48.51 48.08 45.81 46.60 41.85 36.00 37.34 42.21 45.13 42.79 43.60 42.85 40.94 39.70 35.23 33.30 37.17 45.80 47.24 46.85 48.30 47.47 48.73 48.84 49.27
56.19 51.41 54.89 55.27 52.26 49.90 47.58 46.78 46.14 49.31 48.07 49.24 47.75 49.12 47.58 45.62 47.25 44.61 44.93 47.22 48.50 47.90 44.02 47.28 43.06 37.84 34.73 37.59 40.59 38.09 40.43 41.86 41.19 35.98 36.14 37.31 39.57 43.94 45.74 45.99 47.40 48.25 48.48 48.96 48.91
54.59 51.29 51.45 49.47 49.11 50.13 49.71 48.13 46.39 45.44 49.06 49.67 47.37 47.53 46.67 43.13 44.06 43.90 46.10 46.29 46.98 45.42 47.66 47.04 39.14 40.92 41.48 42.01 41.85 40.67 39.99 40.69 39.26 40.15 35.88 39.08 39.84 43.49 45.44 46.28 47.36 47.48 47.96 47.59 47.98
53.46 52.28 51.77 49.26 49.52 49.66 45.67 47.46 46.70 46.27 47.65 46.13 46.65 47.01 47.24 44.28 43.99 43.01 45.05 45.12 43.89 47.02 46.25 46.14 40.05 39.07 36.97 40.60 40.70 38.18 40.77 40.99 40.85 41.03 41.01 41.11 40.39 46.71 46.83 47.48 46.59 46.69 46.84 46.64 46.62
54.62 52.67 55.49 43.49 46.99 48.96 47.39 47.75 47.39 49.22 48.04 49.26 49.44 48.08 45.21 47.37 49.65 49.93 49.80 48.85 47.81 45.47 44.09 43.25 41.61 37.67 35.14 37.17 36.92 34.28 38.56 39.70 40.75 42.39 41.67 37.71 42.59 45.55 44.87 45.15 46.14 46.46 46.75 46.37 45.42

GFSSW_sfc_wetblb_027.txt.gz
Wetbulb
57.97 57.89 56.85 56.73 56.34 57.00 57.00 56.97 56.51 56.47 56.70 56.88 57.34 57.78 58.11 58.25 57.30 60.70 56.47 58.73 60.62 60.97 59.40 59.00 58.08 57.04 55.62 53.58 54.22 54.39 48.32 45.89 46.24 46.63 46.72 50.16 49.09 51.41 54.41 52.99 54.52 56.14 59.25 61.70 65.58
57.90 57.87 57.66 57.39 56.45 56.36 56.71 57.14 56.97 56.85 56.58 56.83 57.37 57.87 57.87 57.65 60.90 56.77 59.91 62.54 63.11 62.50 59.09 56.35 54.67 54.57 53.72 52.72 52.96 51.41 48.73 46.89 49.02 49.45 48.61 49.54 49.76 50.60 52.08 51.41 52.87 55.22 58.73 63.81 64.91
57.64 57.18 57.16 57.26 56.87 56.78 56.65 57.01 56.90 56.61 56.76 57.20 57.60 57.75 57.68 58.49 58.46 56.00 61.58 62.26 62.73 62.02 60.01 57.36 55.40 54.44 51.66 53.01 51.62 51.13 47.69 48.99 48.74 50.03 50.59 49.24 48.95 50.82 50.11 49.61 52.37 53.19 56.37 61.67 63.09
57.03 56.63 56.78 56.69 56.59 56.86 56.56 56.82 56.62 56.43 56.90 57.20 57.56 57.92 57.75 61.66 48.86 58.16 61.99 62.28 63.13 63.34 58.70 56.61 55.24 52.65 51.12 49.80 51.77 47.95 49.36 49.33 49.66 50.17 50.11 49.28 51.15 49.47 50.91 51.65 54.30 55.72 58.54 60.62 61.09
56.17 56.16 56.22 56.60 56.75 56.74 56.58 56.21 56.17 56.36 56.81 56.97 57.37 58.08 60.66 57.52 54.06 59.83 61.81 64.24 61.37 59.75 57.38 55.14 53.16 52.36 48.95 50.10 50.66 49.06 49.34 50.09 50.81 50.99 51.44 51.65 50.14 49.75 50.66 53.50 54.28 56.28 58.45 60.09 61.38
56.11 56.01 55.95 55.98 56.61 57.02 56.86 56.31 56.05 56.25 56.40 56.81 57.27 57.03 60.44 51.91 59.06 59.87 59.40 59.27 59.44 58.10 56.17 55.74 53.91 54.16 51.29 51.28 50.89 52.01 51.93 51.91 52.22 51.85 51.82 50.78 50.76 51.70 52.37 54.15 53.74 55.16 57.12 59.44 59.94
55.97 55.79 55.61 55.93 56.24 56.20 56.38 56.07 55.85 55.69 56.32 56.84 57.48 61.10 58.58 54.12 59.30 59.85 58.71 58.36 59.65 59.42 55.59 57.25 56.75 54.11 54.36 51.78 53.87 52.70 49.75 51.36 51.95 52.54 51.68 52.73 49.18 49.51 52.98 53.55 53.20 54.76 56.14 58.53 59.67
55.65 55.43 55.20 55.41 55.65 55.57 55.63 55.31 55.29 55.90 56.33 56.92 57.36 61.85 54.49 58.82 60.85 57.82 58.41 57.78 59.57 60.09 58.82 58.65 58.62 56.44 54.70 55.44 52.23 50.14 50.88 47.29 50.77 51.63 52.17 52.34 47.99 51.20 53.96 53.31 53.13 53.92 55.81 57.20 59.27
55.18 55.26 55.05 54.59 54.66 54.80 54.92 54.94 55.17 55.87 56.66 57.24 61.31 61.73 52.03 58.87 55.97 57.12 58.20 56.24 58.20 59.19 58.73 57.35 57.92 54.26 54.42 50.72 48.48 48.82 45.62 45.37 47.56 51.09 50.82 50.35 48.70 52.66 53.60 53.09 52.84 53.87 54.52 55.50 57.95
54.89 54.77 54.72 54.67 54.51 54.18 54.25 54.67 55.88 56.02 58.07 60.98 59.66 54.41 53.77 52.11 54.98 56.46 58.37 58.37 57.17 57.34 55.78 55.19 54.45 51.85 51.55 49.23 43.45 44.44 44.05 44.96 45.33 49.19 49.34 48.53 48.81 51.04 52.72 52.83 53.10 54.14 54.72 55.23 55.63
54.70 55.30 55.01 54.46 54.31 53.88 54.81 60.26 57.16 56.94 57.25 53.29 52.99 51.93 52.60 55.18 57.57 55.76 57.12 56.63 56.90 55.53 51.65 53.10 50.28 48.54 48.72 48.91 48.01 46.49 45.11 44.81 47.26 49.32 48.26 48.21 48.34 49.64 51.91 52.99 52.93 53.57 54.21 54.90 56.76
54.85 55.52 55.05 54.66 54.31 53.90 60.12 59.38 59.21 59.48 50.79 54.25 54.19 54.53 55.23 56.08 52.33 54.87 58.09 53.76 53.38 50.10 51.28 49.49 48.12 49.30 49.24 48.55 47.11 46.87 45.90 45.79 47.60 48.89 48.31 48.73 47.70 49.70 51.13 51.69 53.06 53.34 53.88 54.39 55.00
54.66 55.17 55.34 54.47 54.08 58.74 63.19 61.33 64.39 62.79 51.35 51.63 53.74 53.04 53.58 55.56 52.14 52.72 55.81 53.41 50.67 48.43 48.24 48.15 48.50 49.03 48.25 47.65 46.84 47.46 45.98 46.16 45.74 48.43 49.62 48.70 46.64 47.57 50.04 51.68 52.65 53.32 53.85 54.28 54.32
54.80 55.52 55.34 53.69 56.63 63.99 60.95 63.50 65.80 64.04 49.04 47.26 50.38 52.38 53.97 54.31 50.91 55.81 56.03 53.24 50.50 47.32 48.70 48.07 49.48 48.00 47.76 46.57 48.19 45.49 48.08 47.56 46.93 45.98 43.59 49.29 42.07 46.69 48.50 49.01 51.37 52.86 53.93 54.13 54.26
54.79 55.28 53.86 53.98 62.96 59.48 61.91 65.55 67.25 64.17 39.17 48.74 50.44 56.62 54.27 51.96 52.46 52.87 56.52 53.59 48.39 48.50 49.21 46.36 47.16 47.31 46.91 47.08 48.96 47.06 49.61 48.03 47.70 46.62 46.27 46.32 43.07 45.92 48.62 47.22 49.29 51.40 52.64 53.90 54.93
55.16 56.00 55.36 60.10 65.64 63.01 65.14 66.27 65.47 49.75 37.94 46.38 50.76 50.31 50.75 52.01 51.75 53.44 53.18 55.29 54.23 49.33 50.02 48.50 51.35 50.57 49.35 49.77 49.63 50.38 49.19 48.85 48.57 47.34 40.84 44.94 44.29 44.13 46.43 48.22 49.21 50.97 51.88 53.35 54.28
54.61 55.33 60.37 65.00 60.11 65.59 66.91 62.25 46.74 42.73 48.58 45.42 47.45 49.76 49.57 48.90 49.67 51.02 50.11 49.61 48.94 45.33 45.41 47.61 47.96 50.55 51.39 48.57 50.81 50.14 47.34 41.68 39.60 40.15 39.27 46.12 42.99 45.50 48.38 49.68 50.39 50.05 51.25 52.94 54.06
54.53 56.80 59.45 64.56 66.58 66.02 63.07 52.69 42.59 45.80 46.04 49.48 49.12 49.39 46.96 49.23 48.64 49.13 48.99 47.46 50.06 48.81 47.35 44.15 42.09 48.07 50.02 48.00 46.06 46.91 46.32 41.38 32.95 36.23 39.89 44.46 39.70 45.11 49.92 50.79 50.97 51.41 51.81 52.48 52.82
54.04 64.46 63.90 65.28 66.65 65.22 56.10 46.27 45.79 46.16 48.87 47.87 48.69 46.37 46.00 47.73 48.37 48.51 48.29 46.96 48.10 49.78 45.71 44.00 43.11 49.25 49.22 50.41 49.64 46.85 45.28 47.21 41.77 41.78 37.90 41.60 45.19 48.05 49.43 49.20 49.85 50.24 50.99 51.55 52.19
60.67 59.87 60.72 65.46 66.08 62.46 53.08 45.45 47.99 50.12 49.77 49.96 45.17 47.49 44.67 46.45 46.77 47.22 46.77 48.16 47.43 49.33 51.08 46.27 42.53 47.28 47.61 49.83 50.12 47.46 48.89 42.57 44.31 33.03 31.69 39.29 40.81 42.47 45.28 47.09 48.90 49.56 50.18 51.14 51.96
60.82 54.78 62.15 66.18 63.84 54.97 48.61 48.56 48.66 51.18 51.61 49.17 47.30 46.20 47.55 46.28 47.53 46.22 45.85 47.79 49.26 48.50 50.08 47.54 44.96 44.55 46.06 45.22 43.94 46.12 45.91 44.73 44.52 41.72 35.07 33.38 38.58 47.76 46.77 48.55 48.99 49.40 50.07 51.30 51.97
59.94 52.01 63.27 64.79 52.01 53.04 50.57 49.85 48.55 50.79 52.80 51.06 51.39 49.55 48.43 48.20 46.56 46.23 45.80 48.36 50.42 50.10 45.88 47.74 45.46 40.99 41.90 46.82 48.73 47.41 45.27 44.80 39.18 36.91 40.07 38.04 37.57 48.47 48.12 49.16 49.14 49.06 50.31 51.42 52.11
56.72 56.22 63.23 62.32 49.90 49.57 51.20 49.90 51.12 50.47 50.62 50.46 49.21 50.78 51.20 48.55 44.84 47.68 47.89 50.04 50.48 49.87 47.93 48.50 44.57 38.80 40.94 44.61 47.11 44.28 45.52 44.77 43.68 41.46 36.01 34.98 37.68 48.02 49.04 48.53 49.71 49.23 50.34 51.24 51.18
57.73 52.69 56.09 57.75 56.94 51.74 49.85 49.30 48.33 51.91 50.62 51.54 50.59 51.74 50.25 47.86 49.83 47.15 47.24 49.14 50.65 50.29 45.25 48.13 45.00 40.69 37.30 40.38 43.51 40.85 42.76 43.81 42.61 37.37 37.90 38.82 41.14 45.46 46.65 47.04 48.45 49.48 50.40 50.64 50.81
58.46 54.53 55.34 50.58 51.94 52.72 52.35 50.95 48.61 47.10 51.20 52.20 49.63 49.80 49.03 45.29 47.03 46.19 48.64 48.32 49.28 45.47 48.70 48.46 41.37 43.26 43.77 43.99 43.54 42.54 42.09 42.78 41.18 41.75 37.78 40.58 41.40 44.66 46.90 47.30 48.13 49.50 49.63 49.49 49.41
55.53 54.70 56.66 55.10 53.71 52.25 48.05 49.91 48.92 48.50 49.78 48.48 48.88 50.16 49.99 47.20 46.55 45.59 47.26 46.98 46.26 48.67 47.92 48.03 41.90 42.10 39.26 42.79 42.54 40.38 42.36 42.73 42.78 42.65 42.25 42.11 41.10 46.90 48.60 48.89 48.18 48.76 48.39 48.29 47.26
59.80 59.20 58.12 47.47 52.57 51.04 50.23 50.29 49.78 51.29 50.55 51.61 51.60 49.85 48.15 49.07 51.66 52.21 51.99 50.91 49.55 47.34 46.12 45.07 43.67 39.38 36.14 40.55 39.30 36.46 40.72 41.91 42.60 43.94 42.91 38.59 43.40 47.30 46.44 46.52 46.88 46.61 46.40 46.50 45.38

GFSSW_sfc_wetblb_030.txt.gz
Wetbulb
58.62 58.24 58.45 58.26 56.60 56.35 56.62 57.43 57.45 57.06 56.89 57.33 57.32 57.97 58.42 58.19 56.87 59.68 56.41 58.85 59.66 60.87 59.71 57.21 57.74 56.83 56.33 53.08 54.01 53.69 48.97 46.64 47.16 47.83 47.00 50.19 49.27 51.68 54.30 51.94 54.13 57.89 57.81 62.37 64.35
58.24 58.06 58.19 58.34 57.84 56.83 56.98 56.86 57.16 57.31 57.21 57.16 57.62 57.96 58.10 57.87 59.31 58.01 60.39 62.86 62.79 62.63 57.80 56.48 54.21 55.06 51.99 52.72 52.30 49.93 47.31 46.04 49.00 49.10 47.50 48.97 48.84 50.09 51.62 50.66 52.18 55.64 61.73 63.42 63.40
57.84 57.98 57.88 57.83 57.94 57.38 57.33 56.83 56.74 57.17 57.11 57.39 57.75 58.02 57.75 57.65 58.01 55.46 61.52 62.43 63.08 62.60 60.50 58.99 55.80 53.59 51.27 52.31 51.17 50.40 46.30 48.52 48.65 49.73 49.75 48.59 48.53 51.41 50.13 48.71 52.44 52.24 58.39 61.20 61.94
57.04 57.49 57.30 57.05 57.66 57.42 56.87 56.40 56.86 57.09 56.90 57.06 57.77 58.13 57.83 59.40 48.95 57.09 62.35 62.17 63.56 61.70 60.07 55.85 53.80 51.53 50.12 48.82 51.24 47.37 48.80 48.57 49.03 50.13 49.51 48.09 49.40 48.75 50.48 51.04 53.96 55.69 57.31 60.72 60.27
56.46 56.77 56.63 56.75 57.23 57.40 56.72 56.41 56.65 56.64 56.73 57.02 57.44 58.03 58.96 57.11 54.69 59.38 62.60 65.14 60.86 60.18 58.03 55.61 53.21 52.07 49.01 49.63 49.88 47.73 47.70 49.08 49.75 50.06 51.13 50.91 49.12 49.29 49.99 52.41 54.39 56.56 57.77 59.22 59.58
56.36 56.35 56.31 56.52 56.91 57.20 57.10 56.67 56.29 56.47 56.62 56.82 57.26 57.43 58.66 51.92 58.67 59.51 58.92 58.89 58.93 58.19 55.91 55.62 53.74 53.72 50.52 49.76 49.40 50.32 49.93 50.01 50.70 50.98 50.74 49.20 50.02 50.60 51.17 53.07 52.79 54.87 56.61 58.72 59.90
56.33 56.16 56.17 56.21 56.33 56.58 56.62 56.19 55.91 56.07 56.50 56.79 57.42 59.02 58.35 55.09 58.72 59.26 58.49 57.88 58.80 58.51 56.18 56.81 56.52 53.20 53.48 51.15 52.89 51.46 48.70 50.23 50.82 51.40 50.83 51.22 48.23 48.24 52.42 53.43 52.70 53.55 54.93 57.76 58.94
56.31 56.21 55.56 55.72 55.95 55.79 55.87 55.57 55.57 56.04 56.54 56.97 57.25 60.24 55.49 59.19 59.70 58.01 58.04 57.13 58.45 59.32 58.03 57.67 57.92 56.12 54.41 54.17 51.10 48.49 49.71 45.88 50.08 51.24 51.73 50.76 46.10 49.75 53.05 52.62 51.84 52.93 54.51 55.85 58.55
56.16 55.79 55.34 54.99 55.03 55.08 55.28 55.31 55.25 56.13 56.61 56.97 58.49 59.75 54.11 59.08 55.61 56.94 57.68 55.79 57.25 58.16 58.52 57.44 57.10 52.94 53.05 49.01 47.03 48.19 44.19 46.06 47.50 51.04 50.88 49.80 47.53 51.45 53.89 52.87 52.01 52.83 53.92 55.25 56.70
55.56 55.50 55.25 55.08 54.77 54.69 54.59 54.72 55.32 55.66 57.41 60.53 61.08 55.50 54.55 52.25 55.06 55.96 57.73 58.18 55.88 56.43 54.41 54.32 53.75 50.59 50.41 48.13 41.95 43.57 43.95 44.90 44.86 48.51 48.45 47.80 47.80 50.77 52.33 52.32 52.50 53.31 54.74 54.47 55.19
55.49 55.47 55.34 54.89 54.95 54.55 54.28 58.21 55.85 55.63 57.85 53.32 52.61 52.59 52.14 54.47 56.12 55.09 57.10 56.32 56.71 54.80 50.40 52.77 48.81 46.71 47.71 48.39 47.37 46.39 45.26 44.33 46.95 49.26 47.10 46.97 47.82 49.48 51.67 52.27 52.73 53.00 53.98 55.06 55.56
55.02 56.32 55.26 54.82 54.78 54.56 57.25 58.61 59.35 59.59 51.13 54.40 54.16 54.01 54.74 56.08 51.67 53.91 57.43 53.19 52.37 49.34 52.13 48.63 46.26 49.36 49.50 48.71 47.09 46.31 45.33 45.58 47.84 48.98 47.35 48.09 47.39 49.51 50.96 51.59 52.56 52.85 53.34 53.61 54.36
55.35 56.03 55.59 54.80 54.38 56.49 61.26 61.54 64.51 64.24 51.03 51.50 53.91 52.86 53.70 55.68 52.05 52.28 55.15 53.84 50.91 49.51 48.38 47.25 48.18 49.41 48.07 47.36 46.56 47.04 45.47 46.40 45.27 48.17 49.19 47.17 46.06 47.15 49.92 51.32 52.30 52.89 53.67 53.90 53.82
55.29 55.96 55.27 53.78 56.34 63.70 60.70 63.24 65.55 65.79 47.25 46.33 49.92 51.78 53.88 54.37 50.38 55.15 55.68 53.52 50.29 47.47 47.98 48.33 49.47 47.82 47.46 46.74 47.76 44.34 49.13 47.68 46.15 45.09 41.14 48.17 39.54 45.30 47.61 48.49 50.79 52.24 53.20 52.95 53.42
55.67 56.25 54.44 53.19 60.47 59.19 62.23 64.80 66.44 63.79 38.60 48.91 50.10 56.26 53.95 51.82 52.23 51.96 55.61 53.07 48.66 48.35 48.94 46.41 47.10 47.35 47.04 47.46 48.73 46.58 49.52 47.46 47.12 45.03 44.73 44.83 42.22 45.09 47.80 46.22 48.93 50.96 52.20 53.34 54.30
55.97 56.56 54.88 58.43 64.68 63.58 65.48 66.30 64.55 48.16 38.50 46.12 50.47 50.40 49.91 51.46 51.59 53.02 52.16 54.91 54.22 48.69 49.94 48.49 51.55 50.56 49.35 49.66 49.80 50.07 48.78 48.63 48.17 45.84 39.48 44.41 43.20 42.07 44.76 47.15 48.99 50.61 51.87 52.85 53.34
55.53 55.67 57.07 64.93 60.87 65.98 67.37 62.07 45.35 42.44 49.07 45.37 47.25 49.95 49.70 48.52 49.73 50.79 50.09 49.66 48.18 44.41 44.74 47.54 48.05 50.81 50.95 48.06 50.81 49.38 46.13 40.74 38.93 39.07 38.06 46.19 43.23 44.31 48.37 50.34 50.51 50.06 51.15 52.79 53.88
56.33 55.98 61.07 65.21 66.12 66.75 63.53 52.68 41.61 46.15 46.07 49.86 49.02 49.46 47.15 49.09 48.76 49.33 48.98 46.68 49.90 49.42 46.35 43.38 41.12 48.02 50.20 47.97 45.66 46.98 45.53 41.68 32.57 34.96 38.31 45.26 39.53 43.27 49.81 50.92 51.43 52.01 52.00 52.64 53.23
54.10 65.38 64.85 65.81 67.11 66.37 56.64 45.36 45.70 45.91 49.42 47.73 48.41 46.04 45.90 48.40 48.72 48.63 48.33 46.73 47.76 49.81 45.48 43.52 43.29 49.27 49.22 49.94 48.90 45.91 44.17 46.81 40.56 43.31 38.14 40.29 44.43 48.09 49.18 48.70 49.72 50.36 51.32 51.48 52.20
60.76 60.18 60.32 66.21 67.33 62.80 53.02 45.64 48.94 51.06 49.96 49.71 44.75 47.62 44.47 46.03 46.49 47.58 46.96 48.73 47.42 49.50 50.93 46.36 42.57 47.51 47.69 49.33 50.61 47.19 47.75 41.30 44.17 33.03 31.51 37.75 39.56 40.42 44.87 46.56 48.78 49.32 50.14 51.24 52.38
63.04 54.02 62.70 66.46 65.15 55.09 47.55 49.58 49.63 51.60 51.96 48.90 47.46 46.28 47.59 46.33 47.80 46.73 46.78 48.11 49.88 48.55 50.16 47.61 45.82 44.63 46.50 45.08 43.22 45.08 44.04 44.79 43.75 41.48 34.38 32.29 36.86 46.35 45.86 48.15 48.46 49.63 50.31 51.04 51.60
62.78 50.09 64.26 66.10 50.75 52.01 49.75 50.76 48.13 50.67 53.06 51.47 51.71 49.43 48.32 48.26 46.97 46.59 46.28 48.48 50.65 50.23 46.22 46.99 45.54 41.46 42.36 46.81 48.24 46.79 44.63 44.31 39.68 36.54 39.68 38.11 37.09 48.18 47.83 49.04 49.32 49.03 50.11 51.32 52.18
54.61 56.09 63.31 63.00 48.52 49.89 51.62 50.51 51.61 50.31 50.42 50.40 49.67 51.14 51.88 48.84 45.31 48.10 48.15 50.37 50.71 50.30 47.21 47.77 45.09 39.54 40.51 44.42 47.27 43.41 44.80 44.51 43.91 41.96 35.69 33.46 35.48 48.02 48.59 47.75 49.18 48.87 49.73 50.34 51.29
58.33 52.09 54.28 56.55 57.23 51.36 49.58 49.03 48.62 53.02 51.71 52.03 51.09 51.95 50.36 48.52 50.14 47.24 47.21 49.67 51.18 49.68 46.43 48.78 45.13 41.20 37.43 39.91 43.17 40.38 42.26 43.59 42.46 37.39 37.11 37.66 39.52 44.19 46.39 46.65 47.62 48.43 49.77 49.91 50.35
58.44 53.65 54.33 49.38 51.59 52.23 51.56 50.46 48.73 47.55 51.86 52.51 49.92 50.03 49.02 45.90 47.13 46.68 48.68 48.13 49.59 45.86 48.61 48.78 41.97 43.81 43.77 43.57 43.06 41.58 40.89 41.54 40.11 41.36 36.15 39.81 40.15 43.62 45.68 46.61 47.55 48.21 48.50 48.18 48.11
55.49 54.40 55.93 54.76 53.97 52.08 48.36 49.59 49.11 49.61 50.30 48.83 48.72 50.25 50.69 47.38 47.49 46.21 48.16 47.61 46.68 48.74 47.81 48.78 42.37 42.78 39.33 42.99 42.13 38.79 40.61 42.03 42.04 42.18 41.82 41.85 40.91 46.92 48.34 48.24 47.29 47.37 46.87 46.55 46.65
59.83 60.53 58.25 48.57 52.62 51.47 50.55 50.44 50.16 51.72 51.54 52.65 51.63 50.39 48.12 49.67 51.79 51.91 51.88 50.85 49.70 47.85 46.46 45.90 44.55 40.24 36.48 39.77 38.31 36.07 40.43 41.64 42.26 43.57 42.72 38.30 42.97 46.73 45.12 45.31 45.96 45.79 45.83 45.07 44.42

GFSSW_sfc_wetblb_036.txt.gz
Wetbulb
58.42 57.94 58.42 58.54 58.42 58.27 58.23 57.36 56.83 56.99 56.90 57.16 57.28 57.36 57.64 57.83 56.80 55.92 51.35 54.41 56.59 60.42 57.92 53.36 53.85 53.83 52.68 48.95 49.46 47.23 39.66 36.80 39.87 43.39 45.00 46.15 46.62 48.22 52.23 54.34 55.35 55.67 58.08 59.23 57.43
57.81 57.41 57.31 57.24 57.63 57.95 57.91 57.52 56.56 56.94 56.90 57.05 57.52 57.43 57.63 57.20 55.12 54.33 58.98 61.09 61.03 60.46 53.19 51.33 50.59 52.21 48.28 47.63 47.81 43.72 38.27 40.58 44.54 45.85 42.97 43.64 45.93 47.04 50.70 54.03 54.20 55.86 59.12 59.11 56.64
57.46 56.99 56.90 56.67 57.06 57.97 57.75 57.34 56.68 56.86 56.98 57.14 57.08 57.27 56.96 56.28 54.15 54.56 61.58 61.71 61.86 61.25 54.58 54.84 54.33 52.10 47.50 47.02 45.48 42.72 39.28 43.00 44.69 44.63 45.37 44.93 45.82 46.89 49.09 49.46 55.39 54.82 56.11 56.43 55.29
56.85 56.20 55.95 55.86 57.05 57.87 57.18 56.61 56.60 56.80 56.72 57.12 57.12 57.44 56.84 55.06 45.16 52.27 61.32 62.09 62.79 59.40 55.32 54.80 53.63 49.65 44.60 43.32 44.55 41.04 43.87 45.12 44.40 44.17 44.29 44.25 44.46 45.29 46.42 50.65 58.40 58.52 58.26 56.31 54.65
55.79 55.06 55.24 56.07 56.89 57.10 56.62 56.35 56.37 56.46 56.58 56.69 57.00 57.14 55.20 52.85 52.08 57.81 62.70 62.35 60.14 56.40 54.07 53.77 51.65 47.92 43.98 43.74 43.14 42.66 43.42 44.75 46.15 46.40 43.51 45.37 44.00 45.11 46.15 52.57 58.97 58.93 58.60 57.32 56.32
56.51 56.11 56.23 56.59 56.57 56.48 56.33 55.87 55.97 56.07 56.21 56.46 56.98 56.82 53.31 47.80 57.55 55.01 56.03 59.03 55.96 54.47 53.80 53.76 52.05 50.94 47.52 45.78 42.85 44.40 44.04 44.12 44.29 44.51 45.64 45.21 44.21 44.66 44.54 53.74 56.93 57.66 56.68 57.21 56.87
56.33 56.01 55.89 56.01 56.19 56.01 55.89 55.59 55.26 55.52 55.99 56.39 56.83 56.10 54.43 53.21 58.40 55.95 54.33 52.97 53.41 54.56 52.30 52.71 52.35 50.59 49.40 45.30 46.75 45.06 42.05 43.45 43.83 43.95 43.11 45.37 42.29 42.19 45.70 54.54 55.84 56.63 56.80 56.92 57.28
56.31 55.73 55.22 55.34 55.14 55.20 55.16 54.88 54.86 55.30 55.72 56.13 56.90 55.02 50.26 59.15 54.57 54.12 53.02 52.80 54.42 54.97 54.67 53.43 52.89 51.16 48.54 48.43 46.92 44.15 42.50 38.74 43.63 45.26 45.97 44.62 38.92 43.39 45.26 48.79 51.29 53.74 54.93 55.06 53.92
55.71 55.34 54.88 54.49 54.10 54.14 54.12 54.20 54.37 55.35 55.80 56.10 53.50 53.22 47.79 58.75 51.81 53.37 52.26 53.31 54.35 54.40 53.38 54.26 51.80 48.01 47.50 41.74 39.57 40.77 35.97 38.80 41.68 45.92 44.65 42.77 40.06 44.23 44.84 45.88 45.07 45.29 49.69 51.17 51.78
55.10 54.84 54.43 54.18 53.82 53.43 53.11 53.92 54.93 54.64 54.81 56.37 56.60 50.14 53.97 53.21 51.66 51.74 52.50 54.76 52.86 52.39 51.06 49.80 46.45 43.37 41.98 39.73 34.29 37.42 36.99 40.51 39.35 41.77 42.65 40.86 40.91 43.15 44.70 46.30 46.63 47.90 48.87 50.16 50.74
54.70 54.62 54.37 53.77 53.65 53.17 51.59 49.76 48.73 49.43 52.00 47.71 49.78 51.47 51.41 52.38 52.72 50.46 52.24 52.95 52.05 49.72 43.78 47.44 42.44 38.77 40.06 41.77 42.63 41.19 39.20 39.29 39.01 42.63 41.07 39.54 40.63 41.44 44.96 46.99 46.77 47.36 48.15 48.86 49.71
54.43 54.44 54.20 53.94 53.61 53.47 50.94 52.29 52.75 53.43 46.38 53.34 53.94 52.99 54.92 51.16 48.68 50.51 53.38 48.63 48.44 44.11 46.82 42.97 39.63 43.75 45.22 45.46 44.16 42.79 40.92 39.12 42.13 44.49 41.56 39.55 39.22 42.21 44.03 45.52 47.32 47.45 47.79 48.47 49.48
54.13 54.44 54.06 53.49 53.53 51.59 51.05 54.91 58.43 58.26 48.29 48.67 52.25 50.41 51.14 52.59 48.85 47.90 51.24 49.63 46.58 44.29 43.98 40.88 43.45 46.37 46.35 44.18 43.73 42.58 40.33 39.77 39.72 42.23 41.72 40.55 38.26 41.37 44.89 45.86 47.66 47.95 48.93 49.44 49.30
54.15 54.13 53.61 52.80 50.88 53.52 51.15 56.33 57.57 56.52 38.73 43.99 47.45 49.17 51.63 51.61 47.43 50.74 50.94 49.24 47.32 43.19 43.81 42.71 45.84 45.55 44.68 43.37 43.01 39.67 44.56 43.50 41.58 38.08 33.49 39.94 30.47 37.53 40.92 43.15 45.29 46.76 46.90 47.65 49.27
53.82 54.08 53.11 53.55 51.79 55.07 57.46 60.80 58.38 54.20 26.14 45.14 47.37 51.33 49.45 48.91 48.26 47.98 50.04 49.91 44.47 44.27 43.92 41.21 43.55 43.85 43.04 43.15 44.45 42.20 44.75 42.69 42.11 37.80 35.81 37.46 33.11 35.02 42.57 41.26 42.90 43.69 45.60 47.56 48.25
54.02 54.06 52.87 53.18 52.48 57.49 60.39 59.59 52.02 40.98 28.44 43.28 48.01 46.58 45.66 47.96 47.45 47.64 48.07 50.05 49.56 45.48 44.26 43.66 46.75 44.93 44.07 46.16 45.71 46.49 43.80 42.86 41.14 38.42 30.75 37.90 35.93 32.39 37.85 41.51 43.50 45.41 45.80 46.68 47.26
53.74 53.41 53.54 58.94 55.41 59.42 59.16 50.27 37.29 34.18 45.61 41.82 43.06 45.50 45.56 44.63 45.99 45.85 45.20 43.56 41.52 37.53 37.60 42.82 43.75 45.75 46.74 43.18 45.43 43.89 38.79 30.73 30.08 29.66 29.07 40.55 38.15 37.62 43.53 46.36 45.58 44.76 45.20 46.03 47.10
53.17 53.31 56.12 60.99 60.99 59.56 53.88 44.10 34.33 42.25 42.49 45.72 45.81 45.89 43.30 45.16 44.84 45.89 43.43 40.79 43.77 44.19 39.22 37.03 34.93 42.32 46.40 42.98 40.10 40.62 39.55 29.67 27.03 26.28 29.40 39.10 33.41 36.59 43.85 46.72 47.15 47.38 46.57 47.62 47.37
52.97 56.49 57.96 59.19 60.56 57.20 48.13 38.58 38.63 43.27 45.72 44.26 44.97 42.13 41.98 45.15 44.43 44.05 41.43 41.02 41.98 43.23 39.15 37.73 37.73 44.40 44.82 44.91 43.83 40.15 36.81 40.76 33.54 32.05 28.25 33.46 36.80 41.93 44.10 46.79 48.03 47.66 49.62 49.07 48.04
53.99 53.91 54.05 59.62 58.85 52.47 45.38 40.92 44.37 47.59 47.76 46.31 40.77 43.35 39.33 42.14 42.01 42.18 41.87 44.97 43.45 44.92 44.83 41.74 36.38 43.39 44.09 45.33 45.49 42.39 42.72 34.93 33.41 25.47 25.76 30.97 33.38 35.10 39.68 42.43 44.47 44.48 45.26 46.75 48.86
54.00 46.63 53.35 59.91 54.26 46.10 38.70 41.90 46.59 49.35 50.11 46.23 44.11 42.25 43.06 41.63 42.76 41.71 41.93 44.57 45.87 45.37 44.07 41.92 39.18 38.74 42.91 39.26 37.70 39.40 37.94 38.06 37.12 32.38 26.11 23.72 28.87 39.85 40.85 42.46 42.62 45.08 47.47 47.13 45.94
50.91 42.46 56.07 53.61 40.79 42.23 39.36 45.93 46.92 47.52 49.76 48.26 47.64 46.68 43.70 43.62 42.65 42.43 41.98 43.66 47.31 46.54 40.42 42.16 38.31 31.63 37.02 41.80 43.65 41.06 39.63 38.43 28.22 29.64 30.02 27.50 28.37 43.47 43.08 45.20 45.53 45.38 45.78 45.28 45.32
47.71 49.97 56.80 51.10 33.56 37.31 43.62 47.66 48.20 46.69 46.61 46.70 46.16 47.88 47.09 43.90 40.64 43.63 43.53 47.04 46.53 44.77 41.56 41.54 36.32 28.65 33.76 38.98 42.08 38.43 40.06 40.04 37.47 31.42 29.30 22.19 27.37 41.34 43.49 42.03 42.90 42.49 44.00 43.96 44.75
50.06 41.75 47.37 50.03 46.17 42.97 42.60 44.15 45.27 48.92 48.15 48.58 47.10 47.99 45.56 43.35 45.40 42.13 42.71 46.65 46.43 44.38 44.47 44.89 39.07 33.79 29.77 33.52 36.46 33.33 36.31 36.99 35.30 26.74 28.70 29.62 33.17 38.03 40.55 40.57 41.63 42.17 42.96 42.96 43.02
50.86 44.20 44.38 37.27 41.25 45.41 45.32 45.65 44.54 44.09 48.07 48.22 45.72 45.93 44.28 39.05 41.92 41.22 43.80 44.27 46.03 44.65 44.22 42.44 34.92 37.61 37.59 37.65 37.28 35.93 35.08 35.12 33.22 33.52 28.37 32.09 34.10 37.45 39.62 40.19 41.15 42.86 43.37 42.51 41.43
49.57 47.65 46.48 41.87 44.15 44.52 43.41 43.96 44.90 46.07 46.12 44.95 43.88 45.84 45.12 41.49 42.68 41.08 43.30 41.91 41.13 42.57 41.48 42.74 34.09 33.36 31.12 37.68 36.26 33.07 35.28 36.38 36.25 36.23 35.93 35.82 35.19 40.45 41.28 41.76 41.21 41.28 41.23 40.30 39.84
54.84 54.54 48.62 43.72 41.12 42.67 42.64 44.25 46.24 47.49 47.50 48.58 46.32 43.05 40.26 43.92 44.60 44.45 44.18 45.26 45.12 41.91 40.49 39.40 32.74 28.50 24.94 32.62 30.68 26.15 34.09 35.79 36.76 37.58 36.36 31.58 36.14 39.96 39.25 39.87 39.35 38.80 39.25 38.69 38.64

GFSSW_sfc_wetblb_039.txt.gz
Wetbulb
58.47 57.50 57.28 56.89 56.74 57.40 58.27 58.06 57.31 57.02 56.65 56.91 57.02 57.23 57.44 57.62 56.53 54.88 50.62 53.93 55.19 60.09 57.96 51.82 51.55 51.64 51.50 49.35 47.63 45.05 39.88 37.34 44.18 45.02 45.63 50.75 45.51 49.25 55.37 56.18 55.56 55.57 55.61 58.32 59.19
58.59 58.13 57.39 56.94 56.64 56.36 57.18 57.76 57.21 56.99 56.86 56.72 56.82 57.26 57.30 56.93 54.14 52.59 57.75 60.60 60.86 60.53 52.07 50.42 48.93 50.40 47.08 46.60 46.85 42.99 38.69 39.83 48.18 50.28 48.89 46.23 50.64 50.30 53.44 53.56 53.63 54.74 55.58 57.81 57.28
58.35 58.14 57.15 56.78 56.39 55.89 56.65 57.31 56.89 57.03 56.88 56.84 56.97 57.20 56.63 55.66 52.04 51.65 60.85 61.49 61.61 59.64 53.12 52.39 51.97 49.78 45.62 46.48 45.26 43.33 40.29 42.74 44.60 51.40 49.10 44.21 45.45 48.92 52.71 50.05 54.52 53.47 52.85 54.90 54.98
57.94 57.59 56.57 56.11 55.68 55.54 56.47 56.61 56.63 56.78 56.62 56.60 57.07 57.23 56.70 53.98 41.95 51.69 61.46 62.76 62.16 55.97 53.56 51.89 51.60 48.43 46.39 44.01 44.57 40.97 43.17 44.54 44.17 45.10 44.61 44.36 44.92 49.35 46.23 53.71 57.71 57.12 54.78 54.35 54.35
56.59 56.87 56.10 55.53 55.23 56.14 56.51 56.04 56.25 56.37 56.27 56.50 56.75 57.01 53.73 50.91 50.81 55.61 62.49 62.77 58.01 54.81 51.39 51.93 50.85 48.22 43.25 43.51 43.20 40.99 42.15 44.61 45.24 44.62 42.69 44.71 43.63 44.81 45.40 55.42 58.30 57.78 55.15 54.51 54.68
56.63 56.58 56.29 56.17 56.55 56.53 56.21 55.60 55.58 55.90 56.21 56.45 56.73 56.67 50.93 45.40 54.82 55.10 57.09 57.31 55.06 53.52 52.98 53.09 51.38 50.54 46.17 44.54 42.02 43.61 42.23 43.09 43.93 44.21 43.81 43.99 43.07 43.90 44.57 56.19 56.11 56.60 55.10 54.39 54.61
56.51 56.36 56.14 56.14 56.25 56.16 55.88 55.30 55.01 55.24 55.80 56.26 56.70 55.17 52.60 50.81 55.58 55.88 55.08 53.95 54.18 53.55 51.44 52.31 52.45 49.22 46.89 44.02 44.90 43.26 41.11 42.24 42.83 42.12 42.01 44.31 40.68 42.26 47.36 56.04 55.48 55.81 55.97 55.27 55.21
56.75 55.88 55.38 55.12 55.26 55.12 55.03 54.57 54.55 55.04 55.43 56.00 56.52 53.93 49.00 56.74 56.54 56.03 52.23 51.71 53.31 54.16 53.01 52.50 51.49 49.40 46.59 46.27 44.98 42.29 40.82 37.32 41.58 43.64 43.79 42.71 37.46 41.74 48.44 54.24 53.35 52.96 53.07 52.87 51.56
55.76 55.42 54.92 54.47 54.31 54.06 54.02 53.92 54.16 54.88 55.55 55.87 52.57 52.39 46.72 57.18 52.46 52.29 51.59 51.41 53.35 53.10 52.19 53.30 50.96 45.76 45.47 40.80 37.78 39.23 34.98 36.85 40.36 43.56 42.67 41.61 39.07 41.75 44.06 50.19 45.35 46.93 48.25 50.17 50.45
55.16 54.95 54.61 54.18 53.92 53.31 52.91 53.63 54.64 54.04 54.19 55.44 55.30 48.11 52.01 50.59 51.57 50.69 51.02 53.39 51.57 51.20 49.27 48.58 45.29 42.05 40.25 38.02 32.62 35.23 35.89 37.95 38.15 40.79 41.44 39.43 38.56 40.40 42.38 45.92 45.22 46.13 47.51 48.63 49.36
54.95 54.75 54.32 53.81 53.59 52.89 51.20 48.79 47.46 47.84 51.06 46.36 47.41 49.46 51.40 52.30 51.20 49.27 50.65 51.37 50.59 48.06 42.58 45.62 40.89 37.49 37.41 39.85 40.94 39.89 37.24 36.91 37.60 41.18 39.75 38.14 38.83 40.72 43.82 45.68 44.94 45.44 46.78 47.65 48.63
54.49 54.34 54.18 53.63 53.55 53.25 50.06 48.64 49.91 51.59 45.15 52.00 52.58 52.41 53.28 52.72 47.04 48.72 52.02 47.54 46.66 41.85 45.02 42.10 38.56 42.03 44.32 44.12 42.12 41.11 38.47 36.91 40.08 42.43 41.00 38.12 37.77 40.77 43.31 43.64 45.26 46.12 46.06 46.68 47.31
54.18 54.12 53.88 53.30 53.34 50.72 49.06 52.26 56.94 55.44 47.22 48.54 50.62 49.81 50.62 51.35 47.15 46.65 49.87 47.85 44.60 42.88 42.23 39.39 41.71 45.42 44.62 43.03 42.68 40.74 38.56 37.97 38.46 40.85 40.64 38.49 36.73 39.70 43.28 45.16 46.52 46.83 47.00 47.54 47.32
53.81 53.67 52.89 52.50 49.43 50.66 48.93 54.09 57.41 53.64 38.06 42.34 45.97 48.26 50.19 50.18 45.87 49.22 49.57 47.83 45.58 41.94 42.01 41.23 45.30 44.40 42.97 41.62 41.81 38.28 42.82 41.91 40.16 36.50 31.76 37.77 29.67 35.90 39.41 41.62 44.40 45.48 45.09 45.92 48.02
53.69 53.77 52.83 52.64 51.48 53.87 56.00 60.27 56.87 51.94 26.13 42.99 45.84 50.02 48.12 47.36 46.49 46.21 48.57 48.39 42.63 42.73 42.32 39.53 41.88 42.26 41.63 41.32 42.75 40.83 42.95 40.75 40.20 35.88 34.12 36.31 31.40 33.17 40.74 38.94 41.08 42.44 44.82 46.50 48.21
53.39 53.54 52.60 52.15 50.89 55.07 59.03 56.02 51.28 38.77 27.44 40.80 46.22 44.39 44.47 46.06 45.55 45.90 47.04 49.94 47.42 43.70 43.18 42.23 44.76 43.37 42.49 44.39 43.75 44.62 42.17 40.83 39.10 36.62 29.85 36.00 34.34 31.00 36.19 39.73 41.51 43.37 45.33 46.73 48.11
53.43 53.10 52.47 56.61 55.19 58.25 57.06 47.67 35.94 33.07 43.65 39.95 42.03 43.63 43.43 42.49 43.74 43.69 43.79 42.20 40.07 36.41 36.24 41.36 41.78 43.65 44.95 41.35 43.35 42.21 37.34 29.95 29.58 28.96 28.30 37.98 35.70 35.69 41.18 43.42 43.87 43.60 44.42 45.81 46.36
52.64 52.28 52.58 55.86 60.01 57.64 50.71 41.83 31.95 40.29 40.18 43.74 43.79 43.01 41.34 43.46 43.08 43.63 41.80 39.10 42.32 41.26 37.36 35.44 33.89 40.67 44.50 41.17 38.78 38.82 37.91 28.55 27.39 26.02 28.02 37.19 31.53 35.73 42.19 44.92 45.63 45.61 45.29 45.84 46.09
52.79 52.95 56.65 58.00 59.13 53.67 45.59 34.25 36.90 41.51 43.58 42.73 43.71 40.36 40.08 43.09 43.25 42.32 39.54 39.21 40.27 41.46 37.60 36.10 36.06 42.76 42.93 43.43 42.34 38.45 34.96 38.71 31.97 30.87 27.23 31.50 34.86 40.69 42.63 43.51 44.87 45.03 46.28 46.43 46.54
53.61 53.01 53.09 58.17 56.75 51.27 43.12 38.40 43.08 46.36 45.62 44.76 39.31 41.56 37.93 40.47 40.46 40.37 39.86 43.14 41.60 42.85 43.11 40.89 35.00 41.30 42.11 43.39 43.01 39.93 41.56 33.72 31.46 24.29 24.92 29.12 31.32 33.01 38.70 40.98 43.37 43.48 44.87 45.14 45.59
51.00 45.71 51.13 58.17 50.43 44.36 36.21 40.36 45.51 47.41 48.00 43.72 41.82 40.53 41.08 40.01 40.69 39.63 40.07 42.88 44.07 43.71 42.93 40.66 37.13 36.65 40.91 37.81 36.00 38.30 36.37 35.80 35.42 30.86 25.13 22.67 28.07 37.10 40.29 41.95 42.10 43.27 45.57 42.47 42.25
47.98 40.63 54.07 49.49 39.78 39.91 39.54 44.35 46.14 45.57 48.28 47.14 46.33 44.51 41.54 41.66 41.05 40.41 40.22 41.98 45.78 44.66 38.72 40.57 36.42 30.73 35.08 40.52 41.89 39.02 37.49 35.99 26.00 28.50 28.61 26.43 27.14 41.28 40.89 41.38 43.01 42.94 42.54 42.47 42.88
46.64 49.35 55.70 47.51 33.41 36.72 41.96 45.23 46.30 44.87 45.03 45.31 44.30 45.78 45.22 42.39 39.12 41.60 41.75 45.44 44.10 43.07 40.43 40.00 34.61 28.03 32.46 37.66 40.09 36.98 37.57 37.98 34.79 30.21 28.47 21.08 26.27 40.19 40.88 40.33 41.52 40.55 41.54 41.94 42.42
47.30 41.23 46.11 48.56 42.09 40.62 40.31 42.26 43.22 47.31 46.49 46.80 45.26 46.27 43.84 41.83 43.65 40.23 41.14 44.69 43.96 42.45 44.21 43.42 37.42 32.23 28.53 32.28 35.12 31.92 34.43 35.60 34.08 26.68 28.35 28.51 30.70 36.30 37.93 38.67 40.32 40.73 41.39 40.89 40.53
48.03 42.53 43.66 37.32 42.00 43.89 42.58 43.97 42.86 42.22 46.33 46.31 43.99 44.30 42.74 38.16 39.89 39.73 42.23 42.45 43.80 43.92 42.67 40.26 34.09 35.33 35.17 35.75 35.29 34.18 34.06 33.92 32.30 31.76 28.15 30.24 32.32 36.12 38.75 38.80 40.18 41.66 41.50 40.39 39.33
48.25 45.28 44.32 39.08 42.53 43.77 41.48 42.60 43.24 44.18 44.38 42.98 42.62 44.01 42.94 40.38 41.49 39.90 41.72 39.63 38.05 41.12 40.20 40.99 32.61 32.81 30.81 35.45 34.56 31.45 33.86 34.11 34.07 33.62 32.59 34.03 33.99 39.48 40.03 40.58 39.99 39.86 39.55 38.54 38.65
50.46 51.32 46.23 41.18 39.66 39.21 40.62 43.24 44.62 45.98 46.00 46.45 45.25 41.91 38.86 41.97 43.43 43.29 43.23 43.66 42.88 40.54 39.02 36.90 31.74 27.60 23.73 30.70 28.53 23.67 31.37 35.10 35.05 35.71 35.27 31.89 35.56 38.85 38.23 38.89 38.42 37.99 37.86 37.16 37.35

GFSSW_sfc_wetblb_042.txt.gz
Wetbulb
58.44 58.55 58.69 57.11 56.77 56.42 56.24 55.98 57.39 57.51 57.20 56.93 56.95 56.87 57.19 57.34 56.32 54.05 49.47 52.78 54.36 59.91 58.41 50.87 49.72 49.19 48.78 46.91 45.96 43.99 38.81 39.14 41.85 46.20 46.47 49.62 52.57 52.08 56.14 55.76 55.76 55.31 56.49 58.99 60.24
58.19 58.04 57.87 58.12 57.14 56.15 55.78 55.61 57.11 57.15 57.15 56.78 56.66 56.72 57.07 56.69 53.23 51.04 56.80 60.18 60.48 60.61 50.64 48.86 46.51 47.93 45.27 45.54 46.17 41.51 36.79 40.15 48.39 49.63 49.36 51.23 47.92 51.62 53.80 53.15 53.19 52.27 57.04 59.06 58.83
58.16 58.20 58.06 57.57 57.22 55.88 55.59 55.21 56.59 56.95 56.91 56.81 56.67 56.97 56.65 55.28 50.18 49.69 60.23 61.03 61.65 58.86 51.83 50.93 49.60 48.22 44.72 45.46 43.51 42.07 39.73 42.53 47.76 52.66 52.94 49.48 48.57 50.05 52.56 50.20 53.23 52.15 55.11 56.59 56.64
57.98 57.51 57.27 57.44 56.54 55.52 55.03 54.96 56.58 56.67 56.77 56.57 56.62 56.86 56.41 52.80 40.47 49.40 63.00 62.42 61.78 53.02 52.07 49.40 49.59 46.84 45.38 44.09 44.89 41.37 43.56 43.90 47.64 52.55 50.04 44.67 45.93 51.24 48.13 52.05 56.60 55.40 56.62 55.59 54.75
56.81 56.77 56.83 56.98 56.14 55.07 54.80 55.74 56.24 56.34 56.47 56.39 56.54 56.90 52.29 49.12 49.38 56.46 62.68 61.93 55.60 52.80 50.14 50.26 48.99 48.16 43.43 43.42 43.01 41.37 42.64 43.72 44.45 46.31 44.32 45.06 42.91 49.70 44.95 54.78 55.78 55.29 56.04 54.58 54.03
56.44 56.32 56.52 56.56 56.63 56.42 56.10 55.80 55.21 55.56 56.00 56.27 56.38 56.44 49.78 43.87 52.74 56.96 57.06 54.91 53.86 52.15 50.87 50.77 50.11 50.11 46.16 43.76 42.48 43.57 42.38 43.21 43.01 42.27 42.95 43.74 42.60 43.91 46.34 54.88 53.85 53.70 53.62 54.14 54.03
56.30 56.28 56.24 56.24 56.24 56.02 55.96 55.32 54.93 54.91 55.48 55.97 56.29 54.54 51.13 49.56 53.73 54.68 54.14 54.72 53.64 52.63 50.03 51.89 52.39 49.24 47.41 43.98 44.30 43.23 41.16 42.92 42.47 41.65 42.01 43.15 39.43 39.54 48.57 54.88 53.96 52.67 52.32 51.94 52.15
56.68 56.34 55.54 55.22 55.24 55.13 55.22 54.63 54.49 54.85 55.30 55.65 56.23 52.72 48.46 55.56 54.83 55.14 52.99 51.51 52.60 53.17 52.16 51.71 52.27 49.61 46.11 44.83 44.43 41.93 39.77 36.15 40.31 42.51 41.99 41.14 36.15 40.47 51.08 53.23 51.42 52.10 52.58 50.77 51.48
56.00 55.72 54.87 54.47 54.17 54.04 53.98 53.79 54.04 54.71 55.32 55.62 50.80 51.13 47.28 55.84 52.92 52.58 50.86 49.61 51.85 51.43 51.45 52.56 49.70 45.20 44.02 39.93 37.64 38.71 34.42 35.47 38.74 42.43 41.74 40.42 37.71 39.95 49.04 51.16 46.92 47.09 48.34 49.57 49.68
55.52 55.26 54.57 54.10 53.82 53.31 52.79 53.63 54.36 53.85 53.66 54.93 54.32 46.93 50.12 48.21 52.51 49.64 49.46 51.64 50.19 49.95 48.93 48.10 44.60 41.27 39.44 37.68 32.54 34.25 34.87 36.69 36.39 39.17 41.01 38.81 36.51 41.12 43.17 46.21 45.21 45.60 46.80 47.75 48.12
55.09 54.85 54.46 53.89 53.57 52.71 51.02 48.10 46.19 45.71 49.16 46.08 47.26 46.72 50.00 52.82 50.25 47.36 49.19 50.20 49.27 47.75 42.29 44.29 41.40 37.66 36.39 38.44 39.25 38.73 36.46 35.29 36.32 39.72 39.14 36.48 37.37 40.23 43.07 44.08 44.10 44.76 45.82 46.97 47.49
54.71 54.36 54.01 53.77 53.50 53.11 48.91 46.36 47.72 49.41 44.91 50.46 50.53 50.76 52.35 52.08 46.88 47.66 51.32 46.60 45.92 41.25 43.14 41.51 37.12 40.61 42.95 41.53 40.71 38.95 36.67 35.33 38.33 40.99 39.74 37.31 36.98 39.64 42.85 43.10 44.09 44.49 44.94 45.63 46.39
54.11 53.97 53.87 53.15 53.10 50.61 47.61 50.22 55.79 53.59 46.60 48.26 50.03 48.77 48.70 50.77 46.07 45.41 48.67 46.40 43.33 41.37 40.38 38.92 39.80 43.95 43.59 41.76 41.04 39.37 37.36 35.88 36.95 38.01 39.26 37.50 34.77 38.16 42.36 44.43 45.82 45.72 45.95 46.24 46.44
53.62 53.61 52.96 52.60 48.87 48.43 47.46 52.08 56.38 52.80 37.23 41.04 45.32 47.63 48.74 48.72 44.64 48.07 48.22 46.75 44.47 40.63 40.81 39.90 43.82 42.56 41.18 40.55 40.28 36.55 40.90 39.84 38.08 35.22 31.85 36.27 29.51 34.71 38.83 41.25 43.55 44.47 44.28 45.00 46.68
53.45 53.45 52.60 52.62 48.78 51.40 52.74 59.06 57.01 49.31 25.73 42.36 44.34 48.44 46.97 45.80 45.03 45.44 48.21 46.94 41.45 41.10 40.93 38.48 40.01 40.67 40.31 39.56 41.16 39.20 42.07 39.89 38.26 35.25 33.57 34.82 30.90 32.77 39.17 38.97 41.05 42.66 44.31 45.14 46.18
53.21 53.37 52.36 50.70 49.53 53.05 57.74 52.97 48.93 37.68 28.49 39.97 44.71 43.46 43.72 44.68 43.95 44.43 46.75 48.78 45.58 42.79 42.33 40.51 43.12 42.14 40.92 42.50 42.49 43.15 41.01 39.38 37.68 35.15 29.64 33.85 33.33 31.05 34.93 38.38 40.60 42.88 44.73 46.20 46.64
52.73 53.08 51.63 53.18 53.52 57.17 54.50 46.05 36.10 30.55 42.37 38.51 40.19 42.62 42.16 40.84 42.26 42.79 42.36 40.88 38.31 35.71 35.37 40.24 40.50 42.43 43.66 40.19 41.87 40.76 36.24 29.01 28.71 28.17 27.60 35.58 33.84 34.17 38.69 41.62 43.39 43.27 44.43 45.50 46.14
52.64 52.09 51.65 53.27 58.29 55.77 48.38 40.21 30.31 37.92 39.49 41.70 41.23 41.50 39.73 41.56 41.47 41.96 40.28 38.14 41.04 38.87 35.94 34.19 32.55 39.52 43.11 39.73 38.16 37.54 36.30 28.79 27.32 26.19 28.13 35.35 30.27 35.09 40.97 42.99 44.60 45.62 45.64 45.93 45.39
52.07 50.12 53.56 57.13 56.69 51.29 43.62 32.90 33.86 39.64 42.22 41.35 41.64 38.82 38.08 41.28 41.57 40.41 37.93 37.60 38.78 39.53 36.64 34.52 34.40 40.81 41.43 42.44 40.76 37.37 33.62 37.05 31.17 29.69 26.90 29.88 34.13 38.68 41.18 41.59 43.49 44.06 44.55 44.20 44.98
51.91 52.63 52.59 56.64 54.54 48.89 39.83 35.89 40.41 45.50 43.86 42.75 37.20 39.82 36.38 38.61 38.83 38.56 38.14 41.22 39.67 41.13 41.63 39.56 33.94 39.29 40.54 41.97 41.82 38.10 40.44 33.04 30.43 23.21 23.40 27.29 29.42 31.90 37.37 39.46 41.69 41.76 42.41 44.37 45.04
49.61 45.52 50.18 55.26 48.70 42.85 34.86 37.43 43.99 47.37 46.21 42.36 40.34 38.85 39.25 38.60 39.15 37.88 38.61 41.01 42.17 42.13 41.95 39.16 36.06 35.41 38.95 36.21 35.07 37.24 34.87 34.10 33.75 29.52 23.87 20.91 27.16 35.87 39.81 41.42 41.53 42.63 44.06 41.79 41.22
45.71 40.31 52.99 47.74 39.57 38.36 38.18 42.84 44.72 44.46 46.03 45.64 44.61 41.99 39.94 39.94 39.33 38.61 38.91 40.61 43.97 43.17 38.10 39.03 35.25 30.76 33.61 38.36 40.09 37.41 35.84 34.19 25.60 27.53 27.73 25.91 27.03 38.60 38.59 41.07 42.06 41.43 40.67 40.34 40.52
46.05 48.77 54.36 46.24 34.19 35.80 40.76 43.28 44.91 43.30 43.35 43.77 42.82 44.20 43.70 40.95 37.90 39.60 40.42 43.93 42.47 41.29 39.40 39.47 33.37 27.97 31.92 35.51 38.08 35.45 35.83 35.38 32.54 29.55 27.69 20.10 25.05 39.07 39.75 39.50 40.09 38.90 39.88 40.44 40.05
46.59 41.89 45.62 46.04 40.52 39.70 39.22 40.24 41.58 45.45 44.68 45.08 43.93 44.72 42.44 40.29 41.84 39.11 39.78 42.98 42.46 41.22 44.01 42.15 35.38 31.76 28.49 30.34 33.47 31.22 33.04 34.67 33.06 25.78 27.55 27.62 28.87 35.19 37.18 37.96 38.91 39.58 39.63 38.98 38.80
45.32 41.86 43.91 38.47 41.48 39.19 40.63 41.97 41.57 40.82 44.69 45.00 42.85 42.90 41.25 37.37 38.11 38.24 40.66 40.94 41.85 43.33 41.31 38.59 32.98 33.37 33.16 33.67 33.38 32.20 32.15 32.47 31.58 30.78 28.30 29.29 30.67 34.12 37.60 37.85 39.19 40.14 39.63 38.82 37.91
46.88 42.69 41.16 38.27 44.37 41.82 39.73 41.35 41.88 42.62 43.02 41.33 41.65 42.12 41.39 39.52 40.16 38.58 40.40 38.41 36.19 40.11 38.43 39.02 31.97 32.08 31.21 33.17 32.59 30.96 32.87 32.44 31.46 30.94 31.58 31.18 31.81 38.11 38.90 39.67 39.59 39.50 38.86 37.75 37.05
49.19 49.53 44.07 38.99 39.69 39.76 39.75 42.04 43.33 44.72 44.66 44.71 43.75 41.07 38.46 40.89 42.40 42.28 41.76 41.58 40.70 39.29 37.35 35.06 31.03 28.65 25.18 28.88 27.25 23.55 30.66 32.39 33.14 33.90 33.27 30.49 34.33 37.92 37.20 38.40 38.26 37.82 37.66 36.62 36.54

GFSSW_sfc_wetblb_045.txt.gz
Wetbulb
58.46 58.25 57.37 57.28 57.16 57.76 56.89 56.36 55.43 55.80 57.44 57.43 57.09 56.97 57.00 57.22 56.13 54.36 50.53 55.05 56.91 60.09 58.29 53.13 53.16 52.73 53.15 51.33 50.63 47.96 44.28 44.51 47.45 47.90 49.30 54.46 52.01 55.61 58.26 56.98 57.49 56.48 60.02 62.21 63.18
57.94 58.23 58.08 57.34 56.75 56.79 56.72 55.79 55.16 55.32 57.30 57.20 57.00 56.84 57.06 56.79 53.01 51.62 57.52 59.93 60.42 60.71 53.06 52.08 50.23 51.80 50.32 49.88 49.74 47.04 44.25 45.07 51.21 52.81 51.28 52.33 52.95 53.23 55.91 55.69 54.78 56.13 60.08 61.94 62.09
57.67 57.96 58.00 57.82 56.73 56.75 56.77 55.23 54.75 55.27 57.04 57.03 56.78 56.78 56.65 55.81 51.46 51.02 60.82 60.78 61.23 60.01 54.39 53.61 51.85 51.00 48.18 48.88 48.26 46.35 44.60 46.35 51.31 53.74 54.70 53.19 50.95 55.02 55.68 54.00 56.04 55.55 59.04 60.72 61.24
57.39 57.57 57.29 57.24 56.55 56.44 56.20 54.56 54.54 56.30 56.72 56.76 56.78 56.88 56.55 54.18 43.74 53.60 63.40 62.26 61.91 55.66 53.81 52.94 50.76 49.20 47.63 46.51 48.31 44.85 45.98 47.77 53.42 53.49 50.03 50.62 51.54 53.95 56.55 54.45 58.33 60.13 61.33 60.78 60.14
56.55 56.81 56.82 56.94 56.39 56.03 55.07 54.58 55.43 56.19 56.21 56.27 56.62 56.78 53.92 50.87 51.01 59.65 62.54 62.03 56.78 53.65 52.42 50.80 49.97 49.63 47.06 47.05 45.53 44.51 45.04 45.30 47.07 49.12 47.22 48.72 50.52 53.68 52.46 56.73 58.73 60.15 60.54 60.14 59.77
56.31 56.35 56.35 56.53 56.61 56.71 56.33 55.82 55.68 55.46 55.78 55.93 56.42 56.42 52.44 45.62 54.50 59.59 57.90 55.47 54.89 53.27 51.86 52.49 51.61 52.63 48.68 46.35 44.99 45.60 44.96 44.29 46.02 48.26 47.04 46.72 46.05 51.51 51.45 56.18 56.98 58.79 59.01 58.81 58.35
56.21 56.19 56.28 56.42 56.32 56.12 56.02 55.62 55.08 54.97 55.38 55.75 56.13 54.72 52.06 50.75 55.81 56.77 55.88 55.48 55.04 53.81 51.83 52.72 54.24 51.21 50.45 46.16 46.38 45.68 43.50 44.74 45.22 45.45 45.41 47.09 43.86 44.48 54.23 55.97 55.05 57.02 56.93 56.52 56.73
56.37 56.08 55.68 55.32 55.04 55.04 54.92 54.74 54.51 54.77 55.18 55.57 55.95 54.12 49.37 56.43 56.86 55.13 55.24 53.75 55.02 54.98 53.88 54.63 55.02 52.44 48.66 48.58 46.28 44.37 44.04 40.95 44.91 45.55 45.10 46.09 41.44 43.07 55.19 55.31 53.79 54.59 54.94 55.04 54.78
55.94 55.78 55.18 54.62 54.13 54.11 53.87 53.84 54.02 54.63 55.04 55.50 52.91 52.82 48.72 56.77 54.05 54.94 55.08 52.38 53.76 53.46 54.19 52.76 53.15 48.95 47.71 44.63 43.00 42.68 39.22 40.99 42.93 46.13 45.71 45.47 41.99 44.67 51.19 54.39 52.87 53.09 53.14 53.66 53.68
55.56 55.34 55.04 54.35 53.88 53.40 52.78 53.49 54.30 54.34 53.82 54.71 54.09 48.99 51.19 50.26 53.73 51.82 54.21 54.27 53.27 53.39 51.45 51.47 48.36 45.73 44.33 43.05 37.92 39.61 39.96 40.75 41.73 44.54 44.91 43.25 41.89 45.26 48.07 51.32 49.59 50.52 51.62 52.21 51.96
55.42 55.02 54.69 54.17 53.65 52.80 51.70 50.16 48.71 47.78 50.71 47.62 48.27 48.06 50.12 53.70 53.39 50.46 52.54 54.18 52.83 50.89 46.86 47.54 45.34 42.80 43.20 43.42 42.56 42.06 40.96 40.74 42.24 43.92 43.33 41.88 42.60 44.13 47.06 48.69 48.96 49.78 50.37 50.58 51.14
54.75 54.49 54.23 53.84 53.28 53.12 50.53 47.54 49.45 52.83 48.37 50.59 50.84 50.77 52.72 53.40 49.36 49.92 54.33 50.92 50.00 46.12 47.11 45.57 41.94 44.16 45.43 43.99 43.18 42.17 40.87 40.39 42.59 43.24 43.89 42.50 42.12 44.89 46.56 46.39 47.87 49.18 49.66 50.90 52.21
54.01 54.11 53.80 53.26 53.13 51.36 49.30 50.82 56.09 55.82 49.88 48.92 50.82 50.12 49.84 52.09 48.57 48.15 52.38 50.58 47.48 45.45 43.90 43.28 43.92 45.86 45.25 43.98 43.75 42.40 41.57 41.06 41.37 42.71 43.34 42.88 41.10 42.81 45.68 47.45 48.24 49.14 50.04 51.17 52.00
53.73 53.66 53.05 52.51 50.10 49.26 48.40 53.94 54.44 55.58 40.36 42.62 46.58 49.19 50.10 50.65 48.10 50.39 51.46 50.22 46.85 44.07 43.21 44.25 46.10 44.42 43.76 43.06 43.82 40.89 44.28 42.72 41.43 40.44 38.51 41.51 37.10 40.56 43.76 45.19 47.08 48.04 49.23 50.11 50.89
53.49 53.58 52.63 52.43 49.91 49.08 52.65 59.63 57.42 52.04 29.09 43.98 46.08 51.12 49.22 47.66 47.69 48.35 51.41 49.85 44.92 44.08 44.55 42.73 44.06 43.59 43.14 42.99 44.87 42.59 44.73 43.35 41.59 40.82 40.13 40.70 39.10 39.56 43.40 42.97 45.29 47.29 48.37 49.87 51.23
51.66 53.18 52.57 51.52 50.30 53.09 57.35 55.17 51.93 39.74 31.26 41.77 45.92 45.01 45.59 46.86 46.55 47.94 49.84 50.15 48.15 45.52 45.63 44.04 47.01 45.81 45.20 44.94 45.12 45.48 44.47 43.15 42.03 40.96 36.20 38.80 39.38 40.58 40.69 43.07 45.46 47.30 48.62 49.52 50.51
51.27 52.94 52.27 52.51 51.21 58.65 56.10 49.47 39.04 33.54 43.28 40.02 41.63 44.53 44.84 44.03 44.35 45.74 44.31 44.10 42.56 40.24 39.99 43.16 43.53 45.48 46.54 44.53 45.61 44.78 41.93 35.65 34.11 34.68 33.59 38.75 37.58 41.13 43.11 44.69 48.09 47.39 48.40 49.91 50.80
51.62 52.03 51.98 52.85 55.74 56.55 50.39 42.31 34.05 38.30 40.37 43.66 42.61 43.13 41.98 43.76 43.88 44.08 43.12 41.82 44.06 42.29 39.63 38.35 36.62 43.17 45.12 44.34 43.14 41.91 41.77 36.82 29.65 31.18 34.43 38.24 36.15 40.94 44.81 46.44 48.03 49.37 49.89 50.53 50.45
52.00 50.93 51.42 54.94 55.19 53.53 45.18 35.67 35.78 39.05 43.73 41.75 42.68 40.74 41.56 43.99 43.44 43.00 41.32 40.98 42.58 43.60 40.17 38.73 37.99 44.41 44.30 46.00 45.21 41.62 38.99 41.38 35.29 33.36 32.79 35.74 39.39 43.20 44.60 44.28 46.62 48.53 48.95 49.34 50.24
50.74 49.89 51.98 57.93 57.32 49.72 41.84 36.81 39.84 45.55 45.34 43.77 38.63 41.49 38.75 41.53 41.46 41.57 41.80 44.15 42.75 44.16 45.90 42.29 37.63 42.44 43.44 45.32 44.78 43.42 43.34 37.73 36.53 28.79 27.26 32.60 34.58 37.78 41.42 43.12 45.39 47.01 48.06 49.12 48.80
52.06 48.57 52.56 56.98 51.53 44.95 37.20 38.19 43.57 48.06 47.18 43.28 41.75 40.77 41.29 41.04 41.65 40.77 41.14 43.97 44.97 44.35 45.56 42.87 40.80 39.44 42.50 40.45 40.79 41.32 39.39 37.77 38.13 34.63 29.64 27.94 33.93 41.53 42.84 45.38 45.66 47.64 47.70 47.60 46.18
46.98 41.64 54.41 50.12 42.11 39.79 38.45 41.90 45.31 45.83 47.34 46.77 45.67 43.99 42.32 42.57 41.68 41.06 41.28 43.44 45.95 46.48 42.83 42.68 39.63 36.16 38.30 42.44 43.83 42.39 40.22 39.54 34.30 31.69 32.34 32.36 34.99 42.52 43.55 45.53 46.19 45.85 44.60 44.84 44.47
44.32 48.99 55.12 47.83 36.97 37.36 42.08 44.17 46.03 44.91 45.35 45.89 45.48 46.12 46.03 42.80 40.23 42.08 42.94 45.84 44.90 44.88 42.95 42.78 37.86 33.65 36.10 39.81 42.16 40.59 40.18 37.73 35.89 35.12 32.49 32.84 34.08 41.74 42.79 42.90 44.75 43.81 43.10 42.84 42.91
48.83 43.43 47.60 45.40 42.46 41.07 40.68 41.23 43.09 46.96 46.66 46.46 45.19 46.30 44.68 42.73 43.51 41.15 42.26 45.09 45.24 44.49 43.82 44.25 37.91 36.82 34.31 36.01 38.40 36.60 37.49 37.70 37.99 33.53 32.58 33.70 35.43 38.96 41.31 41.70 41.80 42.42 43.22 43.08 43.06
46.69 43.83 46.38 40.52 40.91 41.02 42.71 42.78 42.55 42.93 46.93 46.75 45.03 44.97 43.46 39.85 40.86 40.52 42.89 43.10 44.04 44.37 43.81 42.88 37.43 37.12 36.23 36.39 36.90 36.61 36.04 36.94 36.12 36.12 34.95 35.69 35.47 39.19 42.34 42.67 42.65 43.23 42.31 41.49 41.41
45.30 42.62 42.01 41.25 44.04 41.60 41.23 42.19 42.76 44.12 44.90 44.42 43.56 44.34 44.69 41.65 42.83 40.56 42.40 41.40 40.34 43.15 42.24 41.12 36.47 36.34 34.80 35.16 34.76 34.97 36.43 35.74 35.58 35.26 36.12 35.07 35.49 40.67 42.14 43.50 42.23 42.10 41.52 41.10 40.93
50.17 48.81 44.92 39.11 41.36 39.19 39.65 42.59 43.59 45.84 45.89 45.57 45.42 43.49 41.95 44.44 45.07 43.84 43.68 43.30 43.04 42.29 39.74 38.07 36.20 34.01 30.67 31.14 31.12 30.18 34.97 36.62 36.31 37.10 38.09 34.62 40.18 41.54 40.39 41.61 42.45 42.36 41.95 41.02 40.47

GFSSW_sfc_wetblb_051.txt.gz
Wetbulb
58.32 58.54 58.77 58.80 58.47 58.01 57.53 57.03 57.11 56.96 56.14 55.90 56.68 57.69 57.54 57.54 56.53 58.60 56.16 58.67 59.83 60.97 58.39 58.87 57.80 56.39 55.45 53.91 54.35 54.66 48.80 46.83 50.81 49.00 53.15 58.05 56.50 55.93 60.79 58.25 60.31 61.78 62.31 64.04 67.99
58.04 58.30 58.36 58.53 58.27 58.02 57.28 57.03 56.70 56.61 56.04 55.71 57.14 57.54 57.64 57.33 57.36 56.11 60.78 62.32 62.16 62.22 56.53 55.87 54.24 54.12 52.09 52.32 52.60 50.81 48.70 48.79 54.02 55.51 53.23 56.80 56.79 55.94 56.06 57.17 57.71 61.84 66.07 66.66 67.10
57.63 57.89 57.97 57.82 58.01 57.96 57.09 56.40 56.48 55.97 55.49 55.48 57.28 57.40 57.29 57.32 56.10 55.96 62.42 62.10 61.69 61.41 58.60 58.24 55.66 53.18 50.87 51.88 51.95 50.92 48.49 52.48 53.58 58.24 57.72 55.65 55.93 56.08 53.13 51.79 55.73 58.39 63.28 65.10 65.98
57.54 57.60 57.42 57.25 57.58 57.78 56.72 56.22 55.82 55.83 55.82 56.74 56.99 57.23 57.40 58.52 49.26 58.93 63.39 63.36 61.94 60.27 58.70 56.83 54.17 51.04 50.21 48.99 52.04 49.33 51.87 51.30 54.86 55.17 54.74 54.30 55.83 53.22 53.88 54.52 57.60 64.23 64.97 65.36 64.78
57.15 57.09 56.92 56.86 57.07 57.29 56.90 56.51 56.64 56.69 56.67 56.47 56.55 57.05 57.70 55.04 54.46 62.91 63.69 62.76 60.93 58.28 56.86 55.10 53.14 51.69 48.86 50.14 51.01 49.33 50.96 54.80 54.28 54.78 55.36 55.77 53.61 52.83 55.45 57.67 60.76 64.08 64.01 64.29 64.19
56.81 56.55 56.32 56.85 57.09 57.16 56.86 56.35 56.31 56.21 56.16 56.19 56.53 56.63 57.50 50.42 58.28 61.54 61.51 60.55 59.62 58.05 57.01 56.34 53.98 53.76 51.98 50.73 50.15 51.94 52.83 52.89 54.01 54.30 54.59 54.72 54.10 55.21 56.54 59.37 61.21 61.90 62.47 63.13 62.64
56.49 56.00 55.96 56.48 56.56 56.48 56.35 55.93 55.73 55.91 55.80 55.98 56.51 57.78 55.17 53.59 59.68 62.12 61.22 59.13 60.03 58.90 56.70 57.76 57.05 54.41 54.67 51.66 51.58 50.34 49.91 51.37 51.37 54.42 53.23 54.54 50.87 50.90 57.17 59.02 59.09 60.08 60.83 60.96 60.50
56.51 55.96 55.63 55.65 55.49 55.37 55.43 55.20 55.20 55.33 55.46 55.80 56.28 58.34 53.30 59.51 60.97 59.63 60.47 59.56 60.20 60.14 58.71 58.39 58.03 55.35 54.24 51.94 50.10 48.46 48.37 44.83 49.98 52.02 54.04 52.64 46.22 52.45 57.75 57.78 57.23 58.15 58.91 59.39 59.24
56.12 55.55 55.17 54.98 54.92 54.74 54.68 54.76 54.80 55.18 55.45 56.10 57.13 57.40 52.67 59.53 56.27 58.77 59.56 56.51 57.65 58.55 58.45 56.49 56.43 53.55 52.41 47.40 46.21 46.50 42.48 44.78 46.21 51.84 51.13 50.61 46.48 52.66 57.45 57.38 57.13 57.70 58.23 58.60 58.83
55.68 55.37 55.37 55.04 54.64 54.35 54.25 54.35 54.79 54.49 55.50 58.58 58.29 54.34 57.41 53.56 56.81 58.28 58.68 56.94 56.71 56.86 54.08 54.08 53.64 50.12 49.60 46.36 40.03 42.74 43.90 45.77 45.76 49.68 49.75 47.60 48.12 53.47 56.63 56.43 57.59 58.48 59.10 59.17 58.49
55.33 55.29 55.59 54.68 54.68 54.27 54.05 57.19 54.40 54.79 56.11 52.75 53.50 52.83 53.93 57.19 58.70 56.64 57.03 56.05 56.29 55.03 48.59 52.84 48.63 45.87 47.01 48.31 47.87 46.49 45.26 44.38 46.49 48.65 47.67 47.15 48.58 50.95 55.63 56.25 56.67 57.60 57.90 58.70 59.42
55.07 55.17 55.23 54.70 54.57 54.25 56.64 54.50 56.04 59.06 53.79 54.89 53.86 54.44 55.97 56.58 52.67 54.62 56.74 52.48 52.66 47.61 51.55 50.04 45.89 49.37 49.49 48.28 47.72 47.12 45.11 44.21 47.19 48.49 48.61 47.53 47.55 50.60 53.78 55.08 56.27 56.85 57.98 58.83 59.70
54.88 55.19 54.82 54.47 54.00 54.54 56.39 55.65 61.97 61.18 54.46 53.57 53.98 53.23 54.27 55.13 52.15 52.18 54.80 53.62 50.99 48.70 48.46 46.90 48.41 50.72 48.48 47.35 46.66 46.96 45.52 46.20 45.64 47.81 48.56 48.79 47.66 49.44 53.29 55.78 57.20 58.29 59.14 59.83 60.14
54.43 54.86 54.33 53.36 51.08 57.75 55.68 59.06 60.03 60.83 49.21 48.58 50.12 52.14 53.58 54.73 50.66 55.04 55.39 53.24 50.61 46.97 48.90 47.91 51.04 48.39 47.88 46.83 47.99 44.26 49.19 47.62 46.61 46.10 41.84 49.19 39.68 47.93 50.75 52.35 54.50 56.54 58.05 59.09 60.10
54.06 54.54 53.64 52.29 58.32 55.25 59.91 61.56 61.53 61.29 37.66 49.10 49.21 56.71 54.47 51.42 51.68 51.40 56.01 53.03 48.90 48.61 48.55 46.56 48.62 48.14 47.14 47.74 49.76 47.04 49.83 48.22 47.40 46.21 44.85 46.12 42.46 45.62 51.34 49.61 51.69 55.00 57.21 58.71 59.27
54.09 53.77 53.43 54.41 56.59 59.93 61.98 64.72 62.28 47.53 36.99 45.14 50.17 49.48 49.74 51.10 50.16 52.21 51.83 53.92 53.67 49.45 50.36 48.17 52.60 50.97 50.44 50.32 50.27 50.92 48.99 48.70 48.48 46.71 40.82 44.28 44.19 43.78 48.43 50.08 52.41 54.52 56.44 57.67 58.78
52.74 52.50 53.98 59.02 55.25 60.89 63.75 61.09 46.47 40.46 47.84 44.39 46.04 48.90 48.71 47.55 48.24 48.88 48.56 47.93 45.90 43.12 44.41 48.10 48.63 51.12 51.88 48.79 50.64 49.81 47.08 40.46 39.03 39.35 38.29 46.06 43.64 44.89 50.30 51.42 53.37 54.23 55.84 57.89 58.87
51.78 51.45 54.36 58.15 61.05 63.79 61.12 52.94 40.18 44.61 46.06 48.08 47.70 47.95 46.03 47.83 47.55 47.90 47.41 45.60 48.86 48.42 44.73 43.12 41.77 48.61 51.24 49.84 47.82 47.98 47.02 41.16 33.15 35.57 39.30 45.63 39.83 45.77 52.32 52.60 54.49 56.29 56.94 58.01 57.28
51.10 54.69 56.52 58.19 60.50 62.48 54.99 44.66 43.87 46.13 48.11 46.22 47.13 44.64 45.12 47.08 46.97 47.38 47.00 46.44 48.46 49.39 43.85 43.55 42.97 50.01 49.87 50.92 50.20 47.61 44.12 48.72 42.80 43.14 39.51 41.55 45.96 50.01 51.56 51.53 53.43 54.83 56.07 56.34 55.83
53.55 54.87 55.16 61.08 60.78 59.06 51.48 44.54 47.68 49.93 49.77 48.79 43.59 45.73 43.36 45.43 45.02 45.74 45.99 49.03 48.36 50.75 52.67 47.80 42.56 48.13 49.05 50.82 50.76 48.95 50.75 42.70 43.51 34.13 33.31 39.95 41.20 43.76 47.20 49.24 51.62 53.59 54.85 55.24 55.91
54.26 51.25 58.63 61.86 59.66 53.00 46.47 47.57 49.37 51.27 52.36 47.87 46.25 45.42 46.03 45.34 46.30 45.25 45.72 49.21 50.84 50.64 52.72 49.90 47.02 45.91 48.02 46.62 45.65 47.11 45.30 45.71 45.78 43.79 36.45 34.77 40.63 49.10 48.24 50.56 50.85 53.26 54.76 55.11 55.80
53.39 47.02 59.96 61.52 47.29 49.93 48.00 50.16 49.58 50.01 53.56 51.39 50.26 48.17 47.34 47.61 46.24 46.08 45.22 48.51 52.60 52.16 48.08 50.49 47.77 42.94 45.22 49.13 50.24 49.41 47.10 47.02 41.33 39.42 41.60 40.91 40.41 49.45 50.43 51.72 52.53 53.06 54.54 55.79 56.66
49.95 52.74 59.79 58.62 44.25 48.04 51.08 50.40 50.99 49.37 50.48 50.51 48.49 49.53 50.20 47.76 44.92 47.49 47.75 51.67 51.76 51.53 49.18 50.95 45.43 40.39 42.45 46.36 48.46 46.09 47.30 47.13 47.02 45.08 40.71 38.47 40.62 50.28 50.85 50.29 52.00 52.60 54.33 55.34 56.18
51.95 47.60 51.43 54.63 52.10 50.42 48.89 48.85 47.39 51.66 51.07 52.25 50.03 50.72 49.44 47.36 49.46 47.40 48.11 49.98 51.37 51.72 45.82 49.39 46.96 43.88 40.13 43.31 46.93 44.87 45.98 47.08 45.72 40.75 40.58 40.99 43.00 46.14 48.17 48.57 50.31 51.89 54.11 55.04 55.17
52.97 49.49 51.92 45.97 48.65 49.58 51.30 49.74 47.26 46.58 51.54 52.93 50.27 50.14 49.15 46.01 47.38 47.46 50.14 49.25 50.15 46.51 49.71 50.76 44.75 46.32 46.33 46.07 45.74 45.44 45.04 45.63 44.20 44.41 41.49 43.12 43.24 44.97 47.10 48.98 50.28 51.63 53.04 53.30 52.87
50.72 50.79 52.51 49.87 50.75 50.48 47.94 48.96 47.31 47.89 49.63 49.36 48.97 49.73 51.06 48.44 49.06 47.25 50.12 50.00 48.74 50.59 50.40 50.76 44.83 45.87 42.78 45.79 45.12 43.28 45.43 45.35 45.11 45.27 44.46 44.43 43.92 48.91 50.01 49.60 49.44 50.72 51.73 52.00 51.90
57.06 57.78 52.47 48.73 50.00 49.34 49.78 49.83 48.38 50.20 52.35 53.11 51.82 50.25 50.47 51.44 54.67 55.05 54.64 53.66 52.83 50.91 49.67 48.71 46.31 42.69 38.31 41.93 41.86 37.36 43.30 44.54 45.34 46.33 45.81 42.61 46.67 49.49 48.01 47.93 48.61 50.39 51.43 51.45 51.71

GFSSW_sfc_wetblb_054.txt.gz
Wetbulb
58.48 58.48 58.96 58.99 58.61 58.52 58.36 57.75 57.28 57.16 57.49 56.48 56.30 56.92 57.72 57.94 56.49 57.12 54.61 58.50 59.78 61.82 59.28 57.46 57.99 55.93 55.64 52.71 53.52 52.97 45.79 44.53 47.02 50.09 52.60 53.26 52.85 56.99 58.87 57.06 58.78 60.59 56.78 58.97 65.53
58.28 58.27 58.26 58.46 58.21 58.06 58.07 57.62 56.89 57.00 57.17 56.20 56.25 57.31 57.59 57.45 55.36 54.79 60.05 62.97 62.60 61.86 55.49 54.98 54.00 54.80 51.62 50.87 51.45 49.12 46.09 46.28 52.39 53.78 52.30 52.15 51.79 53.08 54.47 52.27 56.69 59.72 60.39 61.73 64.45
58.15 57.93 57.90 57.77 58.04 58.05 57.81 57.23 56.78 56.88 56.66 56.63 57.02 57.52 57.05 56.80 54.76 56.06 63.19 63.24 62.56 61.31 56.17 55.65 55.84 53.42 49.66 50.99 50.49 49.41 46.09 50.16 55.38 55.45 55.43 52.60 51.96 53.48 54.78 52.34 54.26 59.16 61.99 64.05 64.29
58.07 57.75 57.63 57.42 57.65 57.68 57.29 56.88 57.08 57.07 56.88 57.13 57.11 57.16 57.14 56.36 48.83 57.86 64.00 62.97 62.62 58.97 57.00 56.28 54.67 50.64 48.43 48.21 50.90 47.24 50.46 52.94 54.70 55.95 53.55 53.42 54.24 53.85 54.86 55.16 58.99 63.32 63.29 63.43 62.46
57.44 57.46 57.18 56.88 57.20 57.29 56.96 56.69 56.89 56.76 56.74 56.73 56.89 57.01 56.60 54.25 54.48 61.80 64.33 63.40 60.28 56.54 55.27 54.28 52.36 50.68 47.73 49.44 50.12 48.90 50.48 54.06 55.00 54.40 53.61 55.04 52.15 51.27 54.15 57.25 62.84 62.99 62.59 62.30 62.81
57.28 56.83 56.59 56.67 56.85 56.92 56.78 56.41 56.23 56.51 56.34 56.59 56.78 56.38 55.79 49.70 59.41 61.58 61.32 61.64 59.63 56.06 55.61 55.64 53.27 53.71 50.79 50.26 49.51 51.34 51.18 52.97 53.73 53.60 54.21 53.49 52.44 53.71 55.45 58.57 59.77 60.24 61.38 62.00 61.85
57.22 56.59 56.23 56.35 56.50 56.42 56.35 56.07 55.83 56.17 56.10 56.42 56.55 56.64 54.09 52.39 59.73 60.64 61.17 59.44 59.45 58.76 55.83 57.15 56.32 53.83 53.67 51.28 52.13 52.44 49.57 51.40 51.94 53.57 50.27 52.76 50.58 51.19 57.10 59.27 58.04 58.65 60.01 59.63 60.66
57.32 56.51 55.72 55.63 55.41 55.63 55.63 55.24 55.34 55.73 55.92 56.10 56.28 56.36 52.08 60.01 60.25 58.56 59.58 59.21 60.05 59.70 58.52 58.84 58.46 55.21 53.69 53.98 50.00 48.52 49.01 44.33 48.98 51.18 52.81 51.79 43.75 52.83 56.91 57.06 56.50 57.68 58.07 58.69 59.31
56.90 56.14 55.33 54.82 55.04 55.08 54.86 54.88 55.16 55.76 55.83 56.17 56.19 55.95 52.21 60.65 56.39 58.13 59.00 56.50 57.58 58.40 58.66 57.15 55.88 53.05 53.17 48.33 44.91 46.35 40.50 43.67 46.51 50.75 51.34 49.97 46.85 53.18 56.55 56.06 55.36 56.43 56.92 56.96 57.05
56.55 56.08 55.33 54.96 54.94 54.45 54.05 54.63 56.08 54.93 55.79 57.22 57.18 52.59 56.34 53.88 56.18 56.87 59.12 57.62 55.92 56.56 54.46 54.24 53.12 49.66 49.27 46.03 39.26 41.24 42.53 44.59 44.43 47.97 50.06 47.79 47.35 51.96 55.22 55.81 55.03 55.46 56.26 56.50 55.92
56.31 55.94 55.21 55.20 54.80 54.64 54.31 56.51 54.01 53.02 54.57 51.47 53.05 51.87 53.94 56.90 58.53 56.29 57.99 55.40 55.25 54.43 48.83 52.08 47.36 44.42 45.91 47.86 47.42 46.85 45.22 44.86 46.75 49.06 47.45 46.41 47.32 49.89 52.97 54.64 54.91 55.66 56.40 56.88 57.42
55.88 55.68 55.32 55.25 55.00 54.86 54.85 54.07 56.12 58.30 52.26 57.13 54.19 53.92 55.78 56.90 52.55 54.34 57.43 51.88 51.92 48.47 50.19 47.67 44.92 49.14 50.04 49.51 47.81 46.38 45.08 43.90 46.26 47.26 47.02 46.35 46.44 49.23 51.76 52.62 55.53 56.34 56.84 57.50 58.13
55.33 55.40 55.44 55.02 54.41 53.73 54.72 54.59 59.45 60.20 52.67 54.16 56.38 51.46 52.85 55.50 52.20 52.15 54.47 52.78 50.09 47.81 48.18 45.51 45.72 50.78 49.57 46.89 45.04 46.59 45.09 45.15 44.59 46.24 47.59 47.24 44.45 47.55 51.16 53.56 55.13 56.18 57.51 58.26 58.58
54.76 54.92 54.86 53.78 50.97 56.26 55.01 59.09 59.50 61.19 47.26 49.26 51.52 51.64 54.00 54.28 50.66 55.57 55.36 52.57 50.46 47.48 48.10 46.95 50.17 48.53 47.87 45.99 47.16 43.66 48.62 46.93 46.49 44.89 39.64 47.62 37.42 45.65 49.27 50.96 53.49 55.30 56.20 57.57 58.93
54.37 54.37 54.11 52.61 55.56 56.26 59.70 60.56 61.85 59.58 37.28 50.00 50.78 55.71 54.36 51.01 51.82 51.60 55.42 52.60 48.40 48.25 48.56 46.37 47.14 46.91 46.06 46.78 49.89 45.31 48.31 48.59 46.71 44.59 44.16 42.61 40.23 43.87 48.55 48.24 51.37 54.57 56.72 58.24 59.56
54.13 54.19 53.92 53.89 55.12 57.39 60.90 64.00 59.95 46.93 36.01 45.80 49.31 48.54 49.04 50.27 50.57 51.70 51.20 53.75 53.03 49.12 49.47 48.06 51.86 49.96 49.13 49.43 50.02 51.55 48.52 48.44 47.52 45.70 37.17 41.77 41.49 42.27 44.97 48.61 51.43 54.17 56.22 57.88 58.79
53.64 53.79 53.53 57.64 54.58 61.71 61.51 59.42 45.32 39.14 48.13 45.41 45.53 48.43 47.90 47.58 48.29 48.48 48.02 46.97 45.43 42.67 43.17 46.81 46.83 50.54 51.85 47.66 50.02 49.00 46.01 39.41 34.32 36.10 37.34 44.56 42.41 44.01 48.33 50.75 52.92 53.68 55.44 57.51 58.23
52.77 52.38 53.53 56.11 59.85 62.71 60.09 51.18 38.72 44.37 45.94 48.12 47.30 47.81 45.36 47.66 47.39 47.55 46.09 44.33 47.76 46.78 43.16 42.16 40.68 47.69 50.43 47.78 45.20 46.53 44.97 38.43 32.54 32.63 38.48 44.60 39.66 44.71 51.44 52.97 55.39 55.65 56.28 57.37 57.75
51.48 52.80 53.82 57.06 58.42 60.42 53.77 43.30 41.55 46.11 48.40 47.35 46.81 44.17 44.57 47.05 46.96 46.40 45.44 45.01 46.74 48.07 43.16 42.25 42.03 48.66 50.46 50.27 49.94 46.71 43.47 48.13 41.95 43.23 39.29 41.13 43.37 49.94 51.20 50.81 53.18 54.44 55.56 56.24 57.18
52.27 51.72 51.74 59.49 60.77 56.82 49.45 43.55 46.41 50.83 49.71 49.20 43.24 45.40 42.57 44.74 44.49 45.41 44.91 47.72 47.13 49.16 51.08 45.99 39.43 47.39 49.68 50.55 50.16 47.66 48.91 42.66 43.23 33.96 32.48 38.25 40.36 42.62 46.82 48.10 51.18 52.92 54.39 56.07 56.76
52.42 47.29 56.19 60.37 59.27 51.59 44.12 45.58 48.54 52.18 51.65 48.38 45.89 44.88 45.09 44.63 45.65 44.93 44.67 47.48 49.28 50.20 51.44 49.28 43.99 45.57 48.39 45.91 44.05 46.23 44.50 44.94 43.86 43.39 36.30 34.79 38.85 49.69 48.28 49.96 50.26 52.69 54.84 55.98 55.50
50.91 42.84 57.69 60.11 46.85 46.36 45.04 48.28 49.32 51.03 51.66 50.89 50.12 48.11 46.47 46.69 45.54 44.81 44.45 47.28 51.94 51.09 47.16 49.64 47.33 42.63 44.61 49.21 49.88 48.19 46.37 45.98 41.13 38.53 42.67 40.25 39.42 49.85 51.14 51.67 51.97 52.03 54.62 55.96 55.90
46.86 50.39 58.81 57.65 41.89 43.03 47.00 48.34 50.71 49.84 50.06 50.09 49.12 49.61 49.89 47.07 44.36 46.73 47.50 52.27 52.20 50.69 48.47 50.40 45.92 39.53 41.44 46.09 48.81 45.56 46.19 46.32 46.43 46.62 40.39 37.99 39.80 50.09 50.08 50.67 51.65 51.66 53.90 54.62 55.36
48.66 44.52 50.64 53.11 51.06 45.52 45.32 46.51 47.48 52.27 50.13 50.83 50.13 50.36 48.42 46.97 49.13 46.62 47.25 50.61 52.18 51.47 47.11 51.90 47.01 42.79 38.67 41.77 46.19 44.36 45.26 46.12 45.36 41.10 40.45 40.72 42.42 45.99 48.07 48.13 49.52 51.21 52.95 54.33 54.85
49.85 47.16 50.15 43.38 47.13 47.76 49.50 48.03 46.55 46.99 50.56 51.10 49.42 49.06 47.65 45.09 45.92 45.74 48.46 49.71 50.68 47.00 49.94 50.12 42.88 44.16 44.70 45.85 46.10 45.40 45.14 45.34 43.63 44.40 40.38 43.10 42.58 45.38 48.02 49.11 49.75 51.04 51.99 52.99 53.89
47.63 48.81 52.11 49.10 49.26 47.08 45.97 48.01 47.36 48.87 48.51 47.67 48.50 49.61 49.27 46.82 47.23 45.61 48.68 50.04 48.02 50.28 49.45 50.75 44.35 45.76 43.66 46.34 45.84 43.25 44.85 45.12 44.99 44.91 44.24 44.73 43.76 48.89 49.84 50.13 49.49 49.96 50.86 50.80 52.81
52.80 56.16 51.51 47.21 47.77 45.49 46.75 49.19 48.79 51.32 50.99 50.89 51.38 50.22 48.93 50.57 53.80 54.73 55.06 54.16 52.35 50.21 48.82 48.61 46.48 43.80 39.19 42.83 41.03 35.63 42.59 43.71 44.46 45.76 45.49 41.47 46.43 49.53 48.12 48.45 49.43 49.53 49.95 51.18 52.31

GFSSW_sfc_wetblb_057.txt.gz
Wetbulb
58.99 58.99 58.68 58.65 58.37 58.20 58.00 58.02 57.51 57.27 57.11 57.07 57.21 56.57 57.24 57.61 56.42 54.42 50.31 55.00 55.38 60.18 59.48 54.91 54.03 54.08 50.29 47.18 48.18 45.32 37.49 36.61 39.48 47.99 48.14 52.83 52.38 55.06 57.90 54.43 56.20 57.28 56.80 61.04 63.19
58.95 58.88 58.21 58.35 57.97 57.72 57.66 57.61 57.17 56.99 57.39 56.86 57.21 57.16 57.45 57.15 53.66 51.45 57.02 60.73 61.60 61.29 53.66 51.40 50.67 51.84 46.66 46.38 45.60 41.34 36.77 40.24 50.03 51.10 49.39 51.07 53.09 53.18 53.46 54.16 53.44 55.09 58.80 62.76 61.22
58.97 58.61 57.96 58.10 57.86 57.67 57.38 57.09 56.92 57.27 57.43 57.35 57.35 57.47 56.72 55.98 51.60 54.88 62.41 62.40 62.03 60.20 53.30 52.62 52.65 50.42 46.28 45.21 44.65 43.37 40.16 48.18 52.25 52.95 52.43 50.60 51.41 54.12 51.27 47.74 52.81 51.59 57.61 60.35 58.43
58.57 58.12 57.88 57.87 57.64 57.31 56.85 56.52 56.80 57.23 57.13 57.25 57.32 57.32 56.49 54.22 45.69 52.86 63.15 62.79 62.78 56.48 53.87 52.36 51.58 47.41 44.85 42.90 46.25 42.54 49.62 53.90 53.57 53.40 52.39 50.59 51.04 51.82 51.71 52.59 56.35 57.02 60.22 60.20 57.71
57.57 57.49 57.45 57.47 57.07 56.88 56.44 56.24 56.40 56.68 56.82 56.65 57.02 57.26 53.73 50.48 52.66 59.00 63.32 62.21 58.01 55.16 52.03 52.06 50.05 48.18 44.38 45.05 46.25 45.12 51.52 52.19 52.50 52.11 51.58 53.42 49.75 49.74 50.21 57.32 60.52 60.88 62.12 60.65 59.10
57.43 57.14 56.72 56.60 56.31 56.39 56.18 55.92 55.83 55.88 56.20 56.53 56.94 56.71 52.51 47.15 57.48 61.03 61.95 59.61 57.68 53.14 51.35 51.80 50.87 50.98 47.96 47.16 46.51 48.39 50.56 50.63 50.74 50.73 53.21 51.45 50.44 50.06 51.33 56.47 58.27 60.87 59.84 59.43 59.67
57.53 56.92 56.49 56.15 55.95 55.76 55.94 55.69 55.37 55.41 56.06 56.33 56.65 54.93 51.00 48.92 55.64 54.77 56.96 57.52 56.28 54.53 52.29 54.00 53.88 49.94 50.81 47.71 50.40 49.59 46.30 49.68 50.73 51.33 50.29 51.96 47.69 47.62 51.65 56.23 55.86 58.27 58.58 57.80 58.40
57.73 56.84 55.88 55.46 55.03 54.82 55.19 54.93 54.91 55.25 55.92 56.25 56.45 52.85 48.10 58.51 56.41 56.55 56.40 55.52 58.19 57.40 56.38 55.61 55.09 51.81 50.19 50.87 48.18 45.18 45.44 41.13 48.67 50.76 51.31 49.43 41.68 49.34 54.21 53.63 52.71 53.77 57.11 56.06 58.88
57.28 56.49 55.70 54.82 54.31 54.38 54.50 54.28 54.68 55.41 56.10 55.99 52.35 50.89 49.38 60.22 56.78 57.11 55.58 54.54 56.26 56.64 56.37 56.15 53.24 49.48 49.73 45.06 41.86 43.78 38.09 41.18 43.93 50.60 49.56 47.31 42.09 49.19 53.42 53.23 52.13 51.92 52.44 55.67 53.84
57.05 56.51 55.60 54.76 54.27 53.97 53.55 53.91 54.71 54.05 54.67 54.90 54.53 47.43 52.73 52.89 55.85 55.05 55.23 55.96 54.92 54.71 52.92 52.16 49.69 46.47 45.33 42.67 35.78 38.98 40.00 42.09 41.06 45.17 47.64 43.86 43.27 48.41 51.27 52.02 50.70 51.19 51.55 51.68 51.71
56.95 56.33 55.52 54.56 54.27 53.85 52.62 51.77 50.08 49.25 50.46 48.74 49.76 49.93 51.44 55.41 56.91 53.81 55.45 53.76 52.81 52.20 45.78 49.83 43.66 41.53 43.98 45.29 45.47 44.88 42.85 41.52 43.68 45.74 44.69 43.34 45.37 48.79 50.31 51.56 50.62 49.34 51.50 51.68 52.31
56.66 55.96 55.40 54.56 54.42 54.42 51.57 48.17 52.17 53.03 48.40 54.08 52.98 53.23 54.48 54.31 51.10 53.24 55.12 49.83 49.17 46.56 47.96 44.33 41.41 47.68 49.01 47.76 45.85 44.53 43.06 41.76 45.51 46.12 44.74 42.46 42.55 46.52 50.04 49.13 49.51 50.49 50.79 51.28 54.19
56.12 55.68 55.28 54.27 54.15 51.47 50.50 50.82 55.39 54.16 47.89 51.87 54.46 54.03 53.35 52.65 50.27 50.73 52.23 50.10 47.39 46.41 46.48 43.47 45.94 49.25 47.84 46.43 45.39 44.45 41.96 42.32 42.39 44.33 43.04 41.42 40.23 43.35 47.33 50.62 50.83 51.98 53.71 54.03 54.62
55.51 55.05 54.34 53.24 50.29 51.90 50.53 55.75 55.13 52.81 42.61 46.80 50.00 53.51 53.58 50.95 49.12 53.89 53.87 49.99 48.35 45.57 46.33 45.52 48.98 47.60 46.33 45.30 46.32 41.06 47.23 46.67 44.69 41.26 35.29 43.06 33.92 41.26 45.78 47.33 49.97 52.45 52.91 53.95 55.59
55.11 54.58 53.78 53.15 50.31 50.70 56.22 57.15 55.39 53.50 32.36 49.72 50.60 54.31 50.42 49.44 49.91 50.30 53.45 49.77 45.20 46.88 46.70 44.87 45.60 45.78 44.41 45.59 48.45 44.03 48.46 46.53 45.50 41.61 39.30 40.04 35.60 39.90 45.16 44.62 47.19 49.54 51.70 53.01 56.00
54.73 54.13 53.55 52.33 51.57 52.32 54.77 55.08 55.39 43.47 33.32 46.01 49.59 46.92 47.15 48.88 49.18 49.88 49.15 50.77 49.58 46.33 47.06 45.89 49.00 47.74 47.29 48.73 48.70 49.65 46.41 45.66 44.14 41.45 33.74 40.57 38.55 35.98 40.64 45.31 48.89 50.70 52.17 54.03 55.27
54.15 53.71 52.93 54.61 50.21 55.51 54.27 53.67 41.12 36.42 47.47 43.92 43.76 46.61 45.93 45.12 46.29 46.75 45.25 43.34 40.78 38.34 39.11 43.94 45.25 48.61 50.66 45.82 47.44 46.03 41.93 33.43 31.14 30.44 31.15 43.41 39.31 40.06 45.46 49.12 50.49 50.42 51.64 53.17 54.37
53.47 52.93 52.60 53.46 54.20 55.44 54.44 47.53 36.57 41.90 43.42 48.18 45.90 45.79 43.10 45.34 45.18 45.68 43.11 40.44 44.02 43.03 39.05 38.04 36.55 44.69 48.80 45.51 43.64 43.07 42.08 33.43 28.31 29.19 32.34 42.78 37.21 42.35 47.58 50.31 51.95 52.61 52.23 53.53 52.45
52.83 52.28 50.46 52.05 53.22 53.65 50.56 39.66 36.99 43.63 46.73 46.43 44.92 41.96 41.80 44.80 45.40 44.10 41.93 41.06 43.34 44.03 38.48 39.04 39.97 47.75 49.91 49.50 46.86 43.05 39.96 44.81 38.44 38.66 31.00 36.80 40.71 46.40 47.76 48.36 49.36 49.71 52.57 51.76 51.86
51.71 50.41 49.10 54.14 55.47 51.58 46.35 39.78 43.84 48.44 49.07 48.47 41.78 43.10 39.21 41.93 42.09 42.92 41.57 44.79 44.42 46.30 47.09 44.70 38.66 45.67 48.00 49.20 47.94 45.68 46.66 37.36 36.96 27.51 25.97 33.07 34.92 37.70 43.06 46.06 48.91 49.14 49.96 51.59 52.02
51.38 46.67 50.61 54.47 54.31 48.36 39.02 41.67 45.42 50.46 50.52 47.31 44.86 42.97 42.77 41.91 42.81 41.59 42.49 45.46 46.52 48.94 48.27 45.27 41.55 41.95 46.75 43.90 42.20 42.22 39.94 40.96 39.87 36.41 28.43 26.32 32.75 44.31 44.94 46.33 47.00 48.90 51.55 51.97 51.83
50.18 42.47 52.19 56.08 43.28 42.91 40.19 43.87 46.43 48.59 50.82 49.24 48.39 47.28 44.43 43.45 43.44 41.93 42.45 44.53 48.32 49.52 44.66 46.63 42.14 36.58 41.67 47.01 47.44 44.72 42.58 42.46 31.21 33.40 34.91 30.51 32.64 44.63 45.69 46.90 47.94 48.65 52.35 52.77 52.60
46.57 46.71 53.49 53.20 35.61 38.51 42.87 44.24 46.88 47.68 47.40 48.23 47.51 48.67 47.46 44.33 42.28 44.92 44.14 49.96 49.07 47.43 45.20 46.49 40.19 32.06 36.64 41.03 45.03 41.92 43.39 43.16 42.19 38.75 34.38 26.93 32.28 45.37 46.70 46.79 48.04 46.66 50.01 52.56 51.44
46.90 41.02 48.05 49.81 44.16 41.14 40.42 41.10 42.51 48.74 48.12 49.70 48.56 48.97 46.21 43.46 45.60 44.59 45.31 49.55 50.18 48.29 45.90 47.90 43.16 37.92 31.78 36.91 41.66 39.96 42.28 43.02 40.47 30.57 33.19 34.03 37.90 42.36 43.87 44.33 45.62 45.99 48.19 49.81 51.58
46.43 42.71 47.79 42.24 43.19 42.46 42.61 42.42 42.52 43.16 48.89 49.86 47.35 46.89 45.07 40.82 42.38 43.77 46.30 46.99 49.12 46.92 47.18 45.44 38.43 40.15 40.96 42.50 43.11 42.85 42.23 42.46 41.61 40.06 33.93 37.75 39.65 42.61 42.72 44.07 44.76 46.28 47.28 48.98 49.47
44.22 44.70 48.17 46.29 46.93 44.42 42.12 41.02 41.96 45.32 46.97 46.03 45.10 47.23 46.45 42.83 43.64 41.70 46.28 45.76 44.33 46.16 44.56 46.03 38.50 39.62 37.77 43.15 42.02 39.13 41.77 41.57 41.28 41.55 39.90 39.64 39.12 43.65 44.39 45.19 44.49 45.24 46.28 47.73 49.79
48.36 48.29 48.37 44.37 44.77 43.08 42.27 42.90 44.09 47.32 48.86 50.09 47.40 46.72 45.12 46.72 49.01 48.59 50.05 49.55 48.46 45.62 43.11 43.43 40.40 35.03 32.10 37.39 36.92 29.68 37.82 40.08 41.25 42.04 40.45 36.04 40.65 43.93 43.06 44.39 43.64 44.07 45.99 46.68 49.01

GFSSW_sfc_wetblb_060.txt.gz
Wetbulb
58.91 59.00 58.88 58.64 58.07 57.90 57.70 57.66 57.37 57.35 57.32 57.53 57.64 57.28 57.41 57.35 56.10 53.79 48.58 52.46 54.61 59.94 58.50 53.15 52.01 51.11 49.07 44.94 45.92 43.30 36.49 34.39 37.10 42.00 47.40 52.20 51.83 54.29 57.05 54.99 56.09 57.60 56.69 59.40 61.91
59.20 59.00 58.52 58.48 57.83 57.60 57.44 57.21 56.93 57.01 57.37 57.33 57.41 57.51 57.45 56.86 52.71 50.85 55.95 60.06 60.28 61.72 53.10 50.73 48.23 49.33 45.79 44.06 44.63 39.82 35.27 36.79 46.01 49.80 47.94 50.09 51.86 52.15 52.89 52.60 53.38 55.74 60.53 61.41 60.64
59.33 58.91 58.45 58.19 57.88 57.41 57.08 56.57 56.54 56.93 57.31 57.17 57.23 57.53 56.70 55.75 50.42 54.12 61.22 61.59 61.72 60.97 52.10 51.46 51.06 48.76 43.69 44.01 42.95 39.25 38.11 46.21 50.16 50.70 50.52 48.70 50.34 52.80 50.61 46.67 52.12 53.34 58.90 60.38 59.70
58.59 58.19 58.08 58.04 57.86 57.07 56.47 55.94 56.50 56.83 56.97 56.89 56.94 57.25 56.51 53.51 43.85 51.70 62.15 62.73 62.42 55.06 52.73 50.86 49.57 46.05 43.60 42.23 43.06 40.04 46.20 50.54 51.81 51.92 50.64 48.54 51.21 50.81 49.42 51.16 56.15 55.18 59.66 59.68 59.30
57.63 57.33 57.59 57.75 57.33 56.70 55.94 55.72 56.12 56.32 56.40 56.33 56.80 57.31 52.79 48.08 49.77 57.78 62.72 61.71 56.23 53.93 50.47 50.19 48.56 46.85 43.03 44.07 44.26 43.10 49.75 51.17 51.92 51.55 51.84 52.70 48.17 49.12 50.15 56.85 57.24 59.65 58.97 57.27 56.80
57.36 56.94 56.77 56.70 56.62 56.13 55.86 55.41 55.49 55.67 55.79 56.02 56.48 56.55 51.32 44.35 55.56 60.40 59.23 57.20 54.94 51.76 49.40 50.00 48.77 49.30 47.03 47.15 45.26 48.04 49.38 48.86 48.21 49.99 50.98 49.21 47.96 50.12 49.81 55.16 56.87 57.24 57.08 57.13 57.73
57.55 57.07 56.65 56.49 56.25 55.80 55.40 55.11 55.05 55.07 55.71 55.97 56.38 54.39 49.76 45.93 52.92 52.65 54.29 55.38 55.71 52.61 50.50 51.43 51.51 48.93 48.73 47.60 49.37 49.00 46.03 47.43 47.55 49.33 47.37 48.87 45.52 46.73 50.77 53.89 57.00 58.18 57.85 57.29 57.42
57.98 57.01 56.16 55.45 55.11 54.78 54.54 54.40 54.52 54.99 55.57 55.82 56.04 52.13 46.25 56.08 54.78 55.48 54.53 54.38 55.89 54.52 53.38 54.19 53.25 50.42 48.40 48.94 47.03 43.44 43.20 39.51 46.52 49.28 50.16 48.55 40.72 47.87 51.87 53.77 54.51 57.40 57.65 56.96 57.38
57.79 56.82 55.98 54.92 54.34 53.91 53.65 54.03 54.24 55.07 55.64 55.66 50.91 49.85 47.29 58.45 55.18 57.29 55.92 53.14 54.47 54.99 54.05 54.94 51.68 47.53 48.03 43.50 40.47 41.71 36.72 39.31 43.37 49.25 47.55 46.22 41.36 49.10 52.55 53.40 52.93 54.98 55.93 55.43 54.27
57.56 56.96 56.00 54.88 54.03 53.22 52.99 53.77 54.40 53.99 53.82 54.69 53.44 44.79 50.17 50.66 54.81 54.77 54.00 54.50 52.41 53.35 51.06 49.97 47.45 44.89 43.10 40.28 35.64 37.77 39.15 40.86 40.26 46.21 46.21 43.69 42.49 47.87 50.83 51.78 50.53 53.09 54.61 53.63 53.42
57.42 56.86 56.00 54.78 53.93 53.26 51.43 49.88 48.29 48.36 48.88 46.88 46.70 45.87 49.62 53.87 55.07 51.85 52.97 52.25 52.59 50.08 43.78 47.46 42.68 39.42 41.25 45.28 45.25 44.27 42.50 39.70 42.08 44.91 44.44 42.51 41.96 45.32 48.70 49.06 49.59 52.34 53.71 54.75 54.19
56.52 56.68 55.90 54.72 53.70 53.83 50.07 46.18 49.14 49.24 44.29 51.68 51.95 51.07 53.27 53.55 49.12 50.94 54.04 48.54 48.06 43.91 46.58 44.00 39.14 46.09 47.91 46.54 45.29 44.15 41.75 40.92 43.49 44.04 44.46 40.69 41.28 45.78 48.44 50.25 50.73 49.53 49.39 50.29 51.59
55.67 56.16 55.69 54.11 53.54 50.49 48.45 48.95 52.70 52.24 44.83 49.80 52.71 52.09 53.12 54.51 49.16 48.85 51.31 49.12 46.28 44.29 44.52 40.92 44.01 48.35 47.05 44.81 44.02 43.07 41.07 39.98 40.26 42.45 43.18 40.08 39.65 43.20 48.06 49.30 49.79 50.67 51.02 51.23 52.86
55.01 55.63 54.66 53.15 48.81 49.50 49.50 54.34 54.65 51.71 40.05 44.69 49.25 52.17 53.48 51.03 45.94 51.73 52.45 49.27 46.90 43.48 44.04 43.32 47.19 45.84 44.23 43.68 44.56 38.77 45.16 44.66 42.44 38.67 33.86 40.78 31.39 39.34 43.96 48.09 48.82 49.55 50.45 50.94 53.21
54.67 55.19 53.87 52.52 49.33 49.24 54.06 53.05 52.81 51.87 24.88 46.97 49.07 55.46 52.50 46.52 48.11 48.76 51.57 48.72 44.50 45.24 45.01 42.53 43.59 43.97 42.99 44.15 46.03 42.35 46.42 44.77 43.42 38.93 37.08 38.17 34.10 37.00 43.91 43.38 46.88 49.21 50.36 52.06 54.34
54.43 54.73 53.60 51.97 50.64 50.76 52.45 53.64 53.83 41.08 28.18 45.67 50.01 46.54 44.46 45.69 47.42 48.29 48.27 48.85 48.17 45.71 45.39 43.36 46.56 46.43 45.04 47.08 47.11 47.39 44.19 43.38 41.80 38.71 32.58 38.03 35.91 35.07 39.40 44.41 46.25 48.72 51.20 52.69 54.28
54.18 53.95 52.96 53.55 48.02 53.16 54.06 52.05 39.52 34.83 46.05 43.18 43.55 44.59 44.11 43.26 44.86 45.47 43.59 41.95 39.44 36.94 37.37 42.18 43.20 45.99 48.34 43.93 45.71 44.19 39.29 30.99 29.30 29.31 30.10 40.52 36.70 38.36 43.00 45.64 46.49 47.88 49.47 51.87 53.88
53.29 53.02 53.45 52.95 51.17 52.88 53.05 46.06 34.60 39.83 41.84 47.66 44.18 43.86 41.24 43.58 43.37 43.78 41.50 38.74 41.54 41.14 37.13 36.11 34.83 43.20 46.80 43.94 41.01 41.98 39.39 31.18 26.68 26.92 31.14 40.44 34.51 40.11 46.83 47.84 49.44 50.31 51.23 52.98 54.86
52.90 52.81 51.89 52.69 52.09 52.14 48.77 38.89 35.02 41.82 45.75 43.65 43.20 40.06 39.84 43.11 43.17 42.02 40.26 39.46 42.01 42.17 37.09 36.65 38.35 46.32 47.38 47.66 45.16 41.35 37.51 43.00 36.43 35.41 30.28 33.69 38.42 44.30 46.03 45.75 47.40 48.20 50.74 51.00 52.36
50.36 50.62 50.41 52.68 52.80 50.95 45.81 37.56 41.46 47.30 47.92 47.11 39.80 41.59 37.56 40.10 39.88 40.31 39.85 43.22 42.20 44.45 44.16 42.07 36.92 44.57 46.77 47.89 46.70 43.27 45.27 36.75 36.28 27.17 25.53 31.09 32.92 36.40 41.88 44.69 46.02 46.56 48.75 50.02 50.65
49.06 45.55 51.27 54.27 52.89 45.68 38.62 39.25 43.11 48.16 48.95 45.97 43.20 41.12 41.20 39.98 40.75 39.29 40.75 43.75 44.59 44.95 45.61 43.45 39.61 39.28 44.71 42.47 41.01 40.59 38.80 39.57 38.52 33.65 27.61 25.17 31.19 41.04 43.32 46.08 46.03 47.10 50.14 50.86 49.90
46.10 41.23 52.02 54.62 41.95 39.26 39.47 42.85 44.11 45.98 48.85 47.52 47.16 45.44 42.30 41.78 40.24 40.01 40.55 43.16 46.62 47.49 43.24 44.46 40.14 34.97 40.43 45.07 46.13 42.41 40.73 40.27 31.15 32.14 32.44 28.99 31.31 42.72 44.98 46.10 47.83 48.37 50.85 51.61 51.55
43.56 45.29 51.54 51.81 36.81 35.25 40.62 43.18 44.97 44.05 45.58 46.18 45.44 47.04 45.85 42.24 37.89 41.40 42.18 47.51 46.75 46.65 43.41 44.80 38.57 31.64 36.17 40.57 42.91 40.43 41.47 41.84 39.96 35.34 31.81 25.54 31.09 43.38 43.90 44.96 46.25 47.07 49.03 51.27 51.55
45.02 39.35 46.16 47.50 44.30 38.60 37.45 39.61 40.85 46.17 44.91 46.75 46.28 47.48 44.86 42.35 44.09 40.76 43.21 47.48 48.07 46.80 46.10 46.17 40.50 35.83 32.08 36.16 38.94 37.27 40.88 40.83 38.24 28.91 31.46 32.53 36.31 41.16 42.24 43.09 44.74 45.23 47.50 50.26 51.38
45.82 41.92 44.47 39.63 40.44 40.53 39.96 40.36 39.73 40.06 44.82 47.47 45.31 45.17 43.97 40.11 40.18 40.64 44.83 45.10 47.13 45.47 45.71 43.56 37.35 39.24 39.86 40.72 41.03 39.87 39.82 39.84 38.55 37.75 32.84 36.27 36.94 41.06 42.10 42.66 43.60 44.76 46.42 48.25 48.77
43.21 43.17 45.52 42.50 43.09 39.84 39.12 38.23 38.99 41.30 42.72 41.82 42.87 45.86 45.48 41.60 41.73 39.96 44.27 43.21 42.22 44.26 42.67 44.02 36.76 36.62 35.32 39.12 39.05 37.28 38.96 39.39 39.49 39.33 38.55 38.28 37.67 42.52 42.19 42.07 43.43 44.75 44.88 46.67 47.48
43.88 47.17 45.16 41.89 41.94 39.68 38.46 39.33 40.21 42.97 44.91 45.27 46.67 45.82 43.58 45.61 46.47 45.23 48.29 47.90 46.62 43.40 41.25 41.25 38.56 32.76 30.99 34.99 35.28 30.05 36.08 38.62 39.47 40.13 39.54 34.85 38.51 40.81 40.90 41.92 41.01 41.84 43.82 46.67 47.47

GFSSW_sfc_wetblb_063.txt.gz
Wetbulb
59.13 58.83 58.86 58.85 58.12 57.55 57.47 57.24 56.95 57.01 57.02 57.29 57.26 57.16 57.29 57.27 56.00 52.72 47.02 51.32 53.41 58.83 58.23 51.46 50.49 49.94 48.03 43.99 43.56 40.41 35.73 32.73 35.51 37.58 43.04 51.07 50.87 53.66 55.41 53.62 55.19 57.39 56.38 60.30 63.65
59.61 59.36 58.70 58.72 57.97 57.37 57.14 56.92 56.45 56.75 57.05 57.21 57.11 57.23 57.17 56.82 52.34 49.65 55.60 59.41 59.41 60.77 51.56 49.35 46.60 47.37 44.17 42.75 42.52 38.45 33.42 35.86 41.04 46.25 47.24 49.61 51.06 50.83 51.17 51.61 52.86 56.57 60.50 62.53 62.40
59.72 59.26 58.92 58.62 57.95 57.65 57.18 56.48 56.17 56.59 56.99 56.95 56.83 57.13 56.64 55.37 48.67 51.88 60.87 60.59 61.35 60.51 52.28 50.04 49.55 47.28 42.21 41.90 42.39 38.77 37.24 40.21 49.13 50.58 49.43 47.84 48.97 51.67 49.45 46.69 50.96 54.78 57.06 59.48 59.94
58.91 58.44 58.18 58.14 57.92 57.67 56.62 55.62 56.01 56.43 56.67 56.33 56.44 57.06 56.40 52.47 41.32 50.11 61.72 62.70 62.22 57.42 50.91 49.20 47.95 44.43 42.04 41.63 42.26 38.01 41.90 46.20 48.88 50.42 49.23 47.92 50.26 49.47 47.88 50.15 54.84 58.55 58.83 58.31 57.49
57.78 57.71 57.75 57.84 57.71 57.22 56.07 55.44 55.58 55.94 56.10 55.99 56.25 56.91 52.22 45.51 46.06 54.44 61.83 61.02 57.47 52.56 49.37 48.49 47.06 45.42 41.71 42.98 43.24 39.92 47.12 49.41 51.00 50.63 49.05 51.03 47.46 48.24 48.88 55.50 57.10 59.75 59.20 58.26 57.05
57.79 57.29 57.24 57.16 57.06 56.62 56.07 55.29 54.89 55.27 55.70 55.86 56.11 56.47 49.21 40.49 51.80 58.55 56.90 54.47 53.58 50.60 48.26 49.02 48.11 47.88 45.44 44.53 43.86 46.71 47.46 46.48 48.15 48.86 49.94 47.30 46.43 47.59 50.99 55.16 57.63 57.75 57.19 57.78 56.89
57.98 57.45 57.03 56.95 56.59 56.13 55.82 55.01 54.50 54.68 55.45 55.64 55.89 54.07 48.56 44.09 51.07 51.93 53.27 52.58 54.74 51.73 48.68 49.33 49.70 47.60 47.23 45.74 48.22 48.01 44.56 46.75 47.04 47.06 46.42 48.50 44.00 45.41 52.02 53.28 55.38 56.04 56.50 57.50 56.65
58.38 57.62 56.66 56.26 55.74 55.15 54.78 54.11 54.01 54.68 55.31 55.52 55.43 50.58 43.37 53.72 53.24 55.01 53.33 53.76 53.97 54.42 51.65 52.62 51.89 48.92 46.69 47.51 45.56 42.56 42.27 38.81 45.67 47.28 49.15 47.10 39.24 47.84 51.90 53.87 54.98 55.47 55.98 56.44 56.46
57.38 57.42 56.56 55.62 54.85 54.30 53.83 53.50 53.95 55.07 55.13 55.18 49.23 47.13 45.24 56.35 52.16 55.66 55.19 52.87 52.84 53.41 52.39 54.40 50.42 46.21 46.30 41.29 37.75 38.60 34.09 37.45 42.83 47.98 46.47 44.37 40.55 48.49 50.59 54.23 54.36 55.40 54.95 55.56 56.17
55.74 56.80 56.64 55.62 54.75 53.53 52.92 53.54 53.95 53.62 53.85 54.45 52.67 42.45 46.18 48.51 53.08 53.79 53.69 53.62 50.96 51.31 49.51 48.78 45.75 42.41 41.33 38.45 32.91 35.25 35.60 38.44 39.51 43.12 44.30 41.18 40.23 46.78 50.82 52.55 53.48 54.62 54.79 54.73 55.03
55.23 55.70 56.50 55.74 54.46 53.22 51.18 48.90 46.17 47.28 47.93 45.81 44.54 43.16 45.97 52.08 54.23 50.57 51.86 51.12 51.00 48.69 42.70 45.71 40.95 36.79 39.06 41.99 43.58 42.72 39.82 38.16 41.43 42.93 43.11 41.82 40.85 43.88 49.51 48.51 50.73 52.17 53.97 53.48 53.88
54.93 55.11 55.63 55.74 54.52 53.52 49.50 45.32 46.91 47.66 42.37 49.21 49.65 49.25 51.67 52.86 49.12 51.02 52.35 47.05 46.88 42.52 44.41 42.19 38.49 43.84 45.37 44.88 44.39 42.58 39.62 39.12 42.34 43.67 43.28 40.56 39.53 41.75 46.85 48.34 50.99 51.80 53.01 53.07 52.73
54.26 54.70 55.21 55.20 53.60 50.60 47.59 47.74 52.14 51.35 41.90 46.98 50.76 49.78 50.76 52.69 48.82 49.02 50.14 48.33 44.49 42.44 42.39 39.36 42.35 46.41 45.19 42.92 42.32 41.11 39.35 39.11 39.47 40.12 41.29 39.62 38.46 41.55 47.17 49.42 50.43 53.10 53.83 54.53 53.35
53.65 53.93 54.29 53.72 49.84 48.69 48.25 52.80 52.23 50.82 36.90 41.81 47.94 50.30 52.11 52.03 45.52 51.27 50.60 48.83 45.32 42.64 42.65 41.63 44.90 44.53 42.54 42.19 42.66 37.39 43.29 42.39 41.09 36.60 32.83 39.02 31.25 38.25 43.81 47.12 47.45 49.63 49.08 50.65 52.83
53.51 53.82 54.01 53.07 47.98 48.67 52.62 51.72 52.68 50.43 23.86 42.99 48.04 53.76 51.44 45.45 45.81 46.77 50.42 47.53 43.34 43.78 43.35 40.90 42.07 42.55 41.70 42.64 44.16 40.76 44.60 42.75 41.81 37.63 34.92 35.40 32.44 36.06 41.88 44.17 46.74 47.27 49.05 48.69 51.61
53.30 53.64 53.84 52.54 50.90 50.36 52.14 53.48 53.34 39.58 27.31 42.12 48.30 46.38 44.15 44.38 44.96 46.28 47.16 47.65 47.34 44.52 43.33 41.67 45.00 44.55 43.18 45.08 45.16 45.72 42.85 41.48 39.39 36.88 30.24 35.37 34.09 33.37 37.50 43.48 47.64 49.20 49.04 49.74 51.09
52.87 53.17 53.60 54.05 48.57 51.86 53.12 51.52 40.60 33.21 42.91 42.07 43.74 44.07 42.95 40.86 42.06 43.54 42.30 40.49 38.71 35.39 35.89 39.97 41.50 43.87 46.52 42.27 43.69 41.96 37.46 29.73 28.37 28.08 28.53 37.80 35.12 37.08 41.96 43.12 45.13 48.21 49.24 50.05 52.31
52.43 52.57 53.60 54.50 51.99 50.71 52.98 47.17 32.90 37.95 39.81 46.69 43.79 42.18 38.89 41.63 41.69 42.55 39.67 37.64 39.61 39.16 35.31 34.75 33.22 41.41 44.54 42.23 39.23 39.95 37.54 30.21 26.26 26.13 28.99 38.02 33.01 38.12 43.96 46.80 45.96 47.21 48.64 50.73 52.24
51.86 51.34 51.10 53.81 53.89 49.90 46.76 38.26 33.97 39.13 45.11 40.66 41.49 38.02 37.85 41.48 41.18 40.32 38.75 38.04 40.10 41.17 36.18 34.54 35.68 44.04 45.69 45.65 43.79 39.70 36.54 40.20 33.94 32.53 29.05 32.11 36.22 41.67 43.94 44.10 46.21 47.92 48.99 49.98 52.42
47.08 47.41 47.14 54.40 54.22 49.08 43.00 38.05 40.06 45.59 47.12 45.32 37.35 39.95 35.72 38.31 38.68 38.72 37.96 41.45 40.68 42.79 42.56 39.78 34.85 42.62 44.41 46.21 44.84 41.27 43.63 34.74 33.75 26.63 25.02 29.10 30.92 33.49 39.91 42.22 44.07 45.31 48.66 49.79 52.64
46.76 41.90 47.94 53.62 53.08 44.84 36.28 37.44 41.92 46.80 46.74 44.14 42.12 40.28 39.36 38.15 39.15 37.24 39.06 42.15 42.81 42.40 42.72 41.67 37.79 36.99 42.81 40.73 39.44 39.59 37.18 37.29 36.83 32.03 26.89 24.70 29.97 38.99 41.90 43.48 44.94 45.06 48.27 49.66 50.85
44.36 36.27 50.26 52.09 42.98 42.54 36.82 41.22 43.53 44.33 45.87 45.48 45.65 44.16 42.13 40.23 38.49 38.58 39.04 41.85 44.44 44.99 40.53 42.32 37.76 32.78 38.28 43.07 44.34 41.41 39.38 38.28 29.99 30.72 30.60 28.50 30.16 40.55 42.78 44.60 45.89 46.27 47.75 49.52 50.53
39.76 41.40 51.10 49.77 37.22 38.21 39.95 40.63 43.63 43.04 43.02 43.70 43.77 45.39 44.55 39.77 36.36 40.03 40.71 44.82 46.22 44.18 42.25 43.05 36.32 30.52 34.30 38.61 42.50 40.33 39.87 40.17 37.94 33.47 29.95 25.30 30.22 41.71 41.72 43.47 45.05 46.03 47.13 49.48 49.53
40.85 35.67 44.79 46.35 44.99 41.12 38.15 38.28 39.08 45.44 43.47 44.40 44.02 45.33 43.47 40.79 42.20 39.44 40.94 45.51 46.37 45.87 45.50 44.60 38.28 35.66 30.90 35.34 38.90 36.66 39.07 38.89 37.47 29.48 30.74 30.75 34.38 39.42 41.64 41.77 43.37 44.07 46.51 48.47 50.01
40.75 37.59 41.90 36.62 39.05 41.90 40.16 38.88 38.28 39.59 43.64 44.04 41.16 42.20 41.86 38.09 38.46 39.19 43.57 43.84 45.23 44.13 44.12 42.26 36.47 36.86 37.75 38.68 38.76 38.37 38.50 37.88 36.59 36.09 32.08 35.25 34.94 39.53 40.96 41.42 42.30 43.56 44.15 46.98 48.65
36.93 40.29 43.23 39.68 42.09 40.85 39.96 37.74 38.02 40.07 40.97 39.82 39.66 44.09 42.62 40.52 41.52 39.30 43.37 41.52 41.44 42.90 41.33 42.30 35.08 35.06 34.10 36.88 37.67 36.30 38.84 38.09 37.57 37.33 37.20 36.80 36.15 41.12 41.09 40.57 41.17 42.06 43.45 44.92 47.19
43.02 44.32 42.83 40.80 40.15 38.82 38.56 38.46 38.75 41.75 43.29 43.89 42.57 42.28 40.71 44.40 46.49 45.81 46.33 45.80 45.01 42.70 40.05 39.57 36.71 31.65 30.11 33.53 33.71 29.49 34.55 37.60 38.30 38.99 38.21 33.87 38.23 38.72 38.43 40.15 39.65 41.18 41.64 44.18 45.91

GFSSW_sfc_wetblb_069.txt.gz
Wetbulb
60.08 60.09 59.73 59.33 58.56 58.06 57.69 57.46 56.79 56.58 56.58 56.77 57.01 57.14 57.37 57.29 55.24 52.83 49.40 54.63 55.59 58.90 58.44 54.10 53.04 52.54 51.56 48.10 47.59 45.67 43.57 40.25 40.91 40.38 43.88 53.16 52.73 55.28 56.83 54.78 57.45 58.66 58.05 61.60 64.11
60.80 60.66 60.43 59.59 58.47 57.83 57.65 57.36 56.57 56.46 56.60 56.77 56.92 57.09 57.01 56.40 52.41 49.22 56.54 58.79 60.05 59.42 53.29 51.06 49.04 50.17 49.06 47.94 47.03 45.80 42.37 42.14 44.80 44.71 48.70 52.07 52.80 53.14 53.45 53.24 54.94 57.26 60.90 63.08 63.14
60.37 60.82 60.27 59.56 58.75 58.11 57.78 57.03 56.35 56.62 56.56 56.28 56.64 57.09 56.51 55.48 48.35 51.10 61.18 60.08 59.88 59.54 54.70 52.26 50.94 49.55 47.08 47.48 46.17 43.89 43.41 43.90 44.91 46.82 52.70 51.25 51.91 53.87 52.41 50.88 54.53 55.69 59.23 61.58 61.83
57.54 58.88 59.79 59.42 58.87 58.27 57.54 56.40 56.61 56.66 56.32 56.22 56.33 56.96 56.28 53.40 41.15 52.34 62.40 61.83 60.90 56.88 53.13 50.68 49.54 48.39 46.64 45.75 46.52 43.05 44.60 44.53 47.70 52.50 51.16 50.53 53.15 51.88 51.73 53.47 57.40 59.35 60.61 60.29 59.74
56.25 56.72 58.43 59.36 58.96 58.12 57.19 56.38 56.42 56.28 55.97 55.57 55.98 56.71 53.33 45.54 45.79 54.87 61.85 62.04 56.97 54.29 51.52 50.17 49.07 48.52 46.09 46.20 45.78 43.16 46.62 49.94 50.91 51.69 51.73 52.46 50.30 50.89 53.27 57.35 58.65 60.28 60.05 59.26 59.33
55.86 55.86 56.59 58.20 58.46 57.99 57.23 56.42 56.02 55.67 55.76 55.44 55.71 56.15 49.77 41.11 50.60 55.13 54.99 54.67 54.37 52.79 51.33 50.64 49.82 50.13 47.88 46.84 46.51 48.46 49.36 50.46 51.62 51.64 51.75 49.50 49.60 50.53 53.93 56.86 57.24 57.45 57.26 57.53 58.41
55.53 55.63 55.72 56.69 57.70 57.56 57.14 56.32 55.49 55.37 55.35 55.28 55.38 53.79 47.84 45.65 51.98 52.83 53.32 54.14 54.57 53.21 51.12 50.89 51.43 50.18 49.88 47.51 50.24 49.97 48.13 48.80 50.13 50.80 49.91 51.00 47.97 49.45 55.09 56.62 56.14 56.26 56.41 57.67 58.24
55.09 55.27 54.60 54.88 55.91 56.38 56.30 55.49 54.89 55.33 55.43 55.38 55.46 52.07 43.88 51.89 53.21 52.87 54.64 54.64 55.34 54.30 52.86 53.69 52.71 50.98 49.77 50.14 47.33 46.97 46.01 43.82 47.47 49.22 49.32 49.78 43.97 50.76 55.95 54.58 54.92 55.99 56.06 56.21 57.45
54.20 54.68 54.36 53.97 54.13 55.19 55.22 54.71 54.64 55.13 55.11 55.31 51.00 47.95 43.74 54.00 49.11 52.79 55.34 53.11 53.42 53.74 53.55 53.61 52.89 49.19 48.87 45.24 43.41 43.14 40.01 41.28 43.97 49.24 48.00 47.43 44.83 50.47 55.13 54.06 51.90 54.90 55.68 55.86 56.51
53.73 53.99 54.21 53.89 53.61 54.09 53.71 53.81 54.78 53.58 54.15 54.15 52.33 45.52 48.25 47.17 51.36 53.85 55.40 55.00 52.79 52.75 51.02 50.66 48.56 46.12 44.58 43.55 37.83 39.70 39.63 40.84 41.49 45.72 46.99 45.74 45.29 49.45 52.71 54.35 52.77 53.94 55.23 56.08 55.76
51.97 53.50 54.05 53.68 53.55 54.21 52.36 50.51 44.79 46.24 49.69 47.34 46.25 45.11 45.87 50.88 54.16 52.54 53.31 52.77 52.60 50.92 46.13 47.56 45.21 42.97 44.17 44.39 43.90 43.63 42.26 41.32 43.48 45.80 44.60 44.10 44.86 48.29 51.39 53.16 53.59 54.10 54.34 55.39 55.57
52.61 53.04 53.35 53.59 53.50 54.34 51.71 47.73 45.98 48.56 42.89 48.76 48.17 48.09 50.44 52.27 48.65 51.10 52.80 49.14 48.51 44.54 46.61 45.23 42.29 44.98 45.39 45.16 44.64 44.05 42.29 42.04 44.51 44.99 44.31 43.24 43.90 47.25 50.30 51.91 53.82 54.01 54.56 55.04 56.37
51.98 52.57 52.77 53.24 53.31 52.85 51.44 49.63 51.84 51.96 44.10 46.93 48.25 47.00 48.08 50.38 46.81 48.00 50.14 48.74 46.47 43.50 44.39 42.51 44.60 45.92 45.82 44.45 43.15 43.30 41.93 41.71 41.94 43.13 43.97 42.55 42.09 43.25 47.64 51.19 53.70 54.97 56.27 56.79 56.32
51.29 51.96 51.76 52.39 50.63 50.94 48.91 52.01 52.42 51.89 38.13 39.83 44.15 47.85 49.98 49.97 45.60 52.14 50.97 49.97 46.62 43.99 43.88 44.02 45.53 45.05 44.29 43.45 44.21 40.15 44.81 43.59 42.12 41.01 38.41 41.91 36.78 40.99 44.69 47.27 50.49 52.97 54.79 56.29 56.89
50.70 51.27 51.63 52.67 50.90 47.86 50.75 53.66 52.84 50.08 25.70 41.68 46.23 53.20 50.85 46.31 46.69 48.27 50.65 49.79 44.93 44.10 45.22 42.92 43.49 43.38 42.59 43.53 44.95 43.26 45.31 44.15 43.28 40.58 39.72 39.23 38.09 41.70 43.62 43.81 47.70 51.03 53.37 55.71 57.63
50.77 51.00 51.70 51.64 51.81 52.38 54.04 54.87 52.79 39.92 27.51 39.13 46.75 44.98 44.97 46.61 45.66 46.46 48.19 50.02 48.72 45.39 45.37 43.96 46.75 46.22 45.95 45.83 45.74 46.09 44.41 42.29 41.25 40.83 36.08 38.47 38.19 40.30 42.66 45.14 47.78 50.61 52.61 54.32 56.04
50.06 50.61 50.43 52.65 47.29 53.10 54.26 50.24 39.81 32.01 41.60 38.80 42.75 44.45 43.17 42.11 42.31 43.97 43.51 43.19 42.00 38.93 39.08 42.04 43.46 46.24 47.14 44.37 45.46 44.39 41.57 35.85 33.81 34.31 34.52 39.64 37.57 41.57 45.05 46.16 46.97 49.01 51.70 53.76 55.50
49.63 49.38 49.75 51.23 52.25 53.33 51.65 43.62 33.40 36.91 37.82 43.80 43.18 43.12 39.80 41.09 41.50 42.25 41.11 40.58 41.86 41.66 38.00 37.68 35.91 43.37 45.99 45.11 43.29 42.32 41.89 36.46 29.19 30.39 33.86 38.18 36.11 42.38 46.41 48.08 48.76 49.21 49.82 52.45 53.69
49.01 47.37 46.84 49.59 51.80 51.41 45.97 35.66 34.51 38.12 41.77 40.66 41.56 39.48 38.94 40.15 40.86 41.38 40.65 41.16 42.92 42.84 39.48 36.15 36.89 44.76 46.25 46.87 46.28 42.41 39.72 41.92 35.86 34.63 34.07 36.54 39.86 44.22 44.98 46.95 48.85 50.25 51.55 49.88 52.25
44.52 43.79 43.31 50.19 52.38 49.31 41.65 35.77 38.98 43.43 45.27 45.06 38.77 40.29 37.36 38.08 38.54 39.91 38.52 41.90 41.89 43.51 45.51 41.72 37.10 43.48 45.44 46.94 45.71 44.59 45.35 38.45 37.61 30.11 28.76 34.04 34.47 38.16 43.36 45.13 47.04 49.75 51.36 51.28 50.52
43.00 38.25 44.91 51.27 51.18 43.15 34.98 36.59 40.52 45.17 46.20 42.57 41.91 40.98 39.15 38.25 39.36 37.76 38.92 42.17 44.03 42.30 44.58 42.66 40.81 39.24 44.28 42.92 42.27 41.85 40.56 39.36 40.03 36.91 32.65 30.69 35.98 43.39 44.48 45.95 46.90 48.94 50.45 52.19 52.62
41.33 32.31 46.15 49.76 37.89 39.07 35.29 39.14 42.20 43.01 46.14 44.71 44.28 43.15 42.33 40.12 38.30 38.46 39.29 42.50 43.89 43.91 41.31 44.17 40.62 35.86 40.08 44.05 44.95 43.74 42.66 41.83 37.21 34.31 34.44 34.18 35.39 45.16 45.75 45.67 45.90 48.35 49.66 51.55 53.85
37.30 36.94 46.75 45.68 31.75 34.12 37.99 39.34 41.88 41.19 42.55 42.42 41.68 43.66 45.61 42.35 37.05 39.59 40.80 44.86 43.26 44.05 42.76 43.49 38.44 34.33 36.35 40.14 43.58 42.41 41.83 41.17 39.25 37.61 34.70 34.43 37.04 44.54 45.04 46.27 47.34 47.39 49.36 50.20 52.45
37.74 31.25 39.16 41.42 40.03 36.28 35.83 36.40 37.61 43.11 42.56 43.74 42.78 44.23 43.28 41.67 43.01 40.02 40.15 44.50 44.18 44.90 44.69 45.66 39.65 37.81 34.33 37.61 40.93 38.90 40.60 40.80 41.12 35.71 36.92 36.53 40.03 43.44 45.43 44.90 47.17 47.47 47.96 48.32 51.04
38.43 35.10 38.26 32.30 33.67 35.79 37.45 37.51 36.41 37.19 42.57 43.53 41.14 42.22 41.70 38.56 40.44 39.56 42.97 44.67 45.27 45.05 44.87 45.49 39.01 38.85 39.02 39.25 40.27 40.60 40.40 39.58 39.41 40.48 37.67 40.44 37.63 42.94 45.30 46.48 46.85 46.36 45.69 45.95 48.18
34.86 36.01 38.47 37.94 37.20 34.80 36.79 35.96 36.76 38.72 39.89 39.21 39.51 41.26 42.21 40.49 42.03 39.48 42.44 43.28 43.18 43.39 43.09 43.02 39.30 38.49 37.40 38.61 39.41 38.55 40.07 39.56 39.50 39.30 39.60 39.02 38.78 44.57 46.36 45.78 44.69 44.33 44.60 45.06 46.12
40.28 39.97 37.52 36.79 36.32 33.31 33.08 35.98 38.19 40.70 41.88 42.89 42.07 41.51 40.28 42.15 45.34 45.43 46.41 46.27 46.14 44.75 41.52 40.43 38.40 36.36 34.32 36.38 37.53 33.33 38.18 39.89 40.49 41.24 41.76 38.10 43.28 44.30 43.52 43.40 43.85 44.24 44.22 46.33 47.74

GFSSW_sfc_wetblb_072.txt.gz
Wetbulb
60.95 60.90 60.59 60.06 59.32 58.60 58.34 58.07 57.40 57.10 57.26 57.35 57.01 57.04 57.95 57.56 56.03 56.96 54.72 57.78 57.58 59.27 57.89 57.45 57.30 56.05 54.38 51.56 52.68 52.40 47.17 44.71 44.52 46.47 47.36 54.46 54.25 57.65 59.69 58.23 59.41 61.11 60.96 63.92 65.23
59.37 59.88 60.76 60.70 59.23 58.61 58.33 58.01 57.09 57.10 57.08 56.91 56.64 56.75 57.24 56.57 55.96 54.17 58.20 59.29 60.02 60.59 56.97 54.36 52.82 55.16 54.03 51.58 52.08 50.10 47.23 45.18 48.53 49.16 48.56 52.75 55.08 56.38 56.18 56.02 57.35 59.09 62.27 65.06 64.12
57.34 57.70 58.14 59.73 59.73 59.12 58.38 57.60 57.03 57.40 57.35 56.97 56.71 56.77 56.49 56.83 53.40 54.67 61.33 59.92 60.41 59.79 57.28 55.61 53.73 53.44 51.57 52.68 51.60 50.53 47.00 49.16 49.46 50.65 51.47 53.04 54.81 56.62 54.90 53.74 56.69 57.57 60.72 62.24 63.26
56.14 56.54 57.02 58.00 59.41 59.13 58.15 57.20 57.23 57.58 57.42 57.16 56.83 56.74 56.27 56.79 44.18 57.40 62.59 61.75 60.91 60.89 56.56 54.30 52.44 51.01 50.60 49.37 51.67 48.19 50.33 49.96 50.43 53.87 54.35 53.96 56.06 54.54 55.75 56.98 60.12 60.29 62.08 61.56 61.01
55.50 55.98 56.28 56.54 58.03 58.64 57.96 57.30 57.34 57.37 57.17 56.88 56.49 56.46 56.22 50.70 50.51 56.71 62.99 62.17 59.50 57.25 55.01 53.29 52.27 52.36 49.45 50.63 50.91 49.30 50.32 53.91 52.66 54.69 55.42 54.84 53.50 54.03 55.47 59.26 60.97 61.04 61.45 59.90 59.67
54.68 55.27 55.80 55.86 56.46 57.26 57.70 57.22 56.70 56.78 56.72 56.51 56.34 55.82 53.15 46.34 54.00 59.61 59.56 58.57 57.40 56.70 54.85 54.50 53.29 53.96 51.80 50.94 50.45 52.78 53.37 54.19 55.22 55.15 54.78 52.50 53.21 54.67 57.03 58.03 57.82 58.14 58.30 59.13 59.44
54.32 54.63 55.37 55.35 55.25 55.76 56.66 56.92 56.43 56.41 56.42 56.29 55.92 55.54 50.79 49.83 54.94 58.58 57.53 57.00 58.28 57.62 54.41 55.00 54.88 53.80 53.90 50.73 54.48 53.83 51.28 53.26 53.82 54.39 53.03 54.62 51.86 52.10 57.35 58.09 57.29 57.42 56.68 57.24 58.72
53.47 54.08 54.03 54.50 54.29 54.27 55.00 55.65 55.81 56.13 56.16 55.90 55.67 55.08 48.44 55.42 56.68 55.09 56.41 57.78 58.20 58.44 56.58 57.20 56.12 55.00 53.53 53.66 52.32 50.73 51.05 46.60 51.82 52.86 52.84 52.85 47.05 53.83 57.67 56.99 56.26 57.36 57.94 56.61 57.96
52.39 52.85 53.37 53.56 53.64 53.66 53.85 54.87 55.21 56.00 55.04 55.28 55.11 52.64 47.97 55.66 52.89 55.39 55.71 54.44 56.92 57.52 57.83 56.01 56.23 53.39 52.82 49.46 48.08 48.95 44.06 44.56 46.96 51.90 51.61 50.95 47.78 54.44 57.21 54.96 54.79 56.59 56.77 57.34 57.49
52.58 52.35 52.74 53.21 53.25 53.14 53.46 54.30 55.95 53.97 54.79 55.53 55.04 49.29 52.12 49.71 53.73 56.55 58.05 55.20 54.93 55.63 54.12 53.69 53.20 50.59 50.10 47.71 41.59 43.18 43.64 44.74 45.10 49.16 50.25 48.93 48.70 53.28 56.56 55.44 54.84 55.16 56.87 57.98 58.16
52.43 52.52 52.63 52.67 53.13 53.14 54.93 57.58 52.58 50.73 51.76 49.89 50.20 49.50 50.32 54.01 56.99 55.71 57.71 56.34 55.05 53.98 49.73 52.18 48.78 46.29 47.45 48.51 48.32 47.10 45.55 44.58 47.27 49.52 48.23 48.02 48.70 51.21 55.60 55.56 54.49 54.96 55.90 57.90 58.18
52.09 51.95 52.11 52.79 53.17 53.37 55.51 52.09 52.60 51.46 45.59 50.54 50.66 51.45 53.91 54.72 50.47 54.72 56.61 51.92 51.37 48.41 50.71 48.75 46.32 49.37 49.55 48.97 47.65 46.99 45.27 45.20 47.55 48.79 47.53 48.24 47.93 50.71 54.79 55.49 56.39 56.07 56.27 56.92 58.33
51.63 51.58 51.77 51.92 52.74 53.18 53.73 53.91 56.31 54.31 47.22 48.13 51.75 50.41 50.97 52.46 49.07 51.61 54.43 52.29 49.54 48.24 48.53 46.27 47.75 49.78 48.81 47.67 46.37 46.74 45.38 45.35 44.65 47.97 48.94 47.51 46.50 48.34 52.06 55.57 56.59 57.44 58.39 58.74 58.24
51.20 51.08 50.82 51.16 49.24 53.57 52.38 56.27 58.22 56.22 42.21 42.08 45.61 50.05 51.05 51.36 47.51 53.63 55.52 51.82 49.79 47.33 48.27 47.79 50.40 48.08 47.84 46.21 47.83 44.05 48.60 47.46 46.13 45.27 42.34 46.74 39.47 46.05 49.71 51.29 53.89 56.24 58.20 58.70 59.52
50.74 50.60 50.68 50.74 50.11 50.78 54.39 58.45 56.61 54.33 29.77 43.43 46.44 54.62 52.46 47.83 48.86 49.58 55.60 52.28 47.95 47.92 48.63 46.05 47.10 46.81 46.05 47.15 48.75 45.95 48.62 47.80 47.15 45.90 44.78 44.66 41.81 45.43 48.19 47.92 50.61 54.66 57.09 59.33 60.57
49.81 50.76 50.54 49.70 51.73 53.57 57.12 57.67 55.77 42.44 29.94 40.28 47.83 47.24 46.38 47.75 47.68 50.71 50.69 53.21 52.69 48.88 49.30 48.27 50.66 49.86 48.61 49.64 49.77 49.41 47.83 47.35 47.45 46.14 39.44 43.45 42.64 44.82 46.10 47.78 50.24 52.96 55.21 58.53 60.28
49.22 50.07 49.69 50.41 47.68 55.05 55.44 53.22 41.09 34.56 42.87 39.18 43.72 46.11 46.04 44.36 45.64 47.24 46.92 46.84 45.47 42.33 42.76 46.31 47.06 49.60 50.21 47.65 49.26 48.46 46.20 40.00 37.90 38.23 37.69 44.04 42.17 44.70 48.32 50.33 51.31 52.23 53.69 56.67 59.54
48.92 49.28 49.30 49.33 52.89 53.88 52.26 45.10 33.37 38.03 40.50 44.99 44.07 45.45 42.79 44.61 44.63 46.10 45.48 44.24 48.07 46.74 43.82 41.58 39.73 46.72 49.71 47.83 45.98 46.90 46.45 40.63 32.23 34.91 38.48 42.40 38.96 44.99 50.36 52.18 52.61 54.09 54.99 55.77 57.27
49.07 47.89 46.84 48.30 52.15 51.96 46.39 34.99 35.07 39.38 43.12 41.95 42.48 41.67 41.14 43.26 43.93 44.91 45.17 44.46 46.99 48.35 42.59 41.66 41.46 47.84 49.05 49.88 49.62 46.34 43.57 47.04 40.98 40.97 38.91 41.54 44.36 47.87 49.59 49.52 52.32 53.49 54.81 56.20 56.25
45.92 45.28 43.73 48.96 51.78 47.75 38.91 36.22 39.42 44.47 45.04 45.66 37.68 42.68 40.65 40.50 41.23 43.13 43.57 46.72 46.35 48.95 50.06 45.57 40.40 46.37 48.36 50.12 49.15 48.30 49.70 41.90 43.32 33.38 32.31 38.99 40.28 42.02 45.51 47.43 50.79 51.05 52.29 56.25 55.89
44.78 38.54 45.99 50.34 49.02 41.49 32.99 36.74 40.94 46.39 47.18 44.28 43.75 41.41 42.10 42.24 42.14 42.17 42.96 44.75 48.48 47.81 49.85 47.86 45.04 43.79 47.63 46.10 45.45 45.83 44.81 45.15 44.79 42.47 36.16 34.53 40.43 47.70 47.20 48.81 49.88 51.62 53.81 54.81 57.31
41.91 32.97 47.07 50.48 34.62 37.38 34.37 39.29 42.42 43.29 48.19 46.25 46.21 45.80 44.18 43.09 42.19 41.93 42.29 44.99 48.99 49.34 45.38 48.59 45.74 40.95 43.29 48.44 49.67 49.05 46.63 46.71 40.32 38.77 41.28 39.90 39.61 50.17 50.57 51.15 51.67 52.28 53.45 55.11 56.24
37.37 37.72 48.40 47.35 29.98 32.31 38.68 39.32 42.35 42.94 43.56 44.80 44.31 45.40 46.75 44.59 40.67 43.76 44.10 48.22 48.53 48.56 46.83 48.12 43.81 38.85 40.18 44.09 46.90 45.53 47.04 47.38 46.20 44.46 40.15 38.10 40.18 49.71 50.40 51.05 52.51 52.52 53.02 54.84 55.86
38.25 31.51 39.28 40.44 41.34 36.34 35.87 37.38 37.70 43.57 43.94 45.43 45.18 46.37 44.62 42.59 45.97 42.33 42.56 45.40 47.92 49.01 47.38 48.70 45.74 42.16 38.12 41.08 44.50 42.59 44.37 45.96 45.09 40.88 40.44 41.33 43.17 47.11 49.45 50.28 51.50 52.50 53.45 54.15 54.46
39.63 35.38 39.11 31.30 33.59 37.46 38.29 38.06 36.82 37.62 43.03 45.24 43.82 44.73 44.16 40.53 42.29 41.92 43.25 45.28 45.52 45.40 48.15 48.66 42.53 44.45 44.42 44.74 44.66 43.92 43.55 44.63 43.24 43.86 40.76 43.31 43.75 46.51 49.41 50.66 52.10 52.58 51.84 51.52 52.28
35.17 37.98 40.60 38.86 39.22 36.10 36.73 35.44 36.56 39.20 41.05 39.95 41.12 44.21 45.58 42.71 42.92 40.40 43.40 44.12 45.00 47.01 47.15 48.56 43.06 44.68 42.31 44.64 44.29 42.58 44.44 44.91 45.31 45.36 45.37 45.55 44.73 49.95 51.21 51.94 51.65 51.58 50.50 50.81 51.06
43.91 44.18 41.86 37.89 37.94 34.19 34.10 36.26 37.93 41.14 43.10 43.87 43.77 43.07 42.96 44.62 47.48 47.10 47.54 47.77 47.63 46.36 45.65 45.42 44.45 41.93 38.19 42.91 42.27 37.40 43.06 44.70 45.72 46.88 46.57 43.02 47.05 50.18 49.45 49.99 50.86 51.21 50.31 50.80 51.90

GFSSW_sfc_wetblb_078.txt.gz
Wetbulb
57.15 57.21 57.08 57.80 58.13 58.26 58.76 59.36 58.96 58.67 58.84 58.92 58.85 58.73 58.74 57.94 56.51 57.27 55.17 59.84 60.87 60.62 56.82 59.01 57.80 57.19 56.67 53.87 54.15 52.92 45.70 43.75 46.09 46.25 47.41 52.54 51.71 54.89 59.24 57.07 56.46 57.40 55.76 61.18 65.95
55.53 55.54 55.56 55.85 57.01 57.29 57.77 58.31 58.70 58.70 58.77 58.89 58.66 58.60 58.30 57.43 55.89 54.99 61.11 61.42 60.81 60.53 56.45 56.11 54.17 55.47 52.97 52.73 51.84 49.69 46.08 46.66 50.33 49.43 48.74 50.70 51.18 52.96 54.54 53.74 52.68 51.82 60.76 64.65 65.18
54.74 54.98 55.16 55.32 55.76 56.75 56.66 57.07 57.57 58.48 58.70 58.63 58.49 58.33 57.61 57.29 54.47 56.24 60.86 61.04 60.46 59.71 56.63 57.60 56.28 53.70 51.31 52.95 52.19 50.32 46.57 49.95 50.36 51.44 51.62 51.22 53.41 55.51 53.84 51.45 51.77 51.66 59.41 62.98 63.35
54.06 54.56 54.75 54.62 55.13 55.90 56.15 55.35 56.31 57.50 58.09 58.45 58.51 58.45 57.45 57.45 47.37 59.19 62.26 61.14 60.95 57.61 56.23 56.38 53.71 50.83 49.78 49.18 52.53 48.42 50.46 50.25 51.12 52.05 52.09 51.21 54.03 53.68 54.48 56.44 59.09 60.65 62.75 62.56 61.31
53.88 53.25 53.40 54.21 54.84 55.35 55.30 55.09 55.25 55.70 56.79 57.59 58.33 58.31 57.13 53.57 53.15 60.20 63.53 61.35 57.51 55.30 55.84 54.58 51.82 51.12 48.47 50.58 51.77 49.70 50.74 50.94 51.82 53.08 52.32 54.60 52.31 53.27 53.00 58.12 60.45 61.44 61.43 60.66 59.47
53.55 53.71 53.68 54.04 54.71 54.80 54.79 54.42 54.56 54.80 55.34 56.93 57.72 57.26 55.25 47.96 59.30 59.47 58.83 60.49 57.79 56.86 55.61 55.12 53.00 54.57 52.14 51.09 50.28 51.66 51.50 52.05 52.26 53.06 54.15 52.77 52.78 54.27 50.46 56.48 58.98 59.40 59.10 59.03 58.07
53.58 53.32 53.17 53.40 53.50 53.78 53.99 54.11 53.74 54.15 54.74 55.85 57.25 57.17 52.70 50.17 58.61 58.50 58.25 58.39 60.18 58.61 55.07 56.35 56.39 53.78 53.27 51.16 54.01 52.66 48.93 51.25 52.31 52.64 51.66 54.04 50.07 48.77 52.76 54.55 56.95 57.78 57.87 58.38 57.85
53.08 53.14 52.65 52.27 52.40 52.76 53.12 53.22 53.20 53.72 54.52 55.87 57.10 55.89 48.62 56.53 58.74 57.85 57.75 56.06 59.57 59.44 57.56 57.97 57.83 54.65 53.23 54.11 52.06 49.44 49.40 45.45 50.45 51.24 52.61 52.59 44.17 50.15 52.37 54.42 55.99 56.54 56.84 57.65 57.36
52.90 52.65 52.57 52.24 51.88 52.40 52.48 52.52 52.79 53.54 54.86 56.60 55.17 54.22 48.52 58.25 54.54 56.54 56.59 54.17 57.59 58.38 58.54 57.88 56.73 53.44 53.17 49.21 46.69 47.46 43.18 45.31 47.88 52.75 51.32 50.74 46.74 50.51 52.83 54.24 55.50 54.10 55.99 56.30 55.57
52.75 52.73 52.48 52.35 52.08 51.62 51.84 52.06 53.36 55.08 56.45 57.94 56.11 49.63 52.16 49.20 54.54 55.78 56.07 54.52 54.61 55.99 54.77 53.77 52.47 49.35 49.53 47.32 40.59 43.14 44.21 46.77 45.85 49.90 50.65 48.76 47.49 51.80 54.15 54.70 54.93 52.64 54.19 54.27 54.14
52.12 52.64 52.50 51.98 51.98 51.58 50.94 51.08 49.97 51.03 54.95 51.33 51.05 48.73 51.66 54.65 55.35 54.34 55.07 52.73 53.30 53.90 48.77 51.84 47.41 44.38 47.23 49.47 49.40 47.69 46.22 44.96 47.75 50.41 48.97 48.23 47.01 49.59 54.11 54.29 54.33 52.34 51.85 53.12 53.97
51.68 52.40 52.08 51.79 51.55 51.77 50.07 46.66 50.19 54.09 45.89 49.98 49.52 49.65 52.30 54.16 51.04 53.40 55.94 48.92 49.50 47.25 50.43 48.54 45.57 49.29 50.64 50.46 48.81 47.19 45.22 44.88 48.02 49.89 49.44 47.69 46.62 50.43 53.13 53.79 54.77 54.84 52.25 52.93 55.37
51.60 52.00 51.48 50.73 50.72 49.59 48.79 49.11 55.20 55.47 46.36 46.87 49.17 48.27 48.59 50.94 48.29 50.82 53.62 49.93 47.80 46.82 47.96 46.15 48.22 51.70 49.23 48.66 46.66 46.25 45.04 45.74 45.96 48.62 50.11 48.03 45.30 48.04 51.58 53.97 55.84 55.80 56.75 55.16 55.19
51.50 51.50 50.83 49.82 46.42 50.78 51.12 55.54 57.32 58.48 41.04 40.70 45.40 49.76 49.72 50.39 46.16 51.61 54.99 51.39 48.27 45.55 47.16 47.61 50.55 49.19 48.56 47.14 47.72 43.97 49.03 48.50 46.46 45.28 41.17 47.68 38.65 46.25 49.06 50.75 53.55 55.57 55.55 56.49 56.23
51.40 51.02 51.01 48.70 47.58 46.88 51.35 52.84 53.84 55.77 27.32 44.10 47.26 55.37 53.01 48.06 48.44 48.71 53.04 52.13 47.07 46.85 48.22 46.05 47.30 47.33 46.40 47.26 49.12 46.23 50.18 48.71 47.43 45.44 44.79 44.67 41.76 44.69 49.13 47.76 50.96 54.37 56.41 56.50 57.72
51.34 51.07 50.80 48.43 47.33 49.22 51.28 51.42 50.80 39.20 28.13 41.47 48.79 47.20 47.20 48.63 47.64 49.84 48.62 52.13 51.69 47.53 48.54 47.69 51.18 49.69 48.44 50.20 50.09 50.49 48.64 48.23 47.44 45.53 38.93 44.11 42.89 42.34 44.71 47.88 50.12 53.59 55.94 57.25 57.59
51.05 50.82 49.51 48.98 44.35 52.03 51.42 48.40 36.59 30.16 41.00 38.84 44.30 47.15 45.60 45.27 45.62 46.96 45.76 45.10 44.44 39.57 41.47 45.88 46.62 49.70 50.45 47.36 50.10 48.79 45.66 38.91 36.82 37.67 37.37 44.98 42.39 45.16 48.41 50.82 51.20 51.58 54.38 57.31 58.50
50.47 50.14 49.71 48.98 49.82 51.07 47.81 40.03 29.26 35.92 37.02 45.41 45.48 46.39 43.82 46.38 45.81 45.64 44.94 42.31 46.85 45.55 42.51 40.85 39.41 46.66 49.83 48.35 46.55 46.59 45.66 40.23 32.71 31.65 37.48 44.65 40.04 43.79 50.64 52.04 52.48 52.58 53.78 56.78 57.78
49.98 49.21 47.86 49.46 50.66 50.41 40.71 29.31 31.66 36.64 40.67 40.02 43.48 42.46 43.67 45.92 45.56 44.62 43.83 43.53 45.50 46.20 40.78 41.40 41.54 48.47 49.61 50.24 49.20 46.63 43.17 48.29 42.86 43.00 39.14 41.94 43.77 49.60 50.52 49.79 50.59 51.13 53.12 54.62 56.15
48.02 45.48 45.27 51.14 52.70 46.85 36.20 30.73 35.47 41.88 42.03 42.70 37.74 43.29 41.44 44.36 43.55 43.39 43.13 46.14 44.83 48.00 48.78 45.76 41.57 47.58 48.62 50.21 49.99 48.03 49.93 42.64 43.62 34.58 32.87 39.07 41.41 39.69 46.39 47.85 49.84 50.82 52.71 55.45 57.92
44.46 39.12 46.11 51.10 50.17 40.35 30.44 32.15 36.68 42.15 43.39 40.34 39.24 40.33 41.40 41.21 44.97 42.57 42.63 45.52 47.25 46.72 48.83 47.58 45.34 44.94 47.67 45.70 44.67 45.46 44.52 46.67 45.87 42.96 36.28 34.68 39.53 47.70 47.82 48.93 50.22 52.15 53.34 54.40 57.61
42.10 32.81 45.89 49.71 35.91 36.23 32.22 36.38 39.49 39.68 43.27 42.58 43.24 42.00 41.75 43.67 43.32 43.58 42.20 44.98 49.23 48.43 45.12 48.03 46.15 41.16 43.92 48.69 49.63 48.08 46.20 46.23 40.96 39.32 42.84 40.67 40.50 51.00 51.86 51.98 51.91 52.78 53.55 55.01 55.48
37.51 37.35 47.72 47.04 30.24 31.55 36.19 36.21 38.79 38.37 39.33 40.69 41.08 43.16 44.96 43.75 41.47 44.63 44.95 48.52 48.13 46.40 46.26 47.86 43.21 38.20 41.01 45.47 47.98 45.36 46.87 47.29 46.93 45.67 41.04 37.47 39.89 51.62 51.30 51.51 52.51 52.79 53.21 53.87 54.95
36.06 31.52 40.30 40.91 40.94 36.13 34.07 34.20 34.51 40.05 39.71 41.97 42.31 43.54 40.64 42.89 45.50 43.34 44.40 47.17 49.78 48.15 46.43 48.62 45.54 42.66 38.48 41.80 45.61 42.89 44.95 46.34 46.57 40.78 41.72 42.20 43.96 47.14 48.84 49.52 51.16 52.54 53.59 53.77 54.45
34.46 35.18 39.32 31.70 34.15 36.53 37.31 36.46 34.51 34.49 39.78 41.39 40.26 40.84 38.35 38.30 41.05 42.54 44.31 45.24 47.20 48.38 47.65 47.97 41.59 45.24 44.91 45.28 45.53 44.77 44.53 44.67 43.45 44.16 40.98 43.76 43.77 46.70 48.91 49.20 52.19 53.17 53.81 54.02 53.75
32.65 35.83 39.90 37.80 37.94 35.67 36.27 35.72 35.25 37.01 37.44 36.57 37.96 40.84 42.11 39.08 42.56 40.71 43.62 42.80 42.22 46.84 46.85 47.91 42.65 44.51 42.56 44.83 44.88 43.21 45.09 45.20 44.82 44.62 44.08 44.94 44.50 49.32 50.31 51.12 51.51 51.77 51.53 51.48 53.26
41.07 43.69 40.75 37.53 36.25 35.10 34.65 36.26 36.68 39.44 40.32 41.28 40.92 40.75 40.34 41.49 45.82 48.17 48.88 47.73 47.12 44.18 42.49 44.69 44.06 41.95 37.90 43.99 42.97 37.36 43.27 44.52 44.75 46.04 45.59 42.19 46.96 50.02 49.42 50.05 51.01 52.08 52.77 52.05 52.84

GFSSW_sfc_wetblb_081.txt.gz
Wetbulb
56.36 56.03 56.12 56.32 56.18 56.75 57.23 57.15 57.40 57.91 58.73 59.07 59.05 58.88 58.99 58.37 56.99 56.49 50.56 56.85 57.67 60.96 57.86 55.65 52.15 51.79 51.01 48.77 49.35 46.92 37.59 36.24 39.58 42.94 43.43 50.11 50.50 52.12 55.95 53.81 54.26 55.61 53.86 57.42 63.43
54.79 54.75 54.79 55.45 55.77 55.87 56.50 56.35 55.89 56.57 57.56 58.41 58.47 58.45 58.16 57.67 55.12 53.12 57.69 61.20 60.80 61.13 53.49 52.45 51.85 52.16 47.44 47.46 46.71 41.79 36.31 39.87 46.41 45.60 44.84 48.84 52.08 50.07 52.60 53.15 52.12 53.96 56.95 58.50 62.97
53.80 53.94 53.94 54.43 55.36 55.69 55.69 55.44 55.42 55.81 56.34 57.10 57.75 58.19 57.40 56.81 52.52 53.99 60.40 61.34 61.36 59.89 52.88 52.86 53.34 51.81 46.46 46.18 46.68 44.81 40.16 45.54 46.91 47.50 47.65 47.17 50.39 54.45 52.27 51.48 53.61 52.69 57.04 61.47 61.53
54.24 54.01 54.00 54.19 54.45 55.02 55.06 54.60 54.91 55.37 55.55 55.83 56.96 58.00 57.43 55.14 42.84 54.86 61.27 61.39 60.90 54.75 53.18 51.93 51.75 46.81 44.48 43.38 47.48 43.22 47.25 47.13 47.23 48.62 49.25 46.10 49.80 51.41 52.47 53.46 57.80 59.93 59.88 60.09 60.06
52.83 53.40 53.92 53.52 53.87 54.12 54.30 53.93 54.38 54.63 54.67 54.96 55.97 57.29 54.36 49.40 50.28 58.87 62.25 60.70 55.52 53.26 51.86 51.52 50.14 47.67 44.18 45.65 47.05 46.59 47.17 49.09 50.35 51.26 50.93 51.50 49.44 51.12 48.88 54.59 58.88 59.93 59.64 58.80 59.02
53.27 52.64 53.28 53.57 53.55 53.67 53.35 53.24 53.31 53.70 54.05 54.45 55.26 56.83 52.52 43.33 55.22 57.39 59.52 57.25 55.11 52.25 51.41 51.77 50.80 50.96 47.88 47.88 45.90 48.27 48.39 47.82 49.17 50.09 50.64 51.04 50.27 49.74 50.34 54.98 58.13 58.88 57.53 58.05 58.16
53.40 53.16 52.98 53.21 52.96 53.09 53.06 53.03 52.94 53.27 53.81 54.15 54.52 54.78 50.83 46.70 52.58 52.49 54.56 53.87 57.37 55.50 52.46 53.75 53.55 49.50 49.79 47.38 50.85 49.71 45.67 47.00 49.34 49.57 48.22 49.55 45.68 46.41 52.11 53.54 56.00 57.28 56.72 56.38 56.96
53.05 52.67 52.40 52.28 52.30 52.43 52.43 51.94 51.94 52.61 53.40 54.19 54.61 53.47 46.76 55.08 53.35 53.86 54.20 53.57 55.57 57.81 56.64 56.17 54.60 51.95 50.04 50.75 49.16 45.96 44.34 39.32 47.00 49.50 50.18 48.40 41.55 50.41 50.73 53.13 52.29 54.90 55.87 55.42 55.72
52.85 52.73 52.61 52.05 52.02 51.90 51.96 51.75 51.65 52.52 53.70 54.37 51.96 50.35 46.48 57.03 52.29 53.88 54.47 52.25 54.03 54.41 55.23 57.01 53.09 49.10 49.36 44.20 40.94 42.61 37.34 40.22 45.02 50.79 48.67 46.48 42.82 49.26 51.92 52.31 51.65 52.89 54.16 54.03 54.47
52.71 52.56 52.23 52.30 51.75 51.45 51.04 51.17 51.33 52.04 52.31 54.83 54.70 46.70 51.54 49.97 52.20 53.66 53.73 53.43 51.49 52.69 52.27 51.15 47.40 43.91 42.98 40.25 34.79 38.20 40.14 44.11 43.60 46.24 47.59 45.87 44.19 47.68 49.79 51.66 50.02 52.36 51.86 52.70 53.08
52.33 52.15 52.09 51.84 51.68 51.01 49.23 45.86 44.12 45.64 49.83 48.47 48.06 47.30 48.86 54.13 56.04 51.59 53.18 51.07 49.81 47.36 45.13 48.14 42.06 39.46 41.36 44.27 45.93 45.22 43.89 41.86 44.36 48.90 46.65 44.87 43.38 47.95 50.20 50.99 49.70 49.46 51.57 51.54 52.08
52.36 51.94 51.82 51.89 51.11 50.36 47.01 41.82 45.70 47.09 39.97 50.70 51.51 51.43 53.56 54.72 48.53 50.54 53.43 46.71 45.45 41.20 45.94 44.90 41.29 46.07 47.89 47.12 46.23 46.20 42.48 40.31 44.28 48.38 46.80 43.78 42.60 47.19 50.61 49.72 49.15 48.19 48.72 50.36 52.51
52.13 52.01 51.59 51.31 50.51 46.35 43.70 44.53 50.72 49.66 40.71 45.25 48.79 47.34 47.26 47.83 43.44 44.99 50.02 48.71 44.02 41.59 42.90 42.61 45.39 49.16 47.58 46.19 45.07 44.30 41.52 41.56 42.01 45.69 45.29 43.16 40.89 44.05 49.16 51.24 50.17 50.28 51.64 52.73 52.61
51.82 51.72 51.06 50.28 44.13 44.05 45.16 49.06 49.68 49.33 37.41 38.79 43.05 45.46 47.80 47.62 43.50 47.74 49.86 48.93 44.76 41.33 43.13 43.36 48.45 47.34 46.42 45.64 45.60 40.68 46.33 46.09 45.45 41.24 35.21 42.76 32.98 40.54 46.31 49.13 49.89 49.45 50.08 52.29 52.93
50.75 51.76 50.81 50.28 42.11 39.39 45.90 50.64 51.14 51.24 22.85 40.71 42.56 50.72 48.33 43.93 45.78 45.67 49.59 47.71 43.74 42.68 43.17 41.83 43.85 45.10 44.60 45.37 47.33 43.99 48.00 47.09 45.55 41.01 38.05 39.62 37.14 39.83 45.32 45.20 49.09 50.62 49.91 51.69 53.68
50.27 51.23 50.83 46.52 44.34 43.61 46.36 51.61 49.23 36.53 24.78 38.65 46.85 45.92 45.18 43.37 44.83 46.75 45.28 47.40 48.01 44.37 44.34 43.93 48.37 47.02 46.58 48.28 47.94 48.90 46.14 44.91 43.87 40.18 33.15 40.01 40.44 37.37 40.17 46.23 48.49 51.97 52.29 52.04 53.70
50.09 50.68 49.66 47.87 39.69 45.69 47.06 45.86 34.34 27.34 38.70 35.27 40.48 45.19 44.04 42.82 42.50 44.31 42.43 40.06 38.23 36.79 37.88 42.80 43.69 46.87 48.68 45.08 46.66 45.56 40.62 32.54 31.38 31.48 30.65 42.79 40.49 40.97 46.00 47.40 49.07 52.15 52.70 53.65 53.97
49.73 49.73 48.82 47.52 46.86 45.07 43.96 38.50 28.34 33.96 33.75 40.74 40.12 42.50 40.52 42.89 42.98 43.29 41.07 38.24 41.84 41.97 38.54 36.12 34.73 43.13 47.59 45.60 43.11 42.45 41.54 33.56 28.62 27.67 34.21 42.39 36.50 40.74 47.68 49.78 48.65 49.63 53.98 54.45 54.60
49.66 45.62 44.42 46.02 46.99 44.10 38.55 27.54 26.64 33.24 38.27 36.93 37.43 34.90 35.95 42.99 43.11 41.67 40.17 39.66 41.72 42.90 37.74 36.19 37.21 46.28 47.13 48.40 47.00 43.43 39.20 44.22 38.81 40.09 35.28 38.16 41.44 47.11 49.09 47.54 47.33 46.97 48.30 52.54 54.26
44.82 43.35 41.39 46.79 47.45 42.83 34.78 27.62 31.35 37.60 38.97 38.42 31.86 35.95 33.40 38.95 40.63 40.01 39.39 43.40 42.42 44.56 46.51 42.44 37.17 45.05 46.46 47.97 47.32 45.13 47.08 38.59 38.22 30.98 29.50 37.30 37.54 39.02 43.08 45.61 47.26 46.53 48.48 50.95 52.05
44.39 38.64 44.26 47.65 46.16 38.78 27.09 28.75 33.14 38.12 38.88 35.92 34.43 34.26 35.85 35.43 37.21 40.41 40.83 43.33 44.40 44.45 46.12 43.84 40.86 40.75 45.31 43.43 42.40 42.80 41.32 43.73 43.17 38.06 29.42 27.47 33.19 44.06 44.56 46.27 46.29 47.12 48.46 49.58 51.89
41.51 32.08 45.44 47.09 35.08 34.85 29.71 32.04 36.94 36.25 39.35 37.71 37.40 36.15 35.44 37.48 36.19 36.03 39.95 43.35 45.88 45.06 41.69 44.00 42.36 36.41 39.15 46.06 47.91 46.24 42.97 42.77 35.12 35.47 37.02 34.01 33.82 46.77 46.61 46.97 47.48 47.52 49.09 48.87 49.54
36.34 36.52 45.37 44.65 29.46 30.55 33.69 33.77 35.49 34.35 35.74 35.95 35.15 38.23 38.74 36.60 34.73 38.32 41.61 47.65 45.32 44.22 41.88 43.43 39.60 33.97 37.19 42.11 45.88 43.31 43.73 44.63 42.98 40.45 35.82 30.32 34.70 48.41 48.67 48.24 48.24 46.83 47.88 48.95 49.79
33.56 29.85 37.93 40.22 37.52 33.21 31.79 31.55 31.46 37.67 35.81 37.74 36.74 38.22 36.14 34.37 39.74 36.84 38.97 45.65 46.68 47.20 45.47 45.28 40.70 37.62 32.70 37.73 42.63 40.22 42.85 43.80 41.93 33.82 35.25 35.76 39.32 43.90 45.74 45.64 46.96 46.90 48.69 48.67 50.08
34.65 32.34 36.75 30.37 33.68 33.29 34.31 33.20 31.16 31.39 36.98 37.83 34.36 34.72 34.59 32.66 36.37 36.53 41.31 40.23 45.22 46.10 46.77 44.53 37.35 39.66 41.86 43.15 43.32 43.55 42.89 42.53 40.88 41.27 39.05 40.87 41.68 44.55 45.05 45.22 46.27 48.72 49.38 50.20 50.14
31.15 33.51 37.49 34.13 35.82 34.69 33.22 32.83 32.20 34.17 34.65 33.65 32.83 35.10 36.66 34.49 36.58 35.94 38.89 38.57 39.77 44.23 43.99 43.97 36.94 39.89 38.27 42.34 43.18 41.60 42.89 42.53 43.11 42.87 41.59 41.34 40.91 45.63 46.90 45.57 47.05 47.98 48.94 48.74 49.44
40.61 40.65 38.23 35.30 34.37 32.50 32.46 31.91 34.02 36.48 37.18 38.36 36.94 35.29 33.91 36.38 40.92 43.47 45.88 44.93 43.53 43.17 39.48 41.04 38.14 38.32 33.21 40.51 40.20 33.21 40.31 42.16 43.36 44.63 42.71 38.18 41.94 45.36 44.56 46.09 45.45 46.60 48.12 48.45 49.01

GFSSW_sfc_wetblb_084.txt.gz
Wetbulb
55.00 54.62 55.19 55.29 55.66 55.66 55.70 55.61 55.59 55.75 55.72 56.22 56.97 57.51 58.07 57.75 56.43 55.17 50.06 54.53 56.82 60.34 58.73 52.91 50.00 49.32 48.43 46.00 47.01 44.18 36.83 33.74 36.85 38.09 41.92 47.43 48.42 52.80 54.26 52.02 54.19 56.02 53.67 56.53 62.20
54.07 53.78 53.92 54.14 54.75 54.82 55.18 55.33 54.89 55.18 55.63 55.78 55.98 56.53 57.03 56.91 53.97 51.55 56.85 60.74 61.33 61.35 52.59 50.83 49.74 49.86 46.17 44.73 45.14 41.62 34.97 38.15 43.06 43.57 44.55 47.40 50.78 50.15 51.85 51.97 52.12 54.58 56.80 57.30 59.83
53.83 53.43 53.41 53.51 54.62 54.57 54.45 54.57 54.44 54.66 55.05 55.20 55.43 55.86 56.03 55.98 50.96 51.54 61.28 61.25 61.89 60.51 51.52 51.54 51.36 49.74 44.39 43.30 43.23 40.73 39.19 44.98 45.56 45.74 46.72 46.11 49.86 52.56 50.73 48.92 53.59 52.69 56.30 57.56 61.47
53.52 53.28 53.85 53.78 54.28 54.12 53.89 53.46 53.76 54.01 54.18 54.50 54.65 55.46 55.75 54.45 37.01 53.09 60.53 60.25 60.66 53.88 51.41 49.83 49.25 45.83 42.38 41.40 43.52 40.08 45.01 45.64 45.63 48.18 48.22 44.40 49.78 51.40 50.83 52.02 58.68 59.10 59.67 60.51 59.31
53.27 53.35 53.44 53.39 53.76 53.59 53.42 53.10 53.06 53.55 53.64 53.46 54.10 55.25 53.30 47.96 49.24 55.63 61.79 60.25 55.66 51.65 49.54 48.92 47.85 46.52 42.81 43.24 44.42 44.13 45.16 47.41 49.07 49.59 48.67 51.01 48.30 49.82 50.91 54.32 59.56 59.24 59.56 58.55 57.89
53.40 53.54 53.42 53.13 52.90 53.09 53.23 52.93 52.78 53.01 53.19 53.16 53.76 54.96 51.47 41.71 52.52 54.01 59.16 55.82 52.89 49.73 49.27 50.23 49.43 49.80 46.28 45.07 43.94 46.67 46.89 46.99 46.82 47.68 48.48 48.77 48.28 48.29 48.76 55.51 57.88 57.24 56.78 57.70 58.21
53.24 53.13 53.13 52.82 52.88 52.82 53.01 52.78 52.61 52.45 52.81 52.78 53.05 51.89 47.91 43.82 50.90 49.23 51.06 52.26 53.79 52.62 49.85 51.34 51.06 48.18 47.28 45.76 48.95 47.62 43.72 44.84 45.82 46.24 46.64 48.41 44.06 45.29 49.59 52.84 56.69 56.07 55.82 55.56 56.14
53.19 52.98 52.80 52.61 52.61 52.47 52.36 52.01 51.90 52.34 52.55 53.01 53.26 51.86 43.76 53.52 52.18 52.16 52.01 51.23 53.34 54.28 53.73 54.03 53.31 49.73 47.97 48.82 47.39 44.11 42.19 37.49 43.72 47.35 48.76 47.24 39.47 47.81 49.61 52.05 53.01 54.52 54.37 54.28 56.34
53.04 52.90 52.61 52.10 51.89 51.64 51.45 51.00 51.10 52.06 52.84 53.21 50.06 49.44 43.24 55.63 51.79 53.59 52.39 49.97 52.70 53.32 53.38 56.79 52.66 47.86 47.44 42.03 38.79 39.71 35.82 38.23 42.03 47.95 46.71 45.51 41.63 47.27 48.56 51.76 51.96 53.16 53.16 53.62 54.17
52.92 52.61 52.45 51.97 51.70 51.19 50.43 49.86 50.09 51.10 50.99 52.68 53.43 45.25 48.23 46.75 51.25 53.85 52.26 52.34 50.32 50.47 49.22 49.07 46.27 42.48 40.87 38.62 33.46 35.72 36.95 41.00 40.66 43.90 45.39 42.65 43.39 44.40 47.66 49.93 50.54 51.29 52.26 52.32 52.70
52.84 52.71 52.38 51.83 51.64 51.02 48.53 44.10 43.71 43.69 46.19 46.41 47.41 46.19 47.31 51.76 55.30 52.82 52.08 50.48 48.88 46.62 42.80 46.24 40.74 39.09 39.72 41.67 43.28 42.51 41.00 39.84 42.64 46.73 44.85 43.47 43.24 45.34 47.18 49.98 50.22 50.64 51.53 51.63 51.98
51.72 52.32 52.14 51.77 51.27 51.00 46.60 41.88 44.82 46.06 39.86 47.24 46.43 46.92 51.67 52.90 48.88 51.79 52.24 45.44 44.47 40.81 43.92 42.78 39.78 45.00 45.01 44.18 43.17 42.59 40.65 40.29 42.84 45.27 44.57 43.03 41.34 44.37 47.82 49.34 50.99 50.27 50.07 50.94 51.55
51.09 51.34 51.94 51.42 50.95 45.30 42.94 43.71 49.36 48.63 41.16 43.69 46.31 45.86 47.58 49.68 45.99 48.07 48.15 46.68 42.94 40.86 41.09 39.32 43.51 47.42 45.24 43.82 42.54 42.33 40.40 40.52 40.47 42.89 43.52 41.24 38.72 42.36 47.34 49.36 49.90 50.34 50.84 51.42 51.26
50.51 50.78 51.31 50.49 42.33 42.04 39.72 45.89 47.80 49.55 36.01 38.08 42.85 44.58 47.01 46.46 41.35 48.09 47.89 44.86 44.36 40.74 41.05 39.96 44.61 45.10 44.16 43.03 43.91 39.37 45.03 44.16 43.11 39.48 34.18 40.54 31.83 38.43 43.67 45.70 47.43 47.47 48.29 50.37 51.64
50.15 50.15 50.72 50.28 41.47 38.89 41.62 45.11 47.55 49.06 18.16 37.44 41.51 48.47 46.75 42.47 43.40 43.27 46.11 43.24 41.40 41.02 40.92 38.94 42.25 42.76 42.24 43.58 45.89 42.49 46.57 44.61 44.50 39.92 36.23 37.95 34.30 37.93 44.53 44.05 45.02 46.87 48.69 50.40 51.82
49.70 49.85 50.32 46.47 42.47 43.48 44.91 45.41 48.30 33.22 20.68 35.58 43.23 41.70 40.58 42.34 42.40 44.71 42.06 44.91 45.24 42.31 42.08 40.64 44.74 44.06 44.49 46.65 46.62 47.80 44.37 43.25 42.15 38.89 31.66 38.36 36.96 35.93 38.66 44.57 46.88 47.74 49.33 51.06 51.67
49.60 49.79 48.47 47.61 38.78 43.70 44.61 42.79 32.81 25.84 37.75 33.65 37.77 42.49 41.92 38.68 39.41 41.09 39.98 37.74 36.26 34.26 35.61 39.60 40.49 43.73 45.68 41.77 44.56 44.12 39.14 31.21 30.32 30.51 29.36 41.08 38.27 39.25 44.48 45.42 49.47 49.29 48.96 51.54 52.36
49.21 49.37 47.59 47.08 44.54 43.65 41.23 33.64 25.58 32.79 32.15 39.00 38.08 38.01 34.59 36.67 40.39 39.56 37.83 35.42 38.77 37.82 35.74 34.42 32.58 41.23 45.10 42.69 40.98 40.95 40.08 31.58 28.33 27.31 31.79 41.10 34.49 39.88 46.43 47.66 48.58 52.53 52.27 51.15 52.45
48.92 42.91 42.12 43.74 45.68 42.73 37.68 23.95 24.06 30.55 36.87 35.26 35.63 33.45 33.25 37.83 37.93 38.03 37.97 37.68 38.75 39.53 34.92 34.05 35.40 43.23 45.17 45.70 44.33 40.88 36.78 42.62 36.80 38.23 32.58 36.49 40.26 44.77 45.95 46.02 46.62 48.27 51.75 50.96 51.31
44.11 42.32 41.36 44.83 45.30 40.63 32.21 25.08 28.26 34.64 35.76 34.95 28.74 34.28 30.69 33.69 34.08 35.16 35.46 41.29 40.50 42.02 42.92 39.77 33.97 42.41 44.24 45.26 45.26 43.74 45.23 36.01 36.70 29.94 28.24 33.88 35.87 37.42 41.65 43.92 45.23 44.84 49.68 51.46 52.75
43.27 37.51 43.39 45.44 44.58 37.65 25.38 25.76 31.03 35.43 35.59 33.58 31.42 30.87 31.99 31.94 34.94 34.75 35.04 38.69 41.67 42.61 42.82 41.35 37.61 37.86 43.11 40.33 39.04 40.54 39.47 40.41 40.91 36.99 30.13 27.02 32.06 41.37 42.94 45.09 44.59 45.80 47.85 50.55 52.59
40.96 32.34 45.12 45.45 33.04 33.85 29.31 30.97 35.23 33.90 37.02 34.91 34.84 32.87 31.03 32.69 31.80 32.91 34.21 37.83 43.29 43.63 39.10 41.05 38.74 34.18 37.65 43.20 44.45 42.68 41.50 41.89 35.02 34.48 35.50 32.37 32.81 44.53 44.94 45.64 45.98 45.24 47.34 47.34 51.70
36.92 36.16 44.83 43.35 27.75 29.03 33.06 33.27 34.68 33.23 33.26 33.66 33.49 35.92 36.38 34.20 30.21 33.15 37.07 42.84 44.40 42.18 40.63 41.02 36.92 30.71 35.20 39.21 42.29 40.10 41.68 42.79 42.60 39.60 36.02 30.37 33.22 46.25 45.84 47.20 47.36 45.48 46.07 47.17 48.02
32.98 29.46 37.37 39.88 37.23 31.81 30.38 31.12 31.34 36.79 35.12 35.14 33.54 35.60 33.67 31.74 35.57 32.91 35.66 42.05 44.43 42.99 44.75 43.73 38.01 36.44 31.92 35.27 39.92 38.10 41.33 43.25 42.31 35.14 35.47 35.21 37.84 42.11 44.35 45.10 46.47 46.62 46.68 46.99 47.62
33.16 31.73 36.41 29.22 32.44 32.92 32.32 32.51 30.66 30.04 35.44 36.37 33.34 32.77 31.11 28.85 31.17 31.90 36.37 40.61 41.71 43.31 44.05 43.04 34.56 37.53 39.20 40.93 41.71 41.05 40.52 41.99 40.99 40.32 36.34 38.47 39.06 42.16 44.70 45.78 46.14 46.80 47.39 47.36 48.07
31.71 33.97 36.77 31.85 33.76 34.18 32.71 30.99 30.60 32.63 32.64 31.76 30.82 33.53 33.73 29.98 31.32 30.44 35.40 39.35 37.73 40.76 40.16 42.79 34.94 36.47 35.25 40.03 41.71 39.60 41.75 41.93 41.60 41.29 40.88 41.71 39.91 46.38 48.15 45.53 44.97 46.67 46.94 47.06 47.47
40.50 38.88 37.33 33.85 32.56 30.77 31.14 31.90 32.22 34.42 35.12 36.53 35.11 33.34 32.21 33.94 37.10 37.72 39.96 44.00 43.02 40.47 37.81 38.88 36.96 33.90 30.09 38.25 39.35 32.75 37.86 40.53 41.85 42.91 41.77 37.22 41.68 43.87 43.40 43.79 44.27 45.36 46.19 47.17 47.79

GFSSW_sfc_wetblb_087.txt.gz
Wetbulb
54.17 54.00 53.86 54.29 54.54 54.43 54.04 54.13 54.53 53.76 54.07 54.38 54.64 55.54 56.07 55.93 55.16 53.13 47.28 52.37 55.14 60.92 58.74 50.17 48.86 48.02 46.91 44.29 44.84 41.53 36.15 32.27 35.63 36.17 39.32 44.17 46.84 51.84 53.01 50.91 52.60 55.02 53.36 56.91 62.17
53.64 53.72 53.60 53.55 54.28 54.32 54.34 54.16 53.70 53.86 53.65 53.79 54.62 55.15 55.33 55.10 52.05 49.75 54.52 60.09 60.79 60.50 51.57 50.13 48.13 48.66 44.69 43.38 43.35 39.67 34.11 36.97 41.18 41.48 41.90 45.19 48.57 50.21 50.44 51.21 51.36 53.40 56.87 56.74 60.57
53.53 52.86 52.74 52.78 53.97 54.21 54.08 53.83 53.57 53.31 53.80 54.16 54.34 54.81 54.69 54.18 48.27 46.04 60.40 61.12 62.36 60.32 50.23 49.90 49.97 48.27 42.89 43.13 41.97 39.39 38.20 41.89 44.43 45.01 44.03 42.57 47.79 51.26 49.08 47.96 52.52 52.31 55.47 55.32 60.34
52.33 52.60 52.59 52.76 53.24 53.34 53.08 53.10 53.51 53.25 53.31 53.00 53.23 54.30 54.49 52.92 35.16 49.75 60.76 60.71 61.45 54.84 49.47 47.78 47.04 44.43 41.15 40.41 42.38 38.35 43.27 43.30 44.49 45.96 47.07 43.90 49.03 49.98 49.01 50.04 57.44 58.51 56.51 59.48 59.46
52.83 52.56 52.55 52.27 52.32 52.84 52.97 52.91 53.05 53.33 53.17 52.80 52.83 53.96 51.21 45.92 45.61 53.10 60.87 59.53 54.83 50.03 47.66 46.97 46.07 45.27 41.89 41.67 42.51 41.54 43.54 45.40 46.74 46.96 47.58 49.65 48.29 48.66 50.67 56.11 58.53 59.27 59.23 58.78 58.40
53.19 53.25 52.92 52.14 51.88 51.96 52.84 52.76 52.76 52.78 52.82 52.35 52.54 53.03 49.55 39.00 48.61 50.84 53.67 54.37 50.62 48.55 47.44 48.65 46.92 48.05 45.23 43.97 41.98 44.69 44.80 45.36 45.27 45.80 46.81 47.30 47.16 47.46 49.14 56.51 57.26 57.04 56.34 57.44 57.13
53.36 53.17 52.80 52.24 52.11 51.82 52.32 52.03 51.97 51.97 52.01 52.03 52.19 50.52 45.83 40.53 47.62 47.98 49.58 49.35 51.39 50.57 47.64 49.08 49.62 46.46 46.02 44.14 47.49 45.42 42.13 43.66 45.39 44.10 45.75 46.81 42.32 44.25 47.58 56.21 55.78 55.46 55.02 56.32 55.47
53.18 53.15 52.82 52.68 52.43 52.16 51.72 51.30 51.05 51.25 51.55 51.26 52.01 49.71 41.58 51.46 50.33 50.62 49.81 49.82 51.03 50.52 50.92 51.85 50.99 47.55 45.87 47.17 46.01 42.47 40.14 35.73 42.65 44.72 46.79 45.30 39.45 45.18 48.83 55.01 53.60 53.90 53.72 54.03 55.08
52.80 53.07 52.78 52.21 51.77 51.40 51.21 50.89 50.92 51.42 51.04 51.38 48.96 46.82 40.00 53.66 50.52 53.70 52.22 48.74 49.68 51.10 51.83 54.57 51.08 47.06 45.95 40.59 37.60 37.72 33.46 35.95 40.43 45.20 44.34 43.30 41.10 43.03 47.29 51.89 52.13 52.51 52.47 52.45 52.51
51.48 52.18 52.68 52.19 51.78 51.20 50.52 50.44 50.54 51.46 50.54 51.27 51.71 42.29 44.55 44.04 50.47 52.82 51.57 50.74 48.18 48.72 47.64 46.87 44.92 41.55 39.05 37.57 31.90 33.82 34.78 38.14 37.73 41.85 43.23 41.35 42.21 43.79 46.61 49.88 51.15 52.59 52.17 50.42 50.72
51.23 51.21 51.70 51.86 51.70 50.96 48.48 44.61 43.65 41.48 43.64 42.74 44.13 44.68 47.37 51.09 54.49 51.78 53.17 49.21 47.62 45.29 40.52 43.93 38.95 37.86 39.93 40.47 40.96 39.78 38.16 36.65 40.82 44.67 42.33 42.40 41.72 44.63 45.76 47.00 48.85 51.42 51.23 48.90 50.26
50.56 50.72 50.87 51.10 51.60 50.61 45.12 42.03 43.70 44.31 37.73 44.35 44.86 45.32 47.55 49.55 43.82 47.78 52.50 44.51 43.47 39.29 41.74 40.08 38.12 43.80 43.88 42.30 41.22 39.98 37.83 37.59 40.86 44.20 41.89 41.22 40.93 41.05 45.32 47.24 49.38 50.60 49.36 48.68 49.83
50.34 50.30 50.60 50.45 51.14 43.60 39.70 42.12 46.55 46.91 39.67 41.59 45.23 44.72 45.55 46.99 42.26 44.00 49.81 45.43 41.45 39.20 38.89 37.45 41.08 45.60 43.82 41.74 40.42 39.70 37.86 38.09 38.06 42.57 42.12 39.40 38.00 40.77 44.48 47.91 50.26 50.55 50.01 49.91 49.53
49.98 50.09 49.87 50.32 42.28 41.02 37.24 44.26 45.61 46.61 34.10 36.16 42.13 42.88 45.86 46.37 40.52 48.42 50.15 45.15 42.90 39.01 39.31 38.18 43.35 42.09 42.38 41.44 41.97 36.99 43.09 42.54 40.95 37.72 33.78 38.71 30.49 37.16 40.94 44.51 47.75 48.46 48.87 49.26 50.31
49.48 49.53 49.24 50.22 42.91 39.15 41.12 45.16 45.71 46.84 18.11 37.04 40.47 47.81 46.26 40.97 41.83 42.82 48.15 43.50 38.93 40.79 39.95 37.20 39.59 39.80 38.96 41.63 43.84 40.80 44.82 42.48 41.40 38.58 34.28 35.41 32.58 35.70 42.49 42.12 44.46 46.30 47.62 49.06 50.78
49.04 49.33 49.23 44.29 42.27 43.13 43.94 44.19 44.73 32.78 19.42 33.74 41.03 40.40 40.34 41.57 41.77 42.85 41.23 42.41 41.47 39.44 40.68 39.14 42.55 41.78 41.79 43.71 44.91 46.09 42.58 41.10 39.59 36.79 30.18 36.70 35.18 33.93 36.58 42.69 45.22 47.12 47.59 48.39 50.52
48.88 49.44 47.50 46.44 38.23 42.61 43.26 40.00 32.18 25.40 36.42 32.69 35.10 38.30 37.64 37.43 38.92 39.32 37.33 36.42 33.83 30.48 32.20 38.13 39.59 41.11 43.82 39.99 42.65 41.63 37.00 29.31 27.80 28.43 28.22 38.40 36.64 37.81 42.65 44.21 46.96 47.32 48.03 48.51 50.37
48.82 48.85 46.36 45.47 43.72 43.31 39.59 30.75 24.24 29.74 31.05 37.51 35.72 36.27 33.21 36.43 37.04 38.51 36.26 32.41 36.16 35.99 32.97 30.50 29.80 39.83 42.06 40.05 38.05 37.86 37.88 30.65 26.40 25.83 29.49 38.77 33.21 38.10 45.07 47.07 46.46 49.87 49.79 49.73 49.92
48.56 41.30 43.03 42.34 44.59 42.24 33.33 21.44 24.67 28.86 35.00 31.66 33.00 31.24 32.14 35.22 35.56 35.88 34.98 35.05 36.38 37.17 32.34 32.18 32.83 41.74 43.00 43.49 42.36 37.97 35.34 41.09 33.79 34.97 31.21 33.87 37.95 43.28 45.02 45.32 44.63 47.33 48.45 48.04 50.43
40.08 42.11 40.34 43.34 44.56 39.66 31.40 23.73 25.38 32.77 33.07 32.91 26.43 31.11 28.27 30.18 31.11 33.33 34.07 39.02 36.96 40.27 40.49 36.73 32.15 40.70 42.31 43.19 42.95 41.65 43.28 34.76 34.32 28.73 27.26 31.44 33.47 35.56 41.40 42.17 43.23 44.70 47.98 48.63 50.50
41.66 36.67 42.18 44.04 42.78 35.69 24.86 24.17 28.72 33.90 33.63 30.48 29.77 27.79 28.94 28.86 32.02 31.85 34.01 37.46 39.66 39.71 41.71 39.80 34.11 35.60 40.61 37.97 36.82 38.05 38.09 38.55 38.00 34.05 29.21 26.72 30.76 41.18 42.59 43.92 42.80 42.95 47.48 49.66 49.68
38.74 30.85 42.03 44.55 32.83 31.47 27.28 29.76 34.06 32.31 35.74 34.48 33.45 31.47 29.66 30.45 28.48 29.51 31.01 36.25 42.01 41.15 36.35 40.60 35.26 30.77 35.04 41.74 42.30 41.10 40.19 40.21 33.21 32.26 33.06 30.95 32.15 42.97 43.47 43.42 44.65 44.44 45.41 46.44 50.98
35.44 35.29 42.65 41.76 26.66 27.49 30.71 30.86 32.91 31.53 31.61 32.32 32.34 34.67 34.43 31.21 27.80 31.70 32.29 38.47 40.96 42.50 39.39 39.91 34.91 27.79 31.65 36.74 41.22 38.87 39.96 40.80 39.79 36.64 32.71 29.60 32.30 44.46 44.70 44.47 45.32 44.50 44.95 46.03 48.08
35.35 29.47 35.65 38.07 36.39 30.29 28.65 29.21 30.08 35.94 33.20 34.10 32.62 33.80 31.19 29.02 32.30 29.96 32.12 37.35 41.60 42.86 43.80 41.54 38.03 34.07 28.86 32.67 37.32 36.76 39.87 41.09 40.62 32.47 32.66 34.79 37.01 41.09 43.52 44.02 45.45 46.02 45.66 45.51 46.21
36.28 31.69 35.37 28.44 31.28 32.73 31.43 31.07 29.14 29.54 35.28 35.54 32.34 31.61 30.54 27.38 28.38 28.42 32.30 34.71 39.29 42.86 41.45 39.32 34.17 36.80 37.11 38.51 39.63 40.01 39.24 39.84 37.49 37.80 35.36 37.29 38.52 42.28 43.13 44.24 45.45 46.84 46.96 45.52 45.90
32.72 33.19 36.89 31.65 34.21 33.01 32.83 30.25 29.92 31.31 31.87 30.67 29.98 32.12 32.91 29.60 29.71 27.50 31.34 32.48 35.27 40.93 38.83 39.91 34.75 36.23 33.92 37.67 39.03 38.08 39.70 41.03 40.29 39.51 38.35 39.26 39.08 44.18 45.48 45.45 44.54 45.52 45.91 45.48 46.29
40.41 39.22 37.08 33.61 32.02 30.57 30.94 31.07 31.30 33.23 34.36 35.29 34.05 31.86 30.77 32.32 35.38 36.01 36.43 36.09 37.37 38.01 37.97 35.73 35.40 33.45 29.81 36.15 36.67 31.42 37.32 39.61 40.99 40.80 39.10 35.82 40.68 44.36 43.24 43.78 44.62 44.81 45.01 45.22 46.50

GFSSW_sfc_wetblb_090.txt.gz
Wetbulb
53.74 53.45 53.28 53.74 54.19 54.13 53.83 54.21 54.14 53.37 53.20 53.41 53.63 53.70 54.07 55.23 54.10 51.36 44.72 50.06 54.19 60.18 57.12 50.18 47.91 46.63 45.27 43.41 43.01 40.32 35.04 31.58 34.53 35.07 38.89 42.06 44.27 49.62 51.54 49.51 50.97 53.68 53.20 56.10 60.91
53.47 53.32 53.22 52.88 53.72 53.88 53.84 53.62 53.48 53.71 53.55 53.52 53.63 53.95 54.57 54.47 50.49 47.67 53.38 59.29 60.25 61.17 50.37 48.54 46.51 47.40 43.79 42.65 42.02 39.35 33.56 36.16 40.13 40.33 41.01 44.30 44.19 48.89 49.49 49.97 50.20 52.46 55.58 60.07 60.22
52.26 52.24 52.50 52.46 52.61 52.60 53.41 53.41 52.98 52.69 53.49 53.70 53.80 54.03 53.99 53.69 44.45 42.79 60.93 60.96 61.37 59.35 49.07 49.24 49.21 47.09 41.87 41.52 41.03 38.38 37.26 40.08 42.95 43.18 42.74 41.19 43.61 49.74 48.26 46.34 49.96 50.31 53.17 54.28 58.32
52.10 52.02 52.26 52.26 52.26 52.00 52.79 52.95 52.16 52.36 52.60 52.58 52.82 53.46 53.74 51.93 34.45 44.65 60.74 61.03 62.00 55.33 48.71 46.17 45.21 43.45 40.89 39.51 41.41 36.78 41.56 41.75 43.34 43.97 44.37 42.77 45.41 48.72 47.91 49.32 54.28 55.10 56.01 55.46 58.70
52.46 52.50 52.46 52.47 52.32 52.07 52.49 52.37 52.08 51.58 51.81 52.22 52.52 52.73 49.99 40.35 42.18 49.66 58.55 58.62 53.62 49.75 46.59 45.56 44.53 44.05 40.96 41.05 40.59 39.38 41.60 43.03 45.40 45.00 43.81 47.67 47.74 47.87 48.26 53.38 57.86 58.45 57.84 58.28 57.53
52.91 52.91 52.49 52.43 52.18 52.14 52.28 52.18 51.87 52.05 51.14 51.28 51.52 52.08 47.30 33.80 45.24 49.05 49.12 53.33 49.33 46.27 45.90 46.15 44.63 46.29 43.53 42.37 41.11 43.16 43.04 43.95 44.04 44.26 44.36 45.79 44.43 46.87 48.29 56.43 56.35 56.53 56.85 57.30 56.13
52.91 53.32 53.14 52.58 52.31 52.28 52.29 51.93 51.58 51.66 51.57 51.45 50.86 49.19 44.31 38.21 43.50 45.40 47.55 46.35 47.95 48.72 45.48 47.36 48.00 45.11 44.53 42.62 45.53 43.75 40.57 41.77 42.50 41.93 42.53 44.52 41.45 43.98 47.41 55.70 55.04 54.76 54.67 55.44 55.81
51.16 51.38 52.44 52.59 52.75 52.52 51.90 51.40 50.95 51.81 52.14 51.55 50.68 47.78 40.65 48.99 48.97 49.28 48.18 47.94 48.57 47.70 48.58 49.74 49.23 45.88 43.90 45.77 44.65 40.63 38.94 34.77 39.95 42.25 44.25 45.09 37.96 43.57 47.23 53.96 52.78 53.11 53.77 54.00 55.08
50.54 51.11 51.50 51.41 51.47 51.85 51.44 50.83 51.09 52.52 51.54 50.44 47.36 45.03 38.22 51.03 48.82 51.18 50.50 48.00 48.98 48.47 48.42 53.04 48.84 44.78 44.12 39.62 36.79 36.37 32.18 33.63 38.51 42.69 42.23 41.98 39.91 43.01 46.55 52.94 51.61 51.91 52.24 52.68 53.31
50.09 50.44 50.80 50.84 50.66 50.91 50.61 50.23 50.54 51.13 50.18 50.40 49.40 39.45 41.44 40.98 49.22 51.92 50.90 49.99 47.29 47.03 46.03 46.30 44.73 40.46 38.26 37.03 31.46 32.75 33.35 35.58 36.11 39.79 41.61 38.66 40.74 44.83 45.57 46.50 50.24 50.66 51.85 51.68 51.37
49.73 49.90 50.34 50.51 50.36 50.68 47.25 43.80 41.89 40.05 42.90 40.09 41.57 42.29 44.69 49.54 52.37 50.74 51.43 48.85 46.41 44.50 39.16 42.47 36.97 35.18 39.70 39.17 39.37 37.86 36.43 34.82 37.77 41.61 39.35 39.22 38.59 41.84 43.56 44.51 46.16 49.04 51.14 49.75 49.04
49.33 49.28 50.11 50.31 50.22 49.88 41.63 40.94 40.84 41.62 35.93 43.05 43.11 42.65 45.92 47.86 42.05 46.07 50.17 45.23 43.09 38.41 41.11 39.02 36.04 41.17 42.26 41.27 39.94 38.68 36.47 35.88 38.80 42.25 40.80 39.22 39.23 42.35 42.36 44.55 45.17 47.66 48.39 48.24 49.33
49.10 48.97 49.51 49.78 49.65 42.50 38.69 40.87 44.42 44.72 36.83 39.81 43.65 42.49 43.38 45.32 40.62 41.88 46.43 44.70 41.36 38.69 38.48 37.19 39.39 44.03 42.25 39.63 38.44 37.62 37.23 35.92 36.50 39.83 40.14 37.25 36.06 39.67 42.13 45.65 48.32 49.30 49.32 49.27 49.41
49.28 49.11 49.30 49.51 41.41 40.78 36.65 43.17 44.21 43.71 33.64 34.21 40.53 42.61 45.03 45.12 39.14 46.16 46.99 43.88 41.78 38.45 38.98 37.18 42.23 41.03 40.59 39.99 40.49 35.69 41.08 40.29 38.77 35.61 31.25 36.99 28.81 36.18 39.42 42.60 46.19 48.02 48.34 48.50 49.05
48.97 48.96 48.79 49.11 40.84 37.97 40.21 44.69 44.41 44.25 17.95 35.29 38.88 46.30 44.54 40.87 40.37 40.99 47.03 43.40 37.48 39.34 39.84 35.94 38.07 38.81 37.89 40.04 41.90 39.10 42.71 40.21 39.34 35.60 32.99 34.30 30.98 34.78 39.96 40.76 43.05 45.59 48.30 48.62 49.20
48.78 48.63 48.71 42.82 41.38 40.83 43.35 42.85 43.39 30.97 20.24 32.31 39.44 38.88 37.89 40.47 40.81 42.59 41.47 42.30 41.90 38.78 38.22 37.23 41.11 40.41 40.16 42.30 43.16 44.69 40.82 39.34 37.70 35.00 28.42 34.41 33.32 32.31 35.60 40.84 43.05 45.28 47.27 49.00 49.00
48.63 48.46 46.28 45.08 36.06 41.40 42.12 37.95 29.04 23.32 34.32 30.88 32.57 36.02 35.65 35.24 38.08 39.13 36.65 36.01 31.72 28.37 29.75 35.01 37.08 41.00 42.67 38.29 41.45 40.14 36.53 28.24 26.87 27.36 27.64 35.40 34.77 36.35 40.84 42.87 44.57 45.81 46.56 47.86 49.37
48.38 48.15 45.30 44.27 42.43 42.28 38.06 27.81 21.40 28.38 29.97 34.61 32.49 34.35 31.92 33.60 34.86 36.86 36.35 32.22 35.79 35.49 31.19 28.76 27.11 36.69 41.62 40.51 38.14 38.43 37.04 29.03 25.63 24.93 28.48 37.06 32.60 37.17 43.90 45.45 45.87 46.58 46.67 47.34 47.95
47.46 39.37 43.01 41.29 43.49 41.45 30.85 17.72 22.89 27.13 31.70 29.46 30.46 28.80 29.72 32.77 31.86 33.33 33.96 35.18 36.61 37.24 31.02 30.41 29.15 39.45 41.72 42.71 41.97 36.60 33.40 39.27 31.60 32.38 29.69 32.31 36.25 41.41 43.75 44.69 44.35 43.69 46.17 46.16 47.63
39.46 38.91 39.28 42.12 43.18 38.33 29.37 21.98 23.94 30.59 30.48 30.18 24.14 27.98 24.40 26.44 27.03 28.85 30.40 37.65 36.60 39.85 40.19 36.13 29.66 38.10 40.92 41.80 41.68 39.15 40.93 32.84 32.34 26.43 25.92 29.74 31.79 33.78 39.58 42.10 43.39 43.15 45.59 45.98 48.19
38.62 35.26 40.37 43.48 41.32 34.67 23.15 22.59 26.67 32.10 33.34 28.14 27.89 25.85 26.69 26.32 28.23 28.74 30.84 35.27 38.78 38.68 41.21 38.13 34.06 33.11 38.11 36.12 35.47 35.84 36.00 36.23 36.46 32.75 27.33 25.58 29.61 39.42 41.50 43.37 43.30 42.97 44.64 46.79 47.36
38.30 30.35 41.30 43.99 31.95 31.91 25.80 27.57 32.81 30.38 33.88 32.79 31.61 29.37 26.96 28.31 26.61 27.01 28.58 32.41 36.44 37.34 34.49 38.80 35.91 29.03 33.56 39.74 40.14 38.18 36.87 37.94 31.99 29.57 30.85 29.27 32.24 41.11 42.50 42.92 43.74 43.76 44.27 45.51 48.43
34.00 34.26 42.66 40.26 25.76 26.87 29.67 29.07 30.80 30.09 29.69 30.55 30.80 32.87 31.92 29.33 25.87 29.50 30.24 36.30 38.88 38.94 37.11 38.53 34.61 28.60 30.08 34.65 38.01 35.06 37.09 38.90 38.12 35.89 32.35 28.76 31.10 42.68 42.17 43.30 44.16 43.93 44.64 44.49 46.98
33.29 27.74 33.32 37.25 35.70 28.58 27.29 26.60 26.82 33.42 30.99 31.79 31.31 32.34 29.61 27.81 30.63 28.58 30.11 34.44 36.79 35.68 42.98 40.24 34.39 31.20 28.66 31.92 36.69 33.78 36.34 38.35 38.34 30.96 32.44 33.95 34.42 39.51 42.12 43.14 44.68 45.04 44.90 44.44 44.39
34.53 30.05 33.45 25.64 29.46 30.21 30.07 29.15 26.26 26.33 33.22 34.25 30.06 29.36 28.55 26.25 27.77 27.36 30.51 32.00 34.72 37.81 39.99 38.06 29.66 32.68 34.54 36.13 35.71 36.03 36.45 37.53 36.21 36.48 33.11 34.71 36.77 40.24 42.35 43.25 45.41 45.88 45.19 44.83 45.28
32.07 31.53 34.37 29.99 31.31 30.73 30.22 27.73 27.16 29.05 30.24 31.05 30.62 32.39 32.49 28.14 29.09 26.95 29.92 30.03 30.04 37.44 38.62 38.60 28.70 34.19 30.63 35.41 36.81 34.58 37.31 37.73 38.00 37.04 35.93 36.49 35.89 42.65 45.04 43.09 43.51 45.14 45.93 45.68 44.94
39.16 39.69 35.58 31.80 29.14 28.58 28.43 29.39 30.13 32.02 33.97 34.41 33.47 32.44 30.61 31.68 35.12 35.67 36.39 35.16 34.36 31.76 31.13 34.33 33.10 32.87 28.48 34.37 33.48 29.44 34.49 37.06 37.34 39.17 38.75 34.13 38.41 41.03 42.47 42.57 43.66 45.47 44.68 45.04 45.67

GFSSW_sfc_wetblb_096.txt.gz
Wetbulb
52.74 52.78 53.05 53.20 53.13 53.16 53.24 53.09 53.01 52.76 53.03 53.09 53.07 53.34 53.93 54.49 53.84 53.94 49.79 54.55 57.95 59.72 59.71 58.80 56.37 55.07 54.87 52.45 53.82 53.44 47.00 45.03 45.70 45.45 46.91 51.26 49.72 53.32 56.20 55.17 56.97 58.80 58.71 61.12 63.35
53.03 53.13 53.36 53.31 53.12 53.11 53.29 53.08 53.29 52.76 52.84 52.89 52.93 52.91 53.78 53.70 52.93 49.95 56.97 58.30 58.83 60.94 57.08 54.94 51.96 52.86 50.79 50.84 51.48 49.84 46.82 46.83 49.06 49.26 48.41 50.68 50.89 52.12 52.51 53.79 55.30 57.21 60.77 62.19 63.57
53.46 53.56 53.63 53.49 53.20 53.13 53.10 53.33 53.08 52.74 52.67 52.80 52.77 53.23 53.25 53.42 49.13 48.32 60.43 61.43 60.45 60.62 56.66 55.76 54.60 52.39 49.92 51.97 50.95 49.74 46.61 49.47 49.61 50.46 51.21 50.41 50.93 53.32 52.45 51.10 53.65 53.84 56.40 60.39 62.73
53.70 53.58 53.13 53.02 52.61 52.60 53.20 53.28 52.58 52.39 52.44 52.50 52.85 53.12 53.06 53.15 39.36 53.55 59.11 61.50 61.23 60.16 55.65 54.99 54.07 51.12 49.50 48.47 51.51 47.64 49.98 50.25 50.51 51.16 50.85 49.87 52.34 51.57 52.82 53.66 56.16 59.13 59.79 61.32 61.75
52.15 52.12 51.75 51.57 51.30 51.13 51.75 51.66 51.89 51.42 51.96 52.38 52.72 52.56 51.71 45.71 45.05 51.33 58.31 60.08 59.13 58.53 55.35 53.37 52.08 51.44 47.90 48.95 50.22 48.53 49.40 50.52 50.99 50.95 50.79 51.61 50.76 51.12 51.99 54.62 56.39 59.54 61.05 61.15 61.14
51.39 51.18 51.22 51.22 51.18 50.84 51.15 51.57 51.30 51.70 52.01 52.54 53.27 51.72 49.36 40.71 48.96 49.77 51.83 56.91 55.45 54.12 53.17 54.53 51.74 52.09 48.78 48.51 48.04 49.60 49.65 49.76 50.57 50.46 51.14 50.03 50.44 51.43 52.85 54.96 56.54 59.30 60.42 61.53 61.56
50.74 50.61 50.79 50.96 50.71 50.37 50.45 51.31 50.91 51.37 52.08 53.27 53.59 51.67 46.65 44.77 49.34 51.22 51.11 50.93 53.96 51.22 47.53 50.55 52.88 50.82 50.70 48.08 50.92 49.85 46.93 48.51 49.63 50.31 49.84 51.32 48.03 48.71 52.93 55.99 56.73 58.38 60.12 60.96 60.95
50.19 50.31 50.65 50.63 50.40 50.39 50.67 50.43 50.75 51.22 52.17 52.04 52.52 50.66 44.82 50.51 52.65 50.74 50.35 48.73 50.06 50.36 47.37 49.65 53.43 51.37 50.80 51.64 49.16 47.01 47.85 44.07 48.88 49.23 50.17 50.40 45.24 51.53 54.52 55.25 54.73 57.08 59.52 59.57 60.03
49.51 50.11 50.55 50.45 50.38 50.17 50.01 50.19 50.74 51.48 51.65 51.83 50.17 47.94 42.89 52.24 48.58 52.38 53.90 50.30 52.56 51.28 48.71 51.51 52.63 49.97 50.07 45.95 44.33 45.70 41.74 44.24 46.14 49.87 49.02 49.67 47.28 52.39 54.76 54.07 54.23 55.80 58.77 59.48 59.79
49.69 49.64 49.95 50.18 49.99 49.70 49.44 50.23 51.24 51.58 51.65 52.72 51.13 43.45 46.52 43.68 50.30 52.22 55.49 53.72 51.87 49.40 45.80 45.71 48.62 46.89 46.92 45.18 38.80 42.09 42.81 44.12 43.32 47.91 49.01 47.98 48.26 51.68 53.38 52.38 53.49 55.45 57.96 59.09 59.33
49.36 49.35 49.30 49.88 49.57 49.28 49.21 50.11 45.65 45.74 44.76 41.15 42.65 43.94 44.50 48.94 51.52 49.56 54.61 52.24 50.83 47.82 42.43 43.31 42.94 41.29 44.76 46.36 46.64 45.72 43.79 43.42 45.99 48.25 46.86 46.98 46.72 48.97 52.46 53.21 53.29 54.77 57.27 58.45 59.05
49.09 49.22 48.96 49.47 49.36 48.87 49.69 44.62 41.85 42.99 37.39 43.74 44.16 44.15 46.49 47.81 41.78 46.20 50.66 47.82 46.74 43.36 44.84 42.80 38.93 44.12 46.57 46.48 45.47 44.76 42.71 42.59 45.84 47.96 46.94 46.48 45.87 49.22 51.34 52.42 53.58 54.15 55.92 57.71 58.95
48.79 48.68 48.64 49.39 48.90 47.80 45.92 44.19 48.29 47.27 38.39 41.25 44.86 45.10 46.54 46.74 42.70 43.98 46.86 46.50 44.85 42.73 42.63 39.99 43.63 45.74 43.42 43.93 42.57 43.23 41.93 42.36 42.66 46.36 47.63 46.18 44.32 45.89 49.61 52.68 53.81 55.25 56.38 57.57 58.42
48.38 48.05 48.90 48.92 44.89 45.99 44.39 47.58 49.03 48.16 36.23 37.92 42.08 46.19 47.64 46.86 42.77 48.54 47.95 45.03 43.36 41.57 42.45 42.22 45.65 43.98 43.04 41.36 42.93 39.23 44.44 43.79 43.14 42.69 39.56 45.44 37.81 43.64 48.46 49.78 51.65 52.97 55.93 57.14 58.15
47.56 47.61 48.35 47.40 45.09 42.94 44.93 49.19 48.87 45.94 25.31 38.95 42.72 50.94 47.01 44.23 45.01 45.30 49.53 44.65 39.48 38.75 41.82 41.02 42.34 42.26 41.56 42.90 44.51 41.41 45.20 44.12 44.06 42.84 42.71 42.89 40.14 42.42 47.88 47.55 50.07 52.39 54.00 57.36 58.77
48.04 47.60 47.80 46.40 46.92 46.33 48.63 48.74 47.80 34.53 24.31 35.31 41.51 39.73 41.13 42.95 43.38 46.36 45.19 46.51 45.29 40.28 40.28 39.96 45.27 43.32 43.83 45.11 45.71 46.39 44.76 45.00 45.21 43.61 36.84 41.32 40.86 41.36 45.27 48.37 49.54 51.73 54.09 56.89 58.27
47.76 47.81 46.71 47.79 42.65 48.40 48.60 43.51 32.69 26.27 35.03 33.81 35.26 38.42 39.12 37.57 40.43 39.81 41.74 40.34 37.41 34.75 34.89 36.76 38.06 43.01 44.87 41.30 44.11 43.75 42.17 35.98 35.15 35.20 34.65 42.51 40.45 42.53 48.28 50.66 51.54 51.76 53.60 56.63 58.50
48.13 46.98 46.57 46.86 49.67 48.45 45.07 34.95 24.03 29.77 31.83 36.93 35.55 36.80 35.87 36.42 36.36 36.81 40.21 38.13 41.04 39.64 36.66 34.09 31.27 39.12 44.08 42.24 40.78 40.95 41.45 35.63 30.02 33.58 37.06 42.55 38.36 43.76 50.29 52.31 53.21 54.21 54.78 56.33 57.88
46.38 46.47 45.20 46.84 48.56 47.34 38.19 26.50 28.09 30.61 33.23 32.18 33.71 31.94 33.31 35.12 34.88 35.83 35.03 38.67 39.49 40.14 35.61 34.93 34.89 42.54 42.20 43.98 43.48 41.34 38.38 43.54 38.11 39.94 36.17 40.95 44.13 48.37 50.18 50.79 52.35 52.81 52.98 55.06 57.09
44.28 42.66 41.78 48.15 48.91 43.79 33.22 27.15 30.17 33.48 33.86 33.33 28.40 31.51 29.46 31.53 32.38 33.25 33.10 38.82 39.33 38.71 41.25 37.23 33.58 41.49 42.27 44.17 44.05 42.83 45.01 37.35 39.58 30.78 30.50 37.24 39.77 41.72 45.59 47.56 50.68 51.86 52.87 54.48 56.74
43.49 37.57 44.31 48.33 47.40 36.97 27.19 28.75 30.97 34.45 34.02 31.29 30.49 30.25 31.29 30.33 31.40 30.59 31.25 35.60 38.54 37.94 39.45 40.07 36.68 38.18 42.02 40.40 38.80 39.46 39.34 40.53 41.10 39.95 33.79 33.16 38.74 47.65 47.40 48.64 50.17 52.16 53.33 54.59 56.64
40.55 31.33 43.57 46.97 33.76 33.22 29.45 30.47 33.03 32.44 35.21 33.15 33.48 32.45 30.85 31.68 30.35 30.42 30.22 33.53 38.35 38.21 34.39 38.78 37.08 32.87 36.58 44.03 45.24 44.09 41.75 41.13 36.05 35.13 38.97 38.16 38.81 49.30 50.09 50.81 52.16 52.60 53.70 54.22 56.34
35.86 35.98 42.85 43.97 27.89 29.05 31.71 31.40 32.99 31.68 32.39 31.65 31.09 33.55 34.30 31.18 27.78 31.60 32.78 37.79 39.18 39.29 36.83 37.70 35.21 30.94 34.48 39.87 42.46 40.06 41.95 42.02 41.66 41.21 36.81 35.17 39.38 48.36 49.85 49.69 51.65 52.38 53.73 54.22 54.28
36.40 30.33 35.53 36.83 36.80 32.66 30.24 29.94 29.21 34.47 33.01 34.04 32.69 34.37 32.95 31.51 34.47 30.98 32.76 37.18 39.78 38.44 40.83 39.16 34.94 32.47 30.09 34.14 38.04 35.77 38.28 40.61 39.08 35.73 37.47 38.70 40.38 44.57 46.76 48.10 49.54 51.38 53.77 55.02 54.81
35.51 31.98 35.23 27.93 30.37 32.90 32.43 31.12 29.18 27.98 33.63 34.83 31.81 31.81 30.73 27.86 29.84 30.41 33.79 35.23 37.76 39.93 40.29 38.45 31.73 34.54 35.31 36.03 36.18 35.80 36.11 37.77 37.67 39.03 35.97 39.38 40.90 43.88 46.51 47.61 49.48 51.96 53.37 53.69 54.63
33.14 33.20 36.01 33.15 34.01 31.87 30.71 29.67 28.88 30.24 31.54 30.74 30.48 32.98 33.51 30.28 31.74 30.23 33.34 34.34 33.61 37.34 37.34 36.86 32.20 34.84 33.01 36.96 36.59 34.22 36.90 38.10 38.55 39.91 40.68 41.21 40.64 47.82 49.08 49.85 49.61 50.71 51.55 51.94 53.71
38.95 41.06 36.88 32.25 31.99 29.85 29.43 30.47 30.65 33.12 34.47 35.33 34.32 32.84 31.71 33.81 36.34 37.92 38.35 38.33 37.35 35.63 34.25 33.92 33.70 31.84 29.10 35.70 35.89 31.65 36.12 37.94 39.31 41.64 42.36 39.35 44.42 48.21 47.73 48.18 49.89 51.80 52.68 52.79 53.89

GFSSW_sfc_wetblb_099.txt.gz
Wetbulb
53.32 53.55 53.76 53.73 53.56 53.61 53.75 53.81 54.19 53.50 53.48 53.61 53.62 54.37 54.71 55.04 53.71 54.77 50.83 56.97 59.06 59.99 59.70 59.52 59.17 56.86 55.89 54.40 55.09 54.44 47.34 46.13 48.10 48.58 49.00 51.79 50.77 54.18 55.58 54.50 55.18 56.64 57.78 59.62 64.11
53.92 54.21 54.38 54.21 54.12 53.83 53.62 53.49 53.80 53.02 53.14 53.37 53.39 53.62 54.55 54.41 53.46 52.19 59.59 58.73 59.08 60.86 57.06 56.61 55.59 55.05 52.69 52.60 53.10 50.39 47.59 47.42 51.93 51.33 49.58 51.01 51.64 52.36 52.48 52.93 53.50 55.54 58.32 61.09 64.36
53.54 53.40 53.13 52.61 52.21 51.97 51.75 51.90 52.27 51.90 52.24 53.10 53.46 53.86 54.03 54.04 52.42 52.59 60.20 61.77 60.73 60.43 58.30 57.77 56.98 54.20 51.25 52.45 51.60 50.83 47.17 50.44 51.57 51.98 51.84 50.78 51.18 53.19 51.58 50.89 53.65 53.87 56.03 58.96 61.20
52.72 52.47 52.18 52.10 52.04 51.90 52.00 52.07 51.30 51.34 51.37 51.73 52.64 53.40 53.80 54.11 44.27 56.57 58.71 61.48 61.10 61.10 58.12 55.98 54.59 52.00 49.97 49.26 52.36 48.71 50.90 51.36 51.82 52.31 51.37 50.42 52.43 51.06 52.00 52.69 55.23 55.99 57.35 59.88 60.99
51.67 51.60 51.58 51.54 51.65 51.47 51.47 51.68 51.28 51.18 51.24 51.86 52.88 53.67 53.39 48.41 49.81 57.95 58.54 59.43 58.12 58.68 56.14 54.57 52.92 52.60 49.81 51.41 51.72 50.23 50.83 52.10 52.42 52.49 51.99 52.17 50.48 50.46 51.29 53.82 55.29 56.00 57.11 59.66 61.84
51.08 51.03 50.97 50.94 50.99 50.67 51.11 51.43 51.40 51.61 51.59 52.26 53.72 53.35 51.93 44.30 51.69 51.80 52.16 52.28 55.11 53.30 54.76 55.74 54.19 54.70 52.27 51.16 50.08 51.44 51.39 51.31 52.15 51.75 52.09 50.17 50.36 51.48 52.50 54.51 54.49 55.50 57.86 60.58 62.07
50.67 50.78 50.48 50.43 50.33 50.22 50.50 50.90 50.93 51.45 51.47 53.14 53.29 53.76 49.62 47.81 52.30 52.99 52.23 51.01 54.37 54.85 51.70 54.87 55.81 53.14 52.59 49.85 52.39 51.05 48.23 50.06 50.46 51.31 50.66 52.20 48.95 49.67 53.32 54.07 53.03 56.09 58.23 60.87 62.31
50.12 50.40 51.09 50.54 50.37 50.65 50.63 50.30 50.59 51.26 52.39 52.91 53.40 53.62 46.92 52.61 53.56 50.56 51.55 50.33 51.55 52.35 51.70 52.07 49.87 48.44 50.42 52.56 50.96 48.45 49.03 44.74 49.97 51.42 51.72 51.25 45.74 51.39 54.05 53.83 55.13 56.26 57.11 60.15 61.83
49.90 50.50 50.79 50.51 50.49 50.20 49.92 49.77 50.36 51.73 52.35 51.99 53.08 51.14 46.19 51.50 49.13 53.98 56.28 49.14 51.88 50.22 51.19 49.19 48.57 48.61 48.77 45.86 43.54 46.56 42.88 45.44 47.82 52.16 50.84 49.37 47.25 51.62 55.63 55.15 54.41 55.42 56.23 58.17 61.20
50.46 49.90 50.24 50.38 50.07 49.53 49.20 49.55 52.32 50.99 52.62 54.26 53.89 46.50 49.96 45.56 49.35 51.80 53.65 55.17 53.92 53.22 49.79 46.74 46.76 44.69 46.00 44.07 37.27 41.35 43.84 45.68 45.95 50.21 50.57 48.45 48.16 51.14 53.23 54.34 54.19 54.71 55.37 57.28 59.36
50.02 49.58 49.58 50.11 49.75 49.09 49.19 51.39 47.78 48.87 48.09 42.50 43.69 44.93 44.89 48.44 51.10 49.76 52.31 53.07 53.71 50.87 45.69 45.83 42.31 39.85 42.40 45.57 45.10 45.32 45.57 46.28 48.29 51.15 49.00 48.27 48.77 50.04 52.13 52.66 53.61 54.41 54.95 56.25 58.57
50.13 49.53 49.37 49.31 49.52 49.58 50.05 45.99 44.39 45.24 39.84 46.07 45.89 45.89 47.94 49.23 44.64 48.18 51.59 47.82 48.29 44.71 47.14 44.71 40.51 44.65 45.05 45.10 45.07 44.11 44.00 44.79 47.68 49.76 49.09 48.19 47.99 50.06 51.24 51.58 52.71 54.02 54.78 55.72 57.73
49.41 49.15 48.48 48.88 49.02 49.01 47.67 46.02 49.93 49.47 41.07 43.41 46.57 46.92 48.43 49.65 45.74 46.33 48.49 46.54 44.79 44.55 44.77 43.02 45.77 46.42 43.45 43.15 42.61 44.33 43.52 44.48 44.50 47.76 49.25 47.53 45.90 47.99 50.71 51.94 52.19 53.57 55.53 55.96 56.99
49.15 47.78 48.47 48.86 45.76 48.56 46.50 49.22 50.86 50.86 37.60 40.94 43.85 47.89 49.76 49.10 45.15 50.35 50.68 46.90 43.91 41.36 43.62 43.94 46.65 45.23 43.80 41.86 43.00 40.25 45.61 45.01 44.21 43.82 40.61 47.84 39.41 46.65 49.17 49.26 50.91 53.70 55.04 55.93 56.88
48.43 47.11 47.56 47.14 45.84 44.99 47.57 50.46 50.65 48.19 27.45 40.46 44.71 52.14 48.80 46.32 46.42 47.41 51.67 47.74 42.14 41.92 43.54 41.83 43.38 43.55 43.15 42.36 43.88 41.88 45.64 44.29 43.98 43.30 43.40 43.62 41.13 44.68 48.94 47.46 49.40 52.54 54.12 55.44 57.61
48.24 47.78 47.07 46.64 48.36 48.60 50.34 50.44 48.75 35.41 26.76 37.87 43.30 43.00 42.67 45.44 45.32 46.75 48.09 48.83 47.95 43.82 43.70 42.05 46.37 45.85 44.62 46.17 45.88 45.83 44.34 44.21 44.81 43.23 37.47 42.40 42.24 43.14 45.84 48.08 51.19 53.21 53.58 55.54 57.66
48.92 47.55 46.49 48.48 44.77 50.45 50.27 45.79 33.79 28.29 37.35 35.90 38.05 40.26 40.36 40.28 42.31 42.07 43.10 43.44 41.55 38.19 38.86 41.55 40.81 43.31 44.44 41.35 45.08 43.76 40.80 34.35 34.66 36.09 35.69 44.21 42.64 44.50 48.43 50.41 52.10 52.29 53.71 56.55 58.25
48.09 47.61 47.20 48.13 50.42 49.48 46.76 37.03 26.16 33.78 35.97 39.67 38.15 38.53 37.24 39.46 40.05 40.07 40.16 40.49 44.12 42.34 39.85 37.15 35.61 40.92 42.82 41.03 40.33 41.92 39.96 35.21 29.30 33.05 36.78 45.10 39.90 44.52 50.49 51.75 53.46 54.47 54.59 56.43 58.08
47.04 46.41 45.19 47.69 50.18 48.44 40.32 29.12 30.45 34.26 37.16 35.55 36.34 33.50 34.47 38.66 37.60 37.95 38.57 40.58 42.82 41.54 38.19 37.49 37.88 44.01 42.31 42.53 43.27 40.93 38.91 44.55 37.97 39.95 35.97 40.07 44.70 48.85 50.58 50.93 52.52 52.72 53.93 55.03 57.62
44.04 43.49 43.18 49.40 50.01 44.60 35.54 29.42 34.06 36.70 36.27 35.64 30.64 33.61 31.71 34.43 34.90 36.12 36.52 41.35 41.04 42.10 43.35 40.45 34.99 42.79 42.97 43.76 43.38 41.77 44.28 37.79 39.82 30.55 30.29 37.91 39.98 41.78 47.24 47.70 51.11 52.33 53.39 54.59 56.59
42.77 37.97 46.34 49.71 48.00 38.91 29.61 31.96 34.62 37.26 36.52 33.64 32.41 32.35 33.29 33.02 34.08 34.57 33.62 38.15 38.65 40.55 41.08 40.26 39.70 39.89 42.69 41.18 39.42 38.48 38.19 40.51 41.57 39.53 33.36 32.41 38.22 48.19 48.71 49.08 49.98 52.37 54.11 54.98 56.23
40.72 33.71 47.33 48.37 34.72 33.79 32.00 34.99 35.16 35.07 36.85 35.42 35.16 34.13 33.34 34.02 33.24 33.05 32.96 35.63 39.02 39.01 34.75 40.28 37.83 35.21 38.21 44.51 45.83 44.75 41.38 41.14 35.76 34.63 38.31 38.32 39.14 49.67 50.43 50.51 50.78 53.06 54.20 55.59 56.39
34.83 37.76 46.85 45.30 29.30 30.89 34.77 34.89 35.77 34.12 34.54 34.07 33.07 35.04 35.98 33.26 29.94 33.21 34.27 38.23 38.73 38.45 38.58 39.71 35.79 31.38 34.76 40.24 43.78 41.14 43.56 43.94 43.03 41.66 37.04 35.22 37.93 50.19 50.45 50.82 51.04 50.95 53.83 55.16 55.88
36.78 31.59 37.25 39.57 38.55 33.89 32.53 32.53 32.05 36.54 34.98 36.24 34.99 36.00 33.95 32.24 35.11 32.31 33.85 37.64 39.98 40.40 40.24 39.93 36.06 34.02 31.44 34.46 36.89 37.70 40.50 42.64 41.84 37.08 37.92 39.08 40.83 45.48 47.68 48.61 49.46 50.80 52.76 53.86 56.25
36.19 34.66 36.63 30.55 32.79 33.79 34.74 33.65 31.64 31.38 35.74 36.53 34.10 33.82 32.81 29.95 31.97 31.97 35.47 36.76 38.76 39.97 39.69 38.76 32.48 35.51 36.48 37.34 37.74 36.76 37.31 38.64 38.11 40.11 37.05 40.64 41.22 45.41 48.00 48.84 49.86 51.53 51.63 52.55 54.38
33.62 34.89 37.43 34.98 35.49 33.46 32.80 31.30 30.96 32.71 33.78 32.72 32.44 34.65 35.29 31.13 32.38 30.80 34.17 35.02 34.90 38.37 37.59 39.66 32.98 35.60 33.52 37.13 37.35 35.55 37.97 38.42 38.52 39.46 40.54 41.67 41.62 47.56 49.08 49.99 49.99 50.73 51.10 51.33 52.59
39.57 41.41 38.37 33.68 33.54 31.83 31.82 32.44 32.75 34.77 35.69 36.95 35.74 34.32 32.85 34.86 37.93 39.08 39.74 39.65 37.33 36.00 36.27 35.06 34.30 32.51 29.24 35.61 35.54 32.27 36.79 37.81 38.50 39.92 40.16 37.81 43.25 47.45 48.01 48.80 49.08 50.10 50.77 50.97 53.31

GFSSW_sfc_wetblb_102.txt.gz
Wetbulb
54.50 54.62 54.58 54.19 53.52 52.96 52.78 52.70 53.19 52.42 52.62 52.81 53.37 53.68 54.58 55.10 53.91 53.46 50.77 56.35 58.45 61.17 58.80 58.48 58.11 57.46 56.09 53.19 54.03 53.87 46.63 44.19 45.76 47.14 49.31 52.34 50.49 53.51 54.68 52.63 53.82 55.15 55.31 58.49 64.20
53.87 53.64 53.64 53.24 52.66 52.45 52.48 52.48 52.61 52.14 52.32 52.87 52.85 53.34 54.53 54.60 51.94 50.80 58.81 60.69 61.13 60.45 53.58 53.89 53.98 55.59 52.92 51.74 52.05 50.02 46.45 46.01 49.62 50.42 50.22 51.14 50.93 51.32 51.68 51.86 52.28 54.50 57.06 60.28 63.47
52.75 52.74 52.66 52.43 52.22 52.25 52.20 52.09 51.98 52.01 51.86 52.74 52.87 53.64 54.01 54.09 50.23 53.36 61.94 61.74 60.24 59.54 56.66 54.88 55.85 55.15 51.71 52.11 50.94 49.98 46.55 49.19 49.99 51.34 51.90 50.61 50.34 52.14 50.64 49.12 52.21 52.37 54.82 58.73 62.33
51.92 51.79 51.83 51.84 51.81 51.72 51.52 52.02 51.29 51.43 51.66 51.91 52.75 53.53 54.75 53.28 42.96 55.26 61.97 61.90 61.42 59.72 56.82 55.61 54.29 51.68 50.22 48.65 51.53 47.41 49.85 50.08 50.60 51.80 51.29 50.15 51.57 50.22 51.15 51.27 53.92 54.36 55.17 56.69 59.80
51.47 50.93 50.99 51.24 51.16 51.02 51.27 51.52 51.43 51.00 51.17 51.88 52.89 54.01 52.64 48.17 48.89 55.75 59.75 60.26 56.63 56.40 53.72 54.63 52.34 51.69 48.47 50.35 50.55 49.03 50.08 51.26 52.21 51.90 51.70 52.32 50.45 50.39 50.67 53.16 54.08 54.30 55.20 56.82 60.19
51.27 51.04 50.77 50.65 50.66 50.40 50.78 51.16 51.14 51.22 50.99 51.90 53.33 53.58 50.74 43.24 53.47 53.57 52.40 51.68 51.48 52.77 51.41 53.49 52.51 54.05 51.47 50.96 50.38 51.85 51.37 50.88 51.51 51.36 51.93 50.28 50.46 50.75 51.42 54.01 54.11 54.24 55.13 56.92 59.74
50.93 51.30 50.68 50.24 50.30 50.38 50.71 50.80 50.65 50.78 51.07 52.36 53.78 52.54 48.40 46.55 53.77 54.27 53.60 51.21 51.34 52.09 51.58 52.30 53.06 52.45 53.07 50.12 52.30 50.94 47.55 49.00 49.49 50.14 49.71 51.17 47.96 48.35 52.59 53.87 53.28 53.56 54.27 56.82 59.86
50.73 51.08 50.68 50.82 51.06 50.78 50.51 50.08 49.82 50.54 51.10 53.30 53.83 52.15 46.32 54.70 54.91 50.93 51.12 50.06 51.01 51.28 51.54 52.89 51.84 49.33 47.10 49.30 48.92 47.32 47.51 43.73 48.99 50.25 50.78 50.33 44.41 50.53 53.32 53.23 52.17 52.56 55.42 56.97 59.88
51.63 51.41 51.18 50.81 50.67 50.13 49.63 49.40 49.54 51.26 52.31 53.42 51.65 51.73 46.34 53.69 48.82 52.73 55.09 53.03 50.09 50.75 49.81 49.19 48.19 45.73 45.59 42.81 41.45 43.95 40.38 42.76 45.31 50.53 50.48 49.93 46.64 50.72 53.19 53.10 52.99 54.47 54.98 55.75 59.21
51.83 51.66 50.95 50.60 50.35 49.10 48.62 49.04 51.01 51.92 52.63 54.08 53.35 47.29 50.30 47.13 48.62 49.89 51.94 51.41 51.80 53.14 51.13 49.17 45.82 40.85 40.89 40.05 35.81 39.12 40.95 42.99 42.92 47.43 48.83 48.46 47.96 50.18 52.20 52.18 53.04 54.21 54.80 55.03 56.37
51.16 51.24 50.76 50.43 49.62 48.95 47.48 47.95 46.85 46.72 50.23 45.19 45.66 48.29 47.29 48.29 49.81 48.20 50.65 49.86 52.17 50.70 45.74 47.49 41.16 37.90 40.70 42.70 42.92 42.61 41.88 41.76 44.78 47.87 46.69 48.13 48.46 49.51 51.91 52.23 51.85 52.56 53.86 54.70 55.70
50.82 50.88 49.97 49.79 49.17 49.10 47.97 46.12 44.41 45.19 37.93 45.04 45.15 45.08 46.84 47.84 43.26 48.02 51.10 46.10 47.59 43.55 46.60 44.75 40.39 44.45 45.28 44.73 42.59 41.73 41.18 41.02 44.55 47.15 46.70 47.15 46.87 49.47 51.04 51.67 52.06 51.74 52.48 53.80 55.87
50.44 50.08 49.01 49.31 48.94 47.69 47.19 46.45 50.04 49.25 39.31 42.24 45.77 45.92 46.95 48.76 44.70 46.82 49.27 46.31 44.41 43.35 43.55 41.45 43.57 46.43 44.41 43.97 42.14 41.48 40.01 41.08 40.64 44.71 46.77 46.16 44.89 47.26 50.17 51.61 52.66 53.14 53.47 54.15 55.53
50.06 49.15 48.62 48.72 45.51 47.11 45.54 50.01 50.25 50.90 35.31 38.82 42.96 45.53 48.84 49.01 45.03 51.02 50.68 46.79 43.74 40.04 41.44 41.82 45.49 44.13 43.23 43.12 43.29 38.51 43.45 42.62 41.72 40.72 36.57 45.37 37.33 45.25 48.25 49.31 51.36 52.54 52.98 52.93 55.36
49.67 48.68 48.03 47.33 43.70 42.33 47.45 50.39 50.16 48.39 24.84 42.48 43.98 52.01 50.22 46.12 46.96 47.39 51.40 48.17 42.17 41.94 41.66 39.32 41.25 41.12 40.77 41.88 44.98 42.02 44.85 42.37 42.04 40.65 40.55 40.79 38.57 42.59 47.37 46.56 49.11 51.44 52.72 54.63 56.01
48.96 48.71 48.00 45.54 46.64 47.96 50.62 50.11 47.52 33.55 23.87 37.82 44.84 43.53 42.85 45.04 45.23 47.72 47.77 49.70 48.06 43.62 43.70 42.09 45.11 43.37 43.82 45.44 45.69 46.65 43.35 42.44 42.16 40.01 33.78 39.17 39.10 40.42 44.22 46.65 48.83 51.96 52.90 54.86 55.50
48.65 48.59 46.86 46.33 41.55 48.55 50.44 44.46 31.24 25.98 38.32 36.36 38.61 41.62 40.96 40.57 42.76 43.72 42.20 42.59 40.04 36.71 37.59 41.40 41.54 43.76 43.70 41.61 44.42 43.88 40.03 32.37 30.37 31.48 31.25 41.17 39.70 42.15 47.49 49.48 50.59 51.53 53.73 55.70 58.53
47.95 47.51 46.28 46.15 47.85 49.11 46.20 35.66 24.05 33.07 35.68 40.35 39.37 39.51 36.99 39.59 39.88 40.40 40.28 37.46 41.63 42.12 38.33 35.12 33.46 42.23 44.54 40.65 39.09 40.23 40.32 32.87 25.65 28.03 32.91 39.36 35.77 42.84 50.06 51.36 52.05 53.81 54.91 56.23 56.77
47.07 44.68 44.60 46.60 48.68 46.64 38.42 26.82 28.13 33.14 37.09 36.50 37.72 34.74 35.24 37.85 38.65 38.51 37.95 37.47 39.96 42.61 35.50 35.67 35.97 44.98 43.76 43.59 42.13 38.86 36.87 42.75 36.25 37.50 33.07 35.95 42.18 48.60 50.69 49.90 51.14 51.79 53.86 54.73 56.84
42.20 42.07 42.32 49.05 49.54 43.02 32.86 28.21 32.91 37.37 37.83 36.74 31.72 35.12 31.58 34.17 34.49 36.18 36.06 39.05 40.02 43.40 43.26 39.12 33.68 41.92 43.74 43.54 42.62 40.40 42.23 35.13 37.25 27.22 26.35 34.05 37.25 39.68 45.68 47.93 50.49 51.01 52.59 54.02 56.00
41.50 36.12 43.81 50.22 48.53 37.55 27.56 29.71 34.24 38.61 38.48 33.94 32.91 32.53 32.97 32.82 34.21 34.15 34.90 38.41 40.41 40.03 40.65 38.32 36.45 36.19 41.35 40.50 39.03 38.17 36.88 38.34 38.49 36.49 30.13 29.34 34.90 46.77 47.23 49.56 49.81 50.96 53.55 54.90 55.10
38.36 31.62 46.65 47.42 35.20 34.36 29.68 33.50 36.88 37.04 38.61 35.76 35.29 33.90 32.72 33.86 33.10 33.47 33.50 36.88 39.74 39.01 34.51 36.95 34.19 31.88 35.53 42.44 44.86 43.24 40.04 38.85 33.03 32.43 36.88 35.47 35.80 48.28 48.82 49.95 50.76 50.96 53.00 55.10 55.96
34.88 35.19 46.90 44.31 29.51 30.06 33.80 33.62 36.10 35.58 35.08 34.55 33.43 35.20 35.64 32.51 29.73 33.35 34.70 39.10 39.03 37.40 34.94 38.82 34.49 28.18 31.17 36.61 40.79 39.23 41.94 42.42 40.76 39.44 34.97 31.76 35.03 47.44 48.84 48.49 50.70 51.59 51.76 53.18 56.43
35.00 30.00 37.83 38.46 37.50 32.72 31.35 31.90 32.04 37.90 35.85 36.41 35.17 36.18 33.90 31.88 34.44 31.67 33.21 36.99 39.24 38.62 41.17 39.01 34.76 31.81 27.89 32.54 36.64 34.43 37.25 39.24 40.52 33.01 34.66 36.25 38.22 42.65 46.34 47.39 49.04 50.49 51.92 52.25 53.84
33.08 32.31 35.88 29.95 32.60 33.52 33.53 32.25 31.08 31.29 36.05 36.57 33.63 33.56 32.58 29.51 31.22 31.03 34.06 35.48 37.86 40.46 39.18 37.71 29.90 32.82 33.76 35.11 35.61 35.31 35.24 36.25 35.51 38.34 34.60 38.23 39.51 43.65 46.30 47.01 49.38 50.69 51.41 51.69 51.82
33.08 33.34 37.11 34.25 34.73 32.37 32.92 31.03 30.79 33.03 34.28 32.26 32.10 33.82 34.71 30.80 32.16 30.19 33.58 34.35 33.88 37.61 36.52 38.08 29.62 31.97 30.57 34.97 35.49 33.35 35.50 36.35 36.85 37.68 37.76 38.89 38.83 44.88 46.90 48.09 47.57 48.87 49.70 49.78 51.25
38.46 38.87 35.54 33.55 33.12 31.24 31.28 32.00 32.27 34.13 35.76 36.76 35.28 33.34 32.78 34.84 37.73 38.65 39.27 38.40 37.40 35.25 34.50 34.35 32.79 29.93 26.37 33.59 33.69 29.37 34.20 35.64 36.94 39.12 39.02 35.33 40.52 44.23 44.64 46.23 47.73 48.83 50.04 50.47 50.81

GFSSW_sfc_wetblb_105.txt.gz
Wetbulb
53.80 53.70 53.76 53.48 53.12 52.95 52.84 52.85 53.15 52.32 52.56 52.83 53.31 53.67 54.08 54.53 54.02 51.20 46.45 52.75 53.90 60.81 58.67 55.19 53.58 53.43 53.08 48.69 48.55 45.76 39.81 38.30 40.32 41.69 44.27 48.57 48.83 50.47 51.10 49.26 50.64 52.06 51.81 54.74 64.07
52.92 53.00 52.93 52.73 52.47 52.46 52.44 52.39 52.60 51.99 52.19 52.57 52.90 53.53 54.33 54.40 50.81 48.14 54.14 60.69 60.91 61.21 52.35 50.09 49.73 52.28 47.64 46.43 45.74 42.85 39.27 40.12 45.46 46.64 46.03 48.58 48.43 47.57 47.62 49.85 49.58 51.57 53.67 60.22 62.97
52.12 52.09 52.03 52.12 51.95 51.82 51.56 51.54 51.69 51.59 51.80 52.69 52.95 53.60 54.01 53.80 47.89 50.36 61.37 59.84 60.44 59.91 52.72 52.56 51.55 50.75 47.07 47.75 46.03 44.32 41.28 45.25 46.91 48.34 48.77 47.66 46.51 47.73 46.33 44.31 48.55 48.23 51.10 59.69 61.06
51.59 51.35 50.85 51.10 51.37 51.19 51.49 51.79 51.06 50.99 51.06 51.36 51.95 53.39 54.58 51.37 38.74 50.59 61.13 61.09 60.61 56.89 54.09 51.24 49.94 46.33 45.08 44.14 47.40 43.74 47.01 47.37 47.39 48.64 48.29 46.74 46.52 46.83 44.69 46.58 50.29 50.09 49.90 52.84 59.03
52.16 51.29 50.54 50.26 50.61 50.65 51.42 51.52 51.47 50.85 50.77 50.99 51.67 53.26 51.03 44.76 46.87 53.08 61.33 60.81 57.54 56.17 52.59 51.70 49.86 48.13 44.70 46.27 46.61 45.71 46.89 48.41 49.17 48.81 47.92 49.36 47.63 47.52 46.25 49.47 51.17 51.21 51.81 51.22 56.23
52.26 52.27 51.51 50.44 50.40 50.44 51.27 51.22 50.97 51.18 50.46 50.72 51.78 53.85 48.09 40.13 51.40 54.10 54.52 52.21 51.03 47.83 47.78 49.19 48.47 49.53 47.29 46.96 45.54 48.81 48.31 48.16 48.57 47.88 47.48 47.06 46.98 45.96 48.60 50.66 51.02 51.76 51.29 51.46 53.49
52.22 51.98 51.90 51.38 50.47 50.46 51.20 50.88 50.37 50.55 50.40 50.71 52.21 51.79 45.43 42.56 49.78 49.55 50.83 48.08 48.05 48.04 45.81 49.26 48.05 45.36 46.65 45.46 48.09 47.65 44.23 46.05 47.33 47.19 46.56 47.33 44.74 44.76 48.52 49.69 49.75 51.22 51.76 51.70 54.81
52.48 51.98 51.60 51.68 51.10 50.89 50.72 49.95 49.88 50.14 50.99 51.28 53.29 49.52 42.13 53.25 51.83 51.42 49.19 46.49 47.80 47.75 47.35 47.81 48.10 45.20 43.99 45.08 43.55 40.80 40.92 37.74 45.34 46.87 47.99 47.19 41.05 47.72 49.83 49.14 49.17 49.88 51.17 51.67 54.02
51.58 51.93 52.00 51.37 51.07 50.48 49.74 49.44 49.71 50.73 51.93 52.67 49.04 47.40 44.37 55.38 49.67 50.96 48.90 49.90 49.94 47.94 46.56 48.68 45.09 41.08 41.76 36.80 34.22 36.60 33.27 35.97 40.21 46.46 46.61 46.66 42.72 47.28 50.19 49.97 48.97 48.53 49.10 51.29 51.91
51.70 51.49 51.35 51.21 50.61 49.54 48.93 49.03 49.57 50.61 50.46 51.48 51.06 44.04 48.54 46.32 47.34 47.28 47.00 48.83 47.10 48.53 48.08 42.88 39.76 35.45 34.44 32.33 28.80 31.95 33.99 37.74 38.08 42.68 44.77 43.72 43.80 47.10 49.60 49.42 46.67 48.38 49.88 50.14 50.29
50.63 51.16 50.88 50.83 50.08 48.98 46.83 42.70 40.35 41.10 42.00 43.63 43.67 45.09 47.58 48.94 46.97 45.27 47.94 46.97 45.88 46.20 41.14 43.93 35.99 31.44 34.59 35.35 36.85 36.53 36.07 35.62 39.12 43.56 43.11 42.73 42.84 46.06 48.46 49.73 46.69 46.47 48.46 49.73 50.31
50.51 50.63 50.72 50.29 49.30 48.79 45.23 41.34 42.36 41.98 35.47 42.74 42.87 42.57 44.84 45.25 40.35 43.50 47.46 42.94 41.70 39.38 42.82 40.40 36.28 40.33 40.15 38.94 37.46 36.86 35.90 35.73 39.19 43.08 42.77 41.18 41.38 44.83 46.88 48.36 49.42 47.07 47.38 47.43 48.18
50.18 50.48 50.19 49.34 48.65 45.46 41.36 42.84 46.95 46.30 35.17 38.86 42.82 42.14 43.35 44.54 40.82 41.67 45.67 43.89 40.32 39.70 40.59 37.43 40.77 45.02 42.67 40.68 38.90 38.56 36.81 35.74 35.81 40.13 42.55 40.50 39.12 42.72 46.63 48.73 50.21 49.31 49.19 49.34 50.79
49.33 49.64 49.61 48.87 43.67 41.24 40.07 46.90 46.79 46.10 31.56 35.14 40.81 43.72 45.09 47.40 42.18 46.49 47.79 44.48 40.64 37.64 38.60 37.41 42.42 42.05 40.77 39.59 40.10 35.73 40.99 40.50 39.13 36.11 31.14 40.54 31.19 38.44 42.63 44.69 47.78 48.93 49.10 49.54 50.37
48.67 49.08 49.29 48.59 40.23 38.44 43.36 47.54 45.98 43.28 20.06 40.21 41.88 47.94 47.42 43.60 45.57 46.16 49.21 45.74 39.25 38.73 37.94 35.74 37.13 37.13 36.78 38.06 40.29 38.10 42.58 40.89 39.28 35.30 33.47 36.16 34.23 37.04 42.82 42.85 45.53 47.70 48.47 50.47 50.01
47.99 48.59 48.81 44.87 41.55 42.57 45.45 46.05 42.46 30.08 19.75 35.35 43.91 41.92 42.03 43.20 44.22 45.39 44.96 46.53 45.96 40.98 40.22 38.90 41.75 39.43 38.41 41.12 41.50 43.48 40.50 40.15 38.01 34.59 28.36 35.27 34.86 34.08 38.85 42.38 45.72 48.96 49.32 49.01 50.17
47.68 48.14 46.00 45.28 37.14 44.28 45.38 39.84 26.53 21.94 35.97 34.04 37.90 42.08 39.95 39.76 41.29 41.76 41.02 39.36 35.65 31.94 32.31 37.63 38.26 41.08 42.20 37.53 39.38 39.22 34.54 27.45 25.69 25.71 26.32 37.32 35.43 36.20 43.05 46.10 47.26 48.10 49.82 50.51 51.02
47.50 47.40 44.76 44.00 43.84 43.06 41.95 31.52 21.06 29.54 31.10 37.47 37.47 38.21 36.56 38.64 38.18 39.40 38.88 35.45 38.85 38.12 34.68 31.98 30.04 37.51 41.51 38.62 35.57 35.52 34.27 27.74 22.51 22.99 27.79 38.16 32.25 36.79 46.49 49.12 51.13 50.63 51.29 52.22 55.90
46.93 39.98 39.69 41.86 43.62 42.49 36.33 22.73 22.54 29.29 33.73 33.26 34.12 32.30 33.66 36.99 36.04 35.49 35.18 34.97 36.41 38.36 33.10 31.61 33.53 41.35 43.12 42.62 39.32 34.94 32.28 37.78 32.44 33.02 28.88 32.75 37.29 43.09 48.39 47.92 50.27 50.01 49.94 50.87 54.70
38.67 37.44 37.73 42.95 44.24 40.40 31.65 25.68 27.84 34.01 34.90 34.68 27.47 32.76 29.42 32.22 31.66 31.96 32.51 37.33 37.51 41.87 39.34 35.63 29.61 38.95 41.19 43.28 41.70 36.67 39.02 29.91 33.68 25.53 23.59 29.94 32.59 35.09 42.51 43.71 47.58 49.07 50.05 50.92 53.84
36.85 32.53 38.38 43.08 42.69 35.94 25.94 25.00 30.44 35.16 35.39 31.05 30.28 29.56 29.90 29.36 30.69 29.85 31.91 35.83 38.15 39.89 38.26 33.85 33.08 31.46 38.07 36.60 36.01 35.80 32.32 33.25 34.11 34.10 25.91 24.27 30.03 44.33 43.97 45.68 46.28 48.52 50.45 50.56 51.33
37.65 27.83 39.77 43.40 32.67 33.37 27.89 30.98 35.00 33.04 35.49 33.83 34.85 32.32 29.83 30.49 28.95 29.20 29.99 34.06 38.28 37.41 32.10 34.10 30.58 24.88 29.82 36.76 40.37 39.43 36.13 36.30 27.52 27.72 31.87 30.32 30.72 45.39 46.13 47.39 47.92 48.20 50.72 51.87 52.94
32.98 32.37 39.07 40.86 25.91 28.25 31.11 31.30 33.22 32.00 32.63 33.38 32.70 33.57 33.22 29.64 25.55 30.20 31.56 36.90 37.64 35.74 32.86 34.00 29.86 24.64 27.19 31.59 35.87 35.51 37.06 38.28 35.51 34.78 30.32 26.41 31.56 45.11 46.04 46.63 48.03 47.49 49.06 50.70 51.82
33.56 24.80 30.86 33.64 33.95 30.29 29.52 28.99 29.68 35.53 33.75 35.34 33.79 34.30 31.51 29.05 31.62 28.30 30.47 35.48 37.46 36.90 41.73 38.70 31.31 27.66 23.26 27.51 32.26 29.36 33.35 36.40 32.91 31.33 32.02 32.22 34.76 40.38 43.75 44.75 45.70 47.38 48.49 49.65 50.36
32.64 27.74 31.58 19.52 29.20 30.12 31.11 30.46 28.78 28.51 34.92 35.67 31.50 31.35 29.89 26.52 28.13 27.86 31.49 33.01 35.40 38.03 36.92 34.26 26.17 29.79 30.89 31.97 32.17 31.19 31.69 33.26 32.07 34.10 31.67 34.24 33.54 39.91 44.31 45.54 47.15 48.18 49.30 47.96 48.99
29.92 29.85 31.86 29.82 31.68 30.99 30.57 29.34 28.78 30.69 32.37 30.96 30.24 32.80 32.94 28.53 29.09 27.83 31.95 32.41 31.92 35.54 34.85 35.94 26.88 29.59 26.95 30.88 30.80 28.98 31.99 33.00 33.47 34.47 34.72 35.52 35.44 42.53 43.31 45.15 45.10 47.19 47.40 47.48 48.65
36.40 35.80 33.92 29.53 29.93 29.33 29.62 30.12 30.22 32.59 33.92 34.97 33.64 32.30 31.07 32.50 35.45 36.25 35.89 35.77 34.72 32.31 31.15 31.22 29.78 26.71 22.80 29.32 29.20 24.20 30.30 32.46 33.50 35.58 35.47 31.44 36.69 41.67 40.63 41.72 46.01 48.81 49.96 50.46 51.30

GFSSW_sfc_wetblb_108.txt.gz
Wetbulb
52.96 53.04 52.93 52.84 52.61 52.43 52.39 52.16 51.77 51.75 52.21 52.37 52.40 53.15 53.59 54.31 53.85 50.81 44.84 50.04 52.32 59.49 59.60 53.45 52.64 51.40 50.31 47.14 47.08 44.14 35.50 33.13 37.96 38.63 41.86 46.73 46.41 48.33 49.82 48.05 48.83 50.74 50.78 52.95 61.74
52.20 52.14 52.10 51.73 51.72 52.02 51.87 51.55 51.85 51.29 51.48 51.87 52.21 53.04 53.66 54.32 50.10 46.96 52.92 58.51 59.51 61.49 52.14 49.86 48.38 50.08 46.20 44.80 45.79 41.44 34.92 37.77 41.91 43.65 43.58 46.95 46.91 47.02 45.63 48.03 48.22 49.92 52.78 61.24 62.12
52.04 51.94 51.74 51.23 51.02 51.32 51.39 51.98 52.10 51.26 51.40 51.91 52.37 52.79 53.30 53.52 46.20 47.16 59.73 60.97 61.20 60.96 50.46 49.80 50.22 49.23 45.16 44.29 44.41 41.08 39.52 41.81 44.22 45.32 45.96 45.89 44.63 46.12 44.63 42.73 46.71 46.95 48.99 59.64 60.49
51.69 51.57 51.42 51.30 50.95 50.90 51.81 51.70 51.87 51.16 51.09 51.25 51.40 52.21 54.02 51.04 34.59 49.19 61.10 60.47 60.07 55.26 52.30 49.90 47.92 43.50 41.92 42.27 45.61 41.47 45.73 44.55 44.82 46.66 45.79 44.90 46.72 44.54 44.50 46.16 49.28 48.50 48.68 59.11 59.34
52.42 51.65 51.43 51.25 51.17 51.20 51.82 51.59 51.61 51.64 50.70 50.86 51.12 51.74 50.48 44.31 45.11 52.63 61.14 60.81 57.26 54.25 52.48 50.72 47.51 45.97 42.71 43.81 44.62 43.97 45.49 47.24 47.48 46.50 45.46 46.81 44.40 45.44 44.88 48.14 49.90 49.66 50.29 55.93 58.83
52.60 52.56 52.37 51.42 51.21 51.29 51.68 51.53 51.21 51.17 51.07 50.52 50.85 52.10 47.44 37.66 49.64 53.22 52.38 51.83 52.69 49.97 46.63 46.92 46.88 47.60 44.77 44.27 43.36 46.23 46.07 45.73 45.18 45.05 45.82 45.92 46.16 43.76 46.29 49.43 49.62 49.97 49.92 50.20 55.94
52.39 52.51 52.45 51.79 51.78 51.68 51.63 51.15 50.54 50.54 50.73 50.70 51.60 50.52 45.72 40.64 47.67 47.16 48.98 48.56 46.81 47.05 44.54 46.19 46.98 43.86 43.95 41.78 45.30 43.70 40.30 41.35 42.88 43.80 43.78 45.51 43.29 42.41 46.40 47.51 47.89 49.34 50.18 49.91 50.18
51.24 51.86 51.51 51.68 51.78 51.39 50.94 50.09 49.79 50.34 51.15 51.08 51.99 49.39 41.08 51.16 50.34 50.37 50.52 47.80 47.55 46.43 46.31 46.48 46.03 42.99 41.93 43.37 42.23 39.41 38.99 34.92 43.36 43.77 45.23 42.94 39.59 45.69 47.34 48.14 47.82 49.96 50.57 50.25 49.39
50.35 51.61 51.28 50.84 50.93 50.60 50.04 49.45 49.84 50.90 51.34 52.01 48.90 46.25 42.11 54.84 50.95 52.45 51.41 46.83 48.49 48.45 44.69 47.36 44.27 40.17 40.41 36.25 32.96 34.17 33.33 34.61 38.25 42.74 41.86 42.04 39.88 44.04 47.80 47.91 47.64 48.46 49.36 49.47 49.49
50.20 50.92 51.15 50.73 50.55 49.81 49.04 49.39 49.81 51.16 49.90 50.91 50.17 43.32 46.20 44.73 47.89 46.10 46.40 47.88 46.09 45.88 46.67 42.13 39.48 35.37 33.92 32.64 29.47 29.97 31.02 34.08 33.79 37.59 40.68 39.75 40.28 43.77 45.68 46.40 45.82 48.21 48.82 48.14 47.74
49.23 50.03 51.01 50.67 50.06 49.28 46.76 42.56 40.21 38.84 41.71 39.41 42.21 43.64 45.44 49.81 47.76 44.45 46.90 45.66 45.18 42.76 37.84 43.07 33.99 30.79 34.23 34.49 37.56 34.33 32.29 31.15 34.05 38.70 37.05 38.40 39.42 41.62 43.96 45.32 45.89 47.68 48.40 47.00 48.75
48.21 48.93 50.06 50.43 49.66 49.12 42.64 39.49 41.38 41.44 34.91 41.98 41.92 41.23 43.50 45.50 40.51 43.57 45.89 41.56 40.90 35.95 39.95 38.90 34.79 39.35 38.67 36.43 34.79 33.73 32.04 31.74 35.24 38.24 38.08 37.83 37.84 41.39 42.86 44.93 46.49 47.55 48.14 48.53 48.05
48.06 48.53 49.30 49.98 49.17 43.55 39.44 41.26 46.08 45.18 34.43 37.43 40.51 40.18 41.21 42.97 37.94 38.99 43.30 42.66 39.21 36.70 38.67 36.22 39.15 43.85 40.07 37.85 34.84 33.88 31.75 32.20 33.34 37.04 37.79 36.30 36.27 38.89 43.38 45.81 47.64 48.58 48.75 48.98 48.85
47.87 47.95 49.31 49.17 42.07 40.73 39.23 44.14 44.88 44.39 28.39 32.85 38.76 41.28 43.23 43.29 37.86 42.93 44.13 43.19 39.59 35.89 37.82 37.51 42.42 40.85 39.33 37.98 38.81 33.82 38.78 38.07 37.16 34.56 31.02 37.23 28.61 36.50 40.24 42.17 44.93 46.38 47.37 48.34 48.61
47.52 47.31 48.87 48.89 40.89 38.03 41.03 43.58 45.17 42.14 16.34 37.44 40.68 46.13 44.62 43.25 44.36 45.10 45.44 43.72 38.10 37.62 37.50 35.21 35.57 36.34 36.77 38.00 39.59 36.82 39.78 38.53 37.94 34.11 30.36 32.49 28.33 35.26 39.34 39.44 42.51 45.03 46.78 48.02 47.83
47.13 47.21 48.15 44.17 40.90 41.61 42.60 43.67 41.38 27.44 16.86 33.02 42.66 40.75 41.22 42.75 42.74 45.39 43.78 45.68 44.89 39.40 38.42 36.68 39.85 38.22 36.57 39.10 38.36 40.12 37.70 37.62 35.96 32.79 26.84 32.44 30.82 32.99 34.24 39.10 42.93 46.16 47.70 49.08 47.75
47.05 47.19 45.07 45.02 37.20 41.33 41.88 37.94 23.33 20.50 33.85 32.53 33.09 35.62 35.57 38.98 40.02 41.24 40.16 38.28 35.28 32.27 32.14 36.53 36.79 38.40 40.08 35.68 38.35 36.60 32.71 25.73 24.48 24.30 25.71 34.88 32.02 34.52 39.01 42.59 44.74 47.25 48.67 50.80 52.52
47.05 46.96 43.86 42.76 41.56 40.61 38.90 29.89 19.25 27.26 29.23 35.73 33.93 34.81 32.60 36.24 38.73 39.16 37.17 34.88 38.58 36.93 32.63 30.15 28.36 35.92 39.54 36.14 34.11 33.18 32.95 26.51 21.75 22.84 26.69 34.53 28.15 34.49 42.43 45.71 48.97 50.64 50.82 51.29 50.98
45.76 37.91 37.62 39.45 41.43 40.23 34.17 22.74 21.44 26.63 31.21 30.10 31.58 29.57 30.96 33.34 32.88 33.68 32.76 33.84 38.55 38.98 32.07 30.26 31.14 38.90 40.46 40.02 37.72 33.49 30.08 36.38 29.68 30.35 26.87 29.99 35.09 40.00 43.19 46.00 48.08 48.60 50.55 50.04 52.39
36.49 34.64 35.16 39.65 40.79 38.12 30.27 24.23 25.84 32.20 32.75 31.32 24.32 30.17 24.92 28.33 29.37 30.12 29.96 35.09 35.59 39.22 38.21 33.55 27.68 35.06 37.61 39.74 39.89 35.58 36.92 28.32 29.55 22.37 21.70 27.59 29.30 31.48 38.83 42.24 45.89 47.31 48.24 49.68 51.79
34.23 31.31 35.57 39.99 41.22 35.85 24.37 24.91 28.81 33.48 33.46 29.37 27.50 25.87 27.73 27.25 29.03 27.72 29.88 33.44 35.57 35.07 35.02 32.25 29.67 29.79 35.13 33.44 31.65 34.23 33.84 34.26 31.68 30.57 24.74 23.17 27.14 41.14 41.78 43.49 44.02 46.43 48.83 48.82 50.22
33.32 25.96 36.02 44.12 30.80 32.28 26.84 29.19 34.27 32.21 34.88 32.71 31.86 30.31 27.84 29.03 28.03 27.36 28.24 31.54 35.99 35.60 30.95 32.98 28.64 23.55 27.89 34.47 36.19 38.83 34.95 35.21 28.14 25.46 28.79 28.60 28.98 42.37 45.13 46.54 46.49 45.93 47.17 50.18 50.63
32.50 32.39 36.64 36.37 14.68 27.20 30.81 30.75 32.30 31.21 31.67 31.34 29.92 32.84 32.73 28.12 24.59 29.87 29.72 35.09 35.60 34.64 32.35 32.68 26.69 22.76 24.77 29.17 35.64 32.37 35.10 33.95 35.06 33.44 28.15 24.10 27.60 42.25 44.37 46.35 46.42 46.28 47.90 49.67 49.75
31.19 20.81 26.74 33.14 32.00 26.39 26.28 26.62 27.22 33.39 31.62 32.90 32.03 33.65 30.14 27.75 30.15 27.03 29.00 34.24 36.04 35.57 41.38 37.49 29.17 25.63 21.15 25.63 29.01 26.61 30.34 32.11 33.08 25.98 28.12 27.86 32.49 36.88 38.98 43.44 45.76 45.45 47.40 48.54 48.82
31.67 24.82 28.48 17.22 23.47 28.75 29.87 28.64 26.68 26.80 32.90 34.04 30.78 31.01 29.06 24.82 26.00 25.95 29.53 32.34 35.10 37.86 35.66 33.04 25.42 28.06 29.05 29.84 29.53 28.43 28.46 29.48 28.46 30.59 27.70 30.41 31.67 36.56 39.48 42.87 46.06 46.87 46.82 47.23 48.06
26.03 25.35 29.25 27.38 28.79 26.79 28.31 27.25 26.54 28.74 30.72 29.68 28.95 30.40 31.70 26.89 27.28 25.27 30.64 30.69 30.20 33.63 32.21 33.33 25.44 27.15 25.82 29.45 29.44 26.98 29.27 29.55 30.24 31.09 31.23 32.85 32.99 40.24 43.75 44.17 45.41 46.59 48.88 49.38 50.24
36.50 33.70 31.00 25.64 25.23 24.19 25.17 28.73 29.92 31.67 33.01 33.82 32.26 31.62 30.23 32.32 33.75 34.70 34.52 34.47 33.44 30.86 29.40 29.76 27.80 25.32 22.07 28.29 27.94 23.16 27.57 29.21 30.49 32.97 32.86 28.78 35.37 42.64 42.81 44.88 46.27 47.72 48.49 48.52 48.82

GFSSW_sfc_wetblb_111.txt.gz
Wetbulb
52.42 52.39 52.42 52.12 51.62 51.54 51.75 51.84 51.45 51.51 51.99 52.10 52.25 52.27 52.74 53.70 53.77 49.64 43.07 48.14 50.34 58.37 58.16 53.39 51.80 50.34 48.76 45.61 45.38 42.29 35.08 32.26 36.27 36.79 39.55 44.46 44.82 46.36 47.36 45.87 47.16 49.01 51.97 55.06 59.85
51.74 52.06 52.10 51.89 51.65 51.52 51.55 51.51 51.56 51.29 51.52 51.57 51.78 52.03 52.84 53.49 49.69 45.20 51.16 56.93 57.88 60.06 50.41 49.37 47.58 48.64 44.24 44.01 44.26 40.88 33.91 35.62 40.97 41.52 42.09 44.89 45.18 45.83 44.43 45.99 46.23 47.85 52.09 59.58 60.47
51.84 51.86 51.90 51.96 51.70 51.65 51.55 51.69 51.47 51.29 51.31 51.31 51.52 52.04 52.60 52.83 43.56 41.85 58.47 58.32 59.32 60.47 49.90 49.37 48.75 48.39 43.64 43.18 42.27 39.30 38.48 39.89 42.29 43.55 43.74 43.71 42.01 44.21 42.84 41.87 45.12 45.56 47.71 58.07 58.96
51.98 51.98 52.09 52.13 51.86 51.73 52.41 52.28 51.43 51.19 51.18 51.11 51.16 51.33 52.97 49.67 33.35 44.25 60.77 60.04 61.42 56.59 50.22 48.80 46.73 42.76 40.71 41.02 43.72 39.76 42.28 42.85 42.59 45.16 43.87 41.95 44.47 42.32 42.86 44.46 47.80 47.36 47.23 57.20 58.11
51.87 51.96 51.74 51.75 51.46 51.40 51.89 51.87 51.80 51.12 50.87 50.73 51.07 51.43 48.88 41.22 41.87 49.45 58.45 60.04 56.30 52.84 50.52 49.00 45.24 43.61 40.60 41.93 42.81 41.31 43.44 45.52 46.51 46.22 44.97 45.28 42.92 43.84 43.73 46.19 48.13 47.90 48.40 55.42 57.82
51.45 51.45 51.22 50.99 50.64 50.83 51.59 51.24 51.02 51.21 50.67 50.74 51.13 51.32 45.66 35.04 45.69 49.46 47.66 48.79 51.91 50.82 47.36 48.50 46.73 47.12 44.42 43.18 42.27 44.54 44.13 44.31 44.40 44.53 44.59 44.55 44.82 42.30 44.81 47.80 47.50 48.10 48.25 49.90 56.45
50.75 50.84 50.96 51.02 50.52 51.30 51.34 50.92 50.50 50.61 50.69 51.18 51.23 48.59 44.22 40.06 45.79 45.36 47.74 47.91 46.71 48.00 43.72 44.70 45.90 42.84 42.63 40.54 43.97 42.30 38.62 40.20 41.75 43.55 42.95 42.81 42.50 40.90 45.43 45.77 47.61 48.48 48.93 49.44 49.24
50.73 50.73 51.48 51.31 50.89 51.01 50.63 50.21 50.02 50.82 51.57 51.58 51.05 48.07 40.52 50.17 47.61 48.07 48.19 48.66 49.52 47.76 45.54 46.40 45.76 42.41 41.21 42.84 40.71 37.62 36.78 33.80 42.17 43.08 44.17 42.85 39.13 43.48 46.94 45.51 45.48 46.85 47.49 48.37 49.20
49.77 50.07 50.97 50.85 50.56 50.28 49.94 49.74 50.06 51.05 51.96 51.10 48.15 44.50 39.17 52.72 49.15 52.13 50.79 48.10 48.50 47.46 45.54 46.68 43.39 39.62 38.67 35.30 33.16 33.28 32.22 32.74 36.28 42.75 41.71 39.94 37.29 40.04 44.48 45.59 44.72 45.55 45.43 46.91 48.56
48.61 48.76 49.89 50.31 50.57 49.80 49.23 49.63 49.68 50.33 49.81 50.31 49.36 41.47 43.94 42.84 49.09 48.92 47.88 47.72 44.92 45.77 44.97 42.54 38.06 33.77 32.56 32.73 29.21 30.75 29.75 32.36 33.04 37.36 38.08 35.91 36.62 39.33 42.68 43.79 42.92 43.53 44.58 45.27 46.41
48.43 48.46 48.83 49.78 50.40 49.53 46.87 41.65 39.30 37.66 39.64 36.79 40.11 42.56 44.06 48.48 48.91 45.52 45.94 44.45 44.22 42.12 36.86 41.93 33.37 29.00 33.25 36.96 37.71 33.89 32.19 30.96 31.71 36.42 33.84 34.51 35.01 37.81 40.37 40.86 41.50 42.49 44.43 45.80 46.77
47.98 47.91 48.27 49.75 49.86 49.53 40.49 38.69 39.29 39.95 33.29 40.73 40.62 40.18 42.82 44.03 37.54 41.40 46.61 39.50 40.29 34.81 38.49 36.53 33.50 36.75 37.44 35.67 33.65 32.30 31.00 30.67 33.04 35.71 34.77 33.68 34.73 38.65 39.10 39.85 42.01 43.12 45.05 46.50 47.72
47.81 47.77 47.83 49.12 49.27 40.90 37.43 39.11 43.60 42.59 33.34 36.73 40.74 39.57 40.24 42.05 36.73 37.73 42.15 40.81 38.57 36.13 36.33 32.88 35.86 42.19 40.04 36.86 33.68 32.83 30.90 30.34 31.18 34.15 35.14 33.42 34.05 37.09 39.92 41.19 44.06 45.21 46.30 47.28 47.57
47.69 47.54 48.11 48.79 40.59 39.26 37.50 42.75 43.48 43.64 27.75 31.19 37.09 40.20 41.90 41.85 37.24 41.82 42.58 40.59 38.71 35.02 36.64 35.69 39.01 38.55 38.25 37.28 37.06 32.37 36.01 35.20 33.39 31.14 28.58 35.81 27.95 36.68 37.33 38.66 40.75 42.73 44.40 45.24 45.55
47.39 47.34 47.78 47.70 39.49 36.80 39.36 42.04 43.24 41.27 17.09 35.13 39.51 44.75 43.30 40.26 43.01 42.02 42.37 40.88 35.61 36.30 37.70 33.31 34.90 36.67 35.82 36.67 39.10 35.88 39.57 37.02 36.40 32.55 28.66 31.19 26.34 34.23 37.00 37.80 39.58 41.48 43.25 44.06 46.32
47.13 47.15 46.82 42.69 39.32 39.87 40.96 41.19 38.58 22.69 16.42 31.14 37.78 35.96 35.67 38.29 41.72 43.99 41.16 43.13 42.65 37.93 36.48 35.11 38.68 38.31 37.35 38.85 38.98 39.32 35.63 35.27 34.11 31.22 24.91 30.95 28.97 31.96 32.23 36.90 39.40 42.82 45.18 49.04 49.18
46.57 46.47 44.43 43.77 35.08 40.03 40.33 36.89 20.20 17.52 31.43 29.69 30.68 33.50 33.96 33.61 35.56 39.78 39.23 35.88 34.73 31.33 30.91 35.73 36.27 37.48 39.69 34.96 37.35 35.01 31.10 23.49 22.29 22.84 24.43 32.29 29.34 32.99 36.98 40.32 42.12 45.58 47.71 49.49 50.52
46.38 46.33 42.97 41.64 39.43 39.58 36.96 28.02 16.68 25.43 27.49 33.61 31.21 31.93 29.68 31.99 32.33 32.81 36.37 33.03 37.37 36.68 32.44 29.53 27.20 35.29 38.35 35.80 33.82 32.39 31.27 24.44 19.48 20.28 24.30 32.16 26.22 31.40 40.52 42.73 46.67 48.03 48.58 49.70 50.38
44.29 36.85 35.66 37.86 38.93 38.48 30.65 19.52 20.57 24.65 30.11 28.27 29.34 26.93 28.09 30.85 30.26 30.89 29.74 29.88 32.82 36.34 31.40 29.75 30.28 37.97 38.18 38.47 37.39 33.05 28.56 33.78 27.02 27.27 25.30 27.34 31.30 36.63 40.47 42.93 45.30 46.16 48.11 47.97 48.80
35.25 33.16 32.89 38.48 39.74 36.32 28.76 22.60 24.67 31.13 30.86 29.89 22.47 27.65 22.30 25.53 26.65 28.67 29.24 32.77 31.91 35.02 35.78 33.87 26.48 33.67 36.01 38.38 37.71 35.59 37.02 26.73 27.54 21.66 20.48 24.22 26.18 28.82 35.98 39.94 43.37 43.52 46.10 47.35 47.52
32.76 27.57 33.96 39.16 39.33 32.72 19.63 23.26 27.89 32.59 32.80 28.69 26.41 25.00 25.36 24.26 27.06 26.85 28.95 33.20 34.62 34.02 34.32 31.81 29.06 28.78 33.53 31.10 29.48 31.63 31.04 31.51 31.34 27.46 22.75 20.85 23.99 37.37 39.49 42.08 41.67 43.25 45.56 46.43 47.06
32.10 16.63 36.55 43.09 26.45 30.17 23.05 27.96 33.30 31.21 33.97 31.10 31.23 28.74 26.31 26.34 25.18 26.02 27.49 30.35 36.06 35.00 30.79 33.39 27.93 22.86 25.94 32.58 34.24 34.42 33.33 33.31 27.97 26.27 28.11 26.61 25.21 38.36 39.20 43.79 44.19 45.03 45.90 47.14 48.76
23.99 28.00 36.11 34.13 12.45 14.77 27.78 29.27 30.51 28.74 31.00 30.61 29.36 30.83 30.96 27.05 23.58 27.06 29.71 35.44 35.70 33.98 31.72 32.76 27.13 20.95 23.03 28.43 32.51 31.06 32.04 32.19 33.09 32.90 26.66 25.60 25.95 39.51 40.02 40.60 45.00 45.38 47.14 48.23 48.95
27.65 15.09 25.16 32.44 29.28 26.08 22.20 24.35 26.16 33.03 31.21 31.77 30.57 31.66 29.09 27.79 29.43 25.77 27.87 34.07 36.82 35.74 40.68 37.14 27.85 24.37 19.59 23.55 27.05 24.59 27.58 29.78 31.27 23.35 25.96 25.89 27.48 34.04 36.41 37.42 43.55 45.01 46.73 47.27 48.07
29.72 21.26 26.87 16.70 22.77 27.87 27.25 26.52 23.76 24.67 31.38 32.57 29.32 29.92 28.60 26.22 26.22 25.00 28.13 31.29 35.20 37.13 35.46 32.04 24.42 25.92 26.91 28.36 27.91 26.82 26.62 27.31 26.04 27.50 23.18 26.02 27.67 32.34 36.20 38.13 41.51 46.06 46.63 46.40 48.17
27.01 25.83 29.28 26.94 28.11 25.35 25.27 24.84 25.11 27.72 29.17 28.63 28.43 30.38 30.21 28.51 27.12 25.12 28.80 28.95 28.29 32.50 32.33 32.87 25.65 26.61 24.81 27.62 28.06 25.62 27.99 28.09 27.95 28.42 27.91 28.51 27.72 35.57 39.66 41.82 43.65 45.56 46.54 46.17 47.23
36.34 35.63 29.75 24.81 23.90 22.94 22.45 25.83 27.88 32.56 32.20 33.05 33.31 31.06 29.82 30.96 32.98 33.11 33.62 32.97 32.09 29.84 28.63 28.19 26.72 24.63 20.20 26.35 26.17 21.69 25.87 27.48 28.28 30.17 29.36 24.88 30.81 37.69 40.98 42.68 44.64 45.73 46.80 47.26 47.60

GFSSW_sfc_wetblb_114.txt.gz
Wetbulb
52.38 52.44 52.46 52.45 52.26 52.23 52.30 52.21 51.94 51.88 51.95 52.07 52.09 52.09 52.39 53.38 53.07 48.82 42.49 47.41 49.85 56.87 58.31 53.09 51.14 49.72 47.37 44.79 43.07 40.43 34.45 30.77 35.28 35.99 37.84 42.62 43.17 44.90 45.31 44.25 45.16 47.11 49.42 53.95 57.37
52.47 52.49 52.58 52.44 52.41 52.15 52.13 51.97 52.13 51.67 51.66 51.64 51.56 51.71 51.89 52.87 48.73 44.93 50.25 55.67 58.01 59.64 49.88 48.83 47.03 47.84 43.09 42.86 42.63 39.37 33.43 34.56 40.40 40.06 40.63 42.85 43.64 44.32 43.07 44.09 45.02 46.58 48.69 56.28 58.57
52.28 52.19 52.41 52.22 52.03 51.78 51.65 51.39 51.50 51.17 51.22 51.26 51.24 51.54 52.23 51.89 41.96 39.45 60.12 58.13 59.30 58.98 49.77 49.72 48.61 47.76 42.40 41.85 41.73 39.40 36.23 39.25 41.54 42.28 42.59 40.88 40.66 42.93 40.69 39.99 44.23 45.13 46.75 54.17 57.50
51.67 51.96 51.80 51.80 51.70 51.26 51.44 51.70 50.86 50.85 50.88 51.07 51.29 51.57 52.18 48.06 32.30 41.59 59.88 60.14 61.08 57.25 49.69 47.12 45.42 41.95 40.35 39.97 43.11 37.66 40.96 42.12 42.39 44.30 42.57 41.39 41.39 41.89 42.06 43.55 47.45 46.44 45.82 50.08 56.59
51.45 51.45 51.32 51.40 51.46 51.29 51.68 51.51 51.41 50.78 50.94 51.26 51.50 51.46 47.40 37.09 37.88 45.47 56.38 58.71 54.69 50.76 47.73 46.84 43.73 42.43 39.11 40.13 41.42 40.57 42.17 44.13 45.38 45.67 44.70 44.68 43.05 43.66 41.08 45.10 46.62 46.77 47.39 47.15 53.18
50.86 50.73 50.86 50.92 50.80 50.59 51.34 51.03 50.98 51.07 50.83 51.28 51.52 50.69 43.41 32.36 42.53 45.65 45.60 46.29 49.50 49.48 46.77 48.13 46.37 45.91 43.26 42.33 41.79 43.41 42.95 43.40 43.72 43.90 44.16 43.44 43.26 41.54 44.48 46.53 46.41 46.71 47.15 47.56 50.73
50.28 50.13 50.05 50.41 50.41 50.26 51.05 50.75 50.67 51.01 51.15 52.01 51.85 48.21 43.17 36.42 43.94 45.43 47.10 45.79 45.01 47.35 43.88 44.24 43.89 42.00 41.58 39.89 43.28 42.06 38.58 39.58 40.43 42.33 42.18 42.30 39.09 39.80 45.07 45.07 44.94 47.09 47.43 47.85 48.35
49.24 48.95 49.20 49.83 50.03 50.59 50.86 50.31 50.56 51.32 52.22 51.79 51.28 46.14 37.48 48.00 47.03 47.68 45.91 46.44 48.26 47.28 45.18 44.73 44.22 40.84 38.74 41.27 40.03 37.40 36.92 33.28 40.37 41.09 43.08 42.72 37.10 42.76 44.52 43.38 43.36 44.68 45.70 46.41 47.20
48.72 48.72 49.09 49.69 49.86 50.09 50.18 50.07 50.27 50.90 51.25 51.62 45.94 42.54 35.98 50.32 47.38 50.30 48.95 47.56 48.74 46.56 44.09 46.20 41.91 38.09 37.12 34.43 32.78 33.30 31.29 32.79 35.99 41.55 40.05 39.80 38.02 38.72 41.19 41.58 41.03 42.82 43.61 44.67 45.86
48.46 48.26 48.38 49.14 49.55 49.31 49.24 49.36 48.81 49.28 49.03 50.08 48.61 39.51 42.02 42.12 47.75 47.86 47.35 49.21 43.77 44.23 42.64 39.36 36.22 32.36 30.63 31.78 27.49 31.03 30.61 31.41 30.99 35.64 37.07 36.06 35.02 36.69 38.27 39.13 40.11 40.61 41.48 42.52 43.54
48.20 48.18 48.14 48.49 48.79 49.11 45.87 39.53 36.84 36.13 37.95 34.18 35.99 38.58 41.74 45.42 46.50 44.45 46.54 44.76 42.47 41.67 36.14 39.61 31.72 27.06 30.38 35.61 37.04 33.28 31.54 29.85 30.24 36.24 34.30 35.04 33.75 34.07 37.16 37.26 38.41 39.81 40.14 41.73 44.37
48.01 48.04 47.63 47.57 48.73 47.91 39.77 36.51 36.83 36.96 31.46 38.90 39.09 38.88 41.71 43.43 36.81 40.84 44.76 39.28 39.14 34.90 37.81 34.37 30.85 34.86 35.65 35.93 34.64 32.75 30.08 31.01 32.72 35.65 34.37 31.41 32.63 35.98 37.70 38.43 39.82 40.18 40.91 42.18 44.02
47.72 47.70 47.60 47.89 47.98 40.83 36.28 37.29 41.13 39.36 32.24 35.12 39.91 38.97 40.17 41.98 36.46 37.83 41.77 39.22 36.25 34.15 34.71 32.80 33.59 38.38 37.23 34.33 32.23 30.20 28.91 28.79 30.67 33.63 34.02 31.55 31.90 34.21 38.10 38.90 41.69 42.63 42.93 43.59 43.80
47.50 47.32 47.39 47.85 39.79 38.95 34.77 40.62 40.91 39.64 25.97 29.13 35.79 40.39 41.17 40.70 35.93 42.26 42.08 39.17 36.22 32.49 34.49 34.08 36.53 35.64 37.27 35.66 36.16 31.78 35.48 35.60 34.66 29.73 25.87 33.92 24.98 33.07 36.62 37.25 39.25 40.97 40.66 40.64 41.64
46.94 47.10 46.74 46.24 37.80 35.26 38.92 41.01 41.31 38.38 15.15 32.49 37.08 42.97 41.37 39.02 39.78 41.78 41.75 39.16 33.14 35.01 35.89 31.44 34.38 34.22 33.14 35.29 38.82 33.92 37.61 35.40 34.16 30.96 27.72 28.51 26.61 29.91 36.01 35.73 37.11 39.58 40.66 42.57 47.36
46.76 46.57 46.40 40.57 37.84 38.22 39.92 39.84 36.27 22.29 16.59 28.03 35.74 33.16 33.06 36.13 37.20 39.68 39.40 40.94 39.61 34.97 36.59 33.95 37.24 37.09 37.01 39.32 39.47 39.22 34.99 33.90 32.32 29.10 22.71 29.31 28.01 29.63 30.86 34.90 37.09 41.04 45.45 47.48 47.45
46.17 46.47 43.91 42.39 32.13 38.37 38.17 34.14 19.94 16.37 28.87 26.40 28.16 31.16 30.99 30.74 32.97 33.87 33.69 34.36 32.64 29.57 29.14 34.16 34.92 37.43 39.13 34.88 36.07 33.31 30.08 23.59 22.00 22.81 21.71 31.18 27.94 31.77 35.59 38.23 42.57 44.05 45.82 47.15 47.35
45.99 45.00 40.15 40.83 38.53 37.80 35.15 25.77 14.89 23.82 24.11 30.76 28.82 29.64 27.75 29.21 29.39 31.32 30.30 27.57 32.96 31.59 30.78 28.62 26.43 33.65 37.24 35.59 33.14 31.33 30.77 24.73 19.52 19.68 22.37 30.77 24.21 30.27 37.73 41.69 44.04 46.01 47.07 47.67 47.25
44.20 35.08 34.11 36.31 38.15 36.75 28.88 17.25 19.32 23.38 28.20 26.67 27.14 23.69 24.89 28.23 27.67 28.50 27.78 27.36 30.75 31.62 24.91 28.10 29.40 36.93 37.21 37.79 37.08 32.67 29.16 33.47 26.70 25.68 23.49 25.09 29.02 34.66 39.07 40.63 43.06 43.07 45.49 45.60 46.07
34.30 30.93 31.22 37.35 38.12 34.14 23.18 21.59 23.79 29.68 29.81 28.79 21.78 25.69 21.18 23.25 23.36 24.75 26.59 31.95 30.38 33.14 33.27 30.76 26.61 33.13 35.76 39.09 36.41 35.04 36.85 27.74 27.89 21.96 20.38 22.48 24.75 27.06 36.48 39.03 41.65 41.72 42.91 43.87 45.23
31.47 25.80 33.19 38.62 37.70 30.53 14.85 21.82 26.28 31.46 31.89 28.26 25.60 24.27 24.32 23.32 24.27 23.43 26.10 31.23 33.70 32.65 33.93 31.35 27.52 28.87 32.06 30.54 29.61 31.56 30.34 31.65 31.55 28.33 22.75 20.88 23.25 36.15 34.54 40.36 41.08 42.11 43.82 44.21 44.98
29.15 15.42 33.94 38.28 28.48 27.58 22.54 26.76 32.33 30.01 32.16 30.13 29.91 27.95 25.59 25.32 23.94 23.49 24.08 28.92 34.62 34.54 28.85 31.24 27.78 24.40 26.84 32.69 33.46 34.93 32.54 32.43 25.49 25.03 27.49 26.21 25.15 37.79 34.57 36.57 39.30 43.42 45.78 46.65 47.30
24.54 25.59 33.81 36.03 11.28 13.28 24.13 28.05 29.62 27.92 27.56 29.72 28.42 29.84 29.30 25.99 22.85 26.28 27.17 33.38 34.26 33.10 31.07 32.73 27.49 20.68 23.36 28.88 31.51 29.56 29.95 32.05 31.50 29.52 24.34 21.03 24.28 37.52 36.74 36.75 37.28 43.19 44.19 46.60 47.52
23.25 15.39 23.77 30.71 27.29 26.03 23.70 23.50 25.33 31.04 29.12 30.44 29.27 30.20 27.48 25.73 27.91 25.53 27.18 32.16 35.06 34.55 38.99 36.62 28.73 24.47 19.45 24.09 28.25 25.78 27.58 28.37 28.71 20.79 22.74 24.81 25.86 30.72 32.43 34.43 35.74 38.13 43.70 45.88 47.78
27.41 19.05 26.66 18.82 20.74 26.68 26.18 25.11 22.42 22.80 29.94 31.13 27.98 28.49 27.49 25.22 25.89 25.73 28.63 28.83 32.59 36.01 33.93 32.62 24.40 26.51 26.40 27.94 27.46 26.11 25.93 26.25 24.64 25.85 21.53 24.58 24.08 29.16 31.93 34.04 35.41 38.01 43.91 45.81 46.04
26.84 22.31 29.43 26.41 27.78 24.91 24.46 23.30 23.11 24.58 28.31 26.69 27.64 29.29 30.36 27.19 27.10 26.54 28.82 28.72 27.00 30.61 28.72 31.59 24.73 26.15 24.28 27.52 27.05 24.94 26.03 26.33 26.42 26.89 25.75 26.73 25.95 33.34 34.97 35.92 35.64 40.08 44.29 45.61 46.24
30.88 32.03 28.60 23.99 23.58 22.49 21.55 23.72 25.76 28.50 31.29 32.13 31.50 29.74 28.98 31.13 32.88 33.76 33.06 32.09 31.13 28.98 27.72 27.21 25.46 24.19 19.62 25.16 25.09 20.19 24.93 25.77 26.51 28.20 27.59 23.38 28.85 32.51 32.74 35.45 41.37 43.18 45.71 45.93 46.89

GFSSW_sfc_wetblb_120.txt.gz
Wetbulb
52.60 52.71 52.78 52.67 52.52 52.57 52.75 52.64 52.34 51.99 52.25 52.47 52.78 52.94 53.31 53.71 53.09 51.39 48.06 51.83 54.01 58.28 56.31 56.80 56.28 55.57 55.80 53.79 53.99 53.08 46.78 45.41 46.59 45.96 47.85 49.73 49.05 52.19 53.23 51.81 52.00 53.37 54.13 56.08 59.00
52.25 52.50 52.44 52.31 51.98 51.95 52.05 52.01 51.93 51.86 51.91 52.25 52.51 52.82 53.21 53.30 51.07 48.04 55.42 57.22 56.68 58.76 54.05 52.88 51.71 53.77 51.96 52.20 52.30 49.54 46.85 47.11 50.48 49.98 48.53 49.17 49.99 50.87 50.12 50.49 51.23 53.13 55.91 57.70 57.93
51.87 51.75 51.84 51.64 51.43 51.44 51.48 51.51 51.42 51.67 51.97 52.32 52.42 52.67 53.03 53.13 47.33 44.72 57.76 58.48 58.43 58.09 54.56 54.55 53.12 52.27 49.05 51.46 50.60 49.45 46.40 50.31 49.11 49.75 50.46 49.38 49.38 51.28 49.54 48.44 51.24 51.65 54.10 56.23 57.26
51.28 51.07 50.68 50.57 50.62 50.55 50.73 50.51 51.04 51.32 51.85 52.16 52.50 52.71 52.58 51.02 38.96 52.77 55.97 59.62 58.99 57.66 55.05 52.48 51.23 48.65 46.86 46.55 50.20 46.28 49.14 49.51 49.92 50.44 49.80 49.09 51.08 49.72 50.70 51.40 54.13 54.97 55.96 56.17 56.13
50.05 49.96 50.07 50.05 50.06 49.95 49.94 50.19 50.60 50.96 51.61 51.97 52.46 52.50 51.17 43.79 42.73 49.04 54.01 55.69 58.08 56.45 52.79 51.45 49.75 49.05 46.20 47.62 48.82 47.32 48.29 49.81 50.38 50.46 50.56 51.09 49.74 49.88 50.98 53.68 54.66 54.93 55.57 55.54 56.38
49.60 49.60 49.44 49.77 49.75 49.58 49.57 49.91 50.64 50.77 51.23 51.95 53.16 51.76 48.67 40.05 46.57 49.60 50.12 50.13 52.53 53.12 51.40 52.12 49.78 51.17 48.43 47.74 46.93 48.98 48.61 48.90 49.80 49.55 50.00 48.42 49.06 50.53 51.92 54.39 53.75 54.13 54.79 55.89 56.01
49.32 49.23 49.14 49.53 49.21 49.01 49.23 49.51 50.01 50.47 51.25 52.75 52.98 51.75 46.95 44.90 48.91 50.39 50.11 48.02 48.20 50.36 50.26 51.02 52.12 49.65 48.56 46.43 49.38 48.27 45.19 47.15 48.37 49.32 49.14 50.84 47.64 48.34 52.68 53.65 52.96 53.01 53.73 54.51 54.39
49.27 49.03 49.04 49.00 48.85 48.81 49.36 50.24 50.40 50.39 51.76 51.60 53.02 50.69 44.56 51.07 52.57 52.26 53.76 52.03 53.82 52.18 48.96 51.28 51.63 49.37 48.04 48.65 46.02 43.85 45.20 41.64 46.96 48.05 48.89 48.98 43.69 49.43 52.51 51.42 51.32 50.61 50.32 51.11 52.73
48.95 49.04 48.87 49.16 49.27 49.27 49.70 49.71 49.32 50.24 51.89 52.29 50.91 48.23 43.62 51.93 49.17 51.08 52.71 49.33 49.88 52.33 49.88 49.57 49.80 45.96 45.62 41.43 39.88 41.72 38.22 41.07 43.15 47.62 47.80 47.25 45.20 49.12 51.57 49.39 48.80 49.23 49.60 50.12 51.64
48.69 48.59 48.33 48.19 48.65 49.20 48.69 47.89 47.80 50.92 50.74 51.67 51.38 44.22 46.63 41.79 45.37 46.89 49.05 48.87 47.22 47.41 47.21 45.59 45.03 42.30 42.13 40.47 33.76 36.86 37.85 39.49 40.56 45.49 46.40 45.50 45.55 48.33 49.10 48.85 48.56 48.08 47.96 49.70 50.65
48.16 48.21 47.79 47.73 48.08 48.44 47.98 48.93 44.41 44.73 43.48 39.31 39.78 39.07 42.20 46.73 48.63 46.07 47.90 46.27 46.92 45.03 41.67 43.57 38.84 37.15 39.87 41.50 40.93 39.85 38.95 38.52 41.80 44.34 43.35 43.35 44.26 45.81 47.65 47.40 46.02 46.43 48.81 50.07 51.40
47.80 47.38 47.51 47.39 47.59 46.89 47.96 42.03 39.44 41.67 36.82 41.10 41.53 41.82 44.64 45.82 41.25 44.77 47.52 41.21 41.01 38.85 42.21 41.45 36.89 40.28 41.44 41.26 39.74 39.04 37.26 37.46 40.28 42.76 41.75 41.92 41.79 44.67 45.38 46.12 47.46 47.97 48.96 50.31 50.73
47.06 47.10 47.13 46.78 46.21 46.94 44.18 41.21 45.19 44.75 37.35 38.97 41.87 42.00 41.73 44.29 41.35 41.61 45.16 43.04 40.45 38.91 39.24 38.09 40.25 43.00 41.57 39.98 38.01 38.60 37.27 37.23 36.59 39.68 40.48 39.79 38.87 41.74 45.37 46.99 47.79 49.00 49.74 49.79 51.83
46.63 46.70 46.70 46.10 43.64 44.19 42.44 44.82 46.27 46.25 35.57 34.00 39.70 40.33 41.27 42.37 39.23 44.62 46.28 43.04 41.58 37.66 39.13 39.22 42.10 40.34 39.19 38.14 39.81 35.81 40.83 38.83 36.75 35.54 33.19 41.18 33.70 40.49 43.34 44.04 46.19 47.15 48.24 52.04 54.21
46.42 46.36 46.20 45.23 43.43 41.70 42.74 45.62 46.73 44.61 26.04 35.27 37.54 43.85 41.18 38.38 39.56 39.96 46.45 42.98 38.85 38.88 39.34 37.10 38.01 37.85 36.57 38.38 39.50 37.55 40.61 38.46 37.60 37.17 36.73 37.89 35.32 39.42 42.28 42.09 43.77 46.99 50.82 53.05 54.74
45.73 45.91 45.32 44.45 45.50 43.86 46.21 46.08 45.16 32.27 24.07 31.26 36.19 34.61 35.08 37.44 37.49 39.88 40.75 44.04 43.49 39.01 40.76 39.94 43.75 39.79 39.07 39.88 40.02 41.14 38.78 39.13 39.07 37.60 31.47 36.85 36.42 37.38 39.96 41.90 43.47 49.15 51.03 52.27 52.63
45.54 44.99 43.67 45.12 40.94 46.05 46.18 43.51 31.30 27.18 32.93 29.44 30.27 33.71 33.16 33.00 34.16 35.34 34.65 36.03 34.22 31.20 34.23 38.33 39.66 41.45 41.40 37.39 40.59 38.53 35.48 29.32 27.04 28.48 28.80 37.81 35.20 37.70 42.40 45.19 47.67 48.39 49.74 51.01 52.63
45.04 42.31 42.33 44.53 46.32 46.69 44.67 35.15 24.65 27.12 28.18 33.26 32.28 32.25 29.71 32.30 32.38 33.20 32.89 31.54 36.39 35.34 32.81 31.14 31.08 37.87 39.19 37.01 35.68 36.17 35.87 28.92 22.10 26.38 30.92 36.97 32.17 37.84 46.66 48.07 48.48 48.53 48.86 50.46 51.95
42.36 44.78 44.53 45.72 47.15 45.80 38.59 30.05 26.70 27.64 30.32 29.56 31.11 27.94 28.48 31.25 31.17 31.55 31.73 31.40 34.78 36.34 29.75 30.18 31.10 40.46 40.57 40.97 38.49 35.13 32.71 39.63 32.26 32.89 29.53 34.35 38.38 43.37 45.34 44.16 45.10 46.01 47.43 49.62 51.33
42.07 42.62 41.66 45.72 47.49 43.14 36.23 26.15 28.96 32.01 32.40 31.51 25.29 28.40 25.65 28.70 28.56 29.91 29.82 33.43 32.83 36.40 37.84 33.81 27.88 36.65 37.72 40.82 41.73 37.52 39.76 31.34 32.77 24.22 24.16 31.55 33.86 35.58 39.95 39.83 40.51 40.82 42.05 45.48 49.27
41.34 38.01 41.84 45.70 46.28 38.90 29.36 28.18 29.41 33.47 33.07 29.08 27.64 27.01 28.17 27.66 28.79 28.57 28.62 33.17 35.15 35.47 37.40 35.47 32.73 32.74 37.36 33.02 31.49 34.80 34.42 34.39 34.87 33.11 27.05 27.10 32.15 43.40 41.66 41.35 39.89 41.17 41.89 43.72 46.79
39.75 33.24 42.28 44.67 35.16 35.48 30.78 29.59 31.24 31.03 33.75 31.27 32.10 30.88 29.11 29.67 28.24 28.48 28.07 32.13 37.23 36.67 32.53 35.83 32.84 28.16 32.02 37.76 38.64 36.51 34.05 34.56 30.62 29.44 33.69 33.02 32.56 44.30 44.57 42.98 41.46 41.74 42.42 43.85 45.22
36.18 35.77 43.24 42.13 29.37 29.81 29.50 29.24 30.75 30.19 30.74 30.11 29.14 31.70 32.72 29.17 25.05 29.18 30.80 35.92 36.96 35.46 33.26 35.34 30.48 24.95 28.66 34.10 36.06 31.16 33.89 34.16 32.79 33.63 31.24 29.12 32.91 45.30 45.12 43.20 42.98 42.09 42.69 43.67 44.46
36.86 30.66 35.59 37.65 36.75 30.57 24.65 25.25 26.33 31.80 30.65 31.13 30.84 33.39 31.14 29.25 31.81 28.47 30.26 34.54 37.10 36.36 37.18 36.93 31.61 27.71 23.91 25.84 30.83 28.41 29.44 32.67 31.89 27.86 29.83 32.84 35.10 38.59 39.70 39.99 40.91 41.79 42.69 43.74 44.54
36.47 31.17 33.13 28.86 30.61 30.30 29.65 27.87 21.53 26.13 31.26 33.10 30.85 30.90 29.99 26.36 28.47 28.20 31.89 32.98 36.06 36.97 36.92 35.36 27.68 30.24 30.69 31.91 31.86 29.95 30.10 31.28 29.55 31.26 28.21 32.40 33.16 36.29 38.80 39.71 40.46 41.44 42.30 43.04 44.47
33.58 33.38 35.14 32.04 30.26 29.07 27.80 27.11 26.33 28.27 27.70 28.70 28.47 31.08 31.81 27.93 29.19 28.62 30.65 31.59 31.74 35.21 33.97 35.54 27.96 30.26 27.56 31.14 31.41 29.16 31.33 32.04 32.51 32.94 33.12 33.63 33.26 39.80 40.59 40.49 40.11 41.10 41.86 43.01 45.87
39.61 38.83 36.52 29.20 28.86 29.17 28.69 27.33 27.28 30.58 32.11 32.92 32.28 31.35 30.30 31.67 34.61 35.97 36.77 36.26 35.02 33.53 33.01 32.33 29.85 27.22 23.15 29.25 28.99 24.43 29.76 31.11 32.45 34.35 33.87 30.25 35.65 39.16 38.17 38.94 40.52 41.57 42.67 45.58 47.99

GFSSW_sfc_wetblb_123.txt.gz
Wetbulb
52.66 52.52 52.45 52.53 52.26 52.27 52.37 52.41 52.29 52.39 52.49 52.88 53.31 53.57 53.92 54.28 53.65 53.64 49.74 52.95 54.99 57.96 56.32 53.30 56.29 55.13 55.84 53.94 55.43 56.03 48.73 46.96 48.60 49.05 50.15 53.39 50.39 53.61 54.91 53.08 53.89 55.50 55.54 58.50 59.14
52.23 52.23 52.36 51.99 51.67 51.58 51.72 51.78 51.59 51.91 52.19 52.80 53.15 53.44 53.62 53.95 52.81 50.62 57.31 58.79 58.52 57.36 52.67 50.63 52.22 53.43 52.41 53.21 54.11 51.80 48.85 48.73 52.46 52.94 51.87 52.41 51.06 52.45 51.76 52.15 52.47 54.00 56.57 57.84 58.40
51.96 51.70 51.23 51.23 51.05 50.93 51.03 50.92 51.09 51.45 51.88 52.44 52.87 53.31 53.77 53.57 50.29 50.66 57.87 58.35 58.66 57.61 55.85 54.79 54.17 52.81 50.60 52.69 52.69 52.20 48.03 51.92 52.58 53.61 53.11 51.97 51.67 52.97 51.93 50.51 52.60 52.26 54.36 57.00 57.97
50.71 50.44 50.70 50.55 50.68 50.59 50.35 50.23 50.81 51.35 51.64 52.25 52.75 53.25 53.65 53.42 42.77 55.17 56.66 59.13 57.50 57.74 57.00 54.21 52.25 49.89 48.93 48.41 51.73 49.16 51.54 51.86 52.30 53.26 51.86 50.75 52.85 51.53 52.06 52.31 54.88 55.48 56.20 56.49 57.03
49.81 50.05 50.13 50.50 50.60 50.18 49.81 49.91 50.30 50.91 51.44 52.11 52.73 53.51 53.29 47.89 47.15 52.42 55.27 55.97 55.69 54.92 53.98 53.04 50.92 50.21 47.84 49.42 50.11 49.09 50.30 51.50 52.26 51.93 51.82 52.26 50.89 51.33 52.30 54.83 55.63 56.05 56.17 56.30 56.88
49.79 49.74 49.83 50.12 49.94 49.64 49.76 50.06 50.34 50.83 51.16 52.01 53.06 53.24 51.55 43.89 50.20 51.03 50.10 49.46 50.33 52.97 51.34 53.06 51.59 52.62 50.25 49.69 48.91 50.68 50.26 50.57 51.27 51.05 51.50 49.76 50.18 51.27 52.64 55.09 54.80 54.92 55.72 56.43 57.06
49.59 49.48 49.70 49.87 49.46 49.40 49.80 50.12 50.68 50.61 51.16 52.32 53.50 53.46 49.10 47.26 53.93 53.21 51.57 50.58 49.90 48.35 48.63 51.61 52.29 51.02 50.56 48.19 51.35 49.85 47.07 48.84 49.51 50.62 50.11 51.52 48.42 48.82 52.77 54.08 53.65 54.44 55.33 56.29 56.78
49.44 49.40 49.42 49.21 49.06 49.04 49.71 50.39 50.35 50.42 51.42 52.33 53.15 53.25 46.36 53.12 53.51 53.40 54.71 53.75 53.73 54.21 51.66 49.11 51.01 49.93 48.93 50.82 48.83 46.16 46.69 42.94 48.22 49.21 49.68 49.50 44.13 50.70 53.78 53.56 53.17 54.11 55.10 55.17 55.95
49.16 49.17 49.02 49.24 49.41 49.42 49.66 49.71 50.43 50.41 52.13 52.77 53.72 51.36 45.35 51.21 49.10 50.52 50.43 47.08 49.07 51.55 53.83 50.95 48.78 47.10 47.38 43.56 42.09 44.01 39.69 42.40 44.88 49.50 49.09 48.24 45.41 50.26 52.77 52.73 52.26 53.34 53.67 53.45 53.78
48.88 48.88 48.30 48.46 48.90 48.92 48.93 48.80 49.73 51.18 52.75 53.36 52.33 46.09 47.96 44.37 49.12 49.89 51.96 49.32 47.74 48.30 49.07 46.81 45.28 43.48 43.39 41.38 35.55 37.75 38.92 41.39 41.54 44.81 46.98 45.72 46.44 49.53 51.84 51.71 51.81 51.57 52.04 51.69 51.61
48.22 47.98 47.84 47.96 48.24 48.82 49.18 50.85 46.88 46.84 46.83 41.87 42.28 42.55 44.29 48.21 50.71 48.01 50.06 48.51 47.76 46.99 42.59 46.58 40.58 38.29 41.42 43.33 42.46 41.13 39.94 38.90 42.33 44.93 43.72 44.34 45.19 47.35 50.06 50.95 50.37 50.88 51.16 50.77 51.21
47.25 47.50 47.54 47.38 47.40 48.58 51.11 45.05 42.92 44.85 41.23 44.52 44.49 45.08 45.78 47.47 44.60 46.07 50.15 45.35 44.52 40.61 44.03 42.39 40.09 43.35 43.69 43.24 42.27 41.64 39.45 39.15 41.60 42.95 41.87 42.06 42.48 45.46 47.27 48.96 49.60 49.80 49.67 49.81 51.48
46.89 47.07 47.14 46.93 47.20 48.79 46.15 44.03 47.74 47.86 42.27 41.62 44.82 42.70 42.83 44.62 42.39 42.71 45.92 45.11 43.56 41.81 42.00 39.70 41.77 44.71 42.89 42.01 39.62 39.88 38.98 39.11 38.30 40.79 42.07 41.49 39.87 41.78 44.63 46.53 48.19 49.22 49.75 50.79 51.57
46.37 46.52 46.69 46.27 43.89 48.28 45.74 46.94 49.14 49.27 39.91 37.29 42.03 42.60 42.32 43.65 40.85 44.73 45.42 44.27 42.80 40.97 42.14 41.26 43.91 42.28 41.61 39.93 41.61 37.90 42.40 40.40 38.88 37.78 33.87 41.67 32.78 39.95 42.70 44.53 46.45 48.14 49.36 50.75 52.71
45.81 46.16 46.17 46.01 46.72 45.46 45.20 48.62 49.92 48.22 29.13 37.51 39.71 45.44 42.66 39.24 40.64 41.22 44.91 43.13 39.34 39.62 41.34 38.94 41.45 40.66 39.46 40.50 42.12 39.35 43.06 40.71 39.71 37.43 37.53 37.43 35.30 39.23 43.62 42.82 44.50 47.08 49.18 52.25 54.62
45.64 45.82 45.48 47.56 48.75 47.46 48.95 49.18 48.32 36.97 26.58 34.41 38.04 36.87 37.23 38.84 39.13 40.42 40.58 42.71 42.29 39.55 40.45 39.85 44.42 43.74 42.90 42.65 42.68 43.62 41.08 40.00 39.12 36.70 29.54 35.99 36.24 37.54 40.50 43.40 45.31 47.53 51.14 53.21 53.79
45.56 45.10 45.77 48.33 45.44 49.52 49.80 46.65 35.46 29.92 35.41 32.73 33.45 36.13 35.25 35.47 36.45 36.86 36.44 36.10 34.61 32.56 33.58 37.55 39.35 43.32 44.54 40.79 42.90 40.66 36.32 28.11 26.10 26.88 28.45 38.11 35.66 38.05 42.90 45.18 46.60 48.23 51.20 52.00 53.47
45.03 43.50 45.01 48.24 50.07 49.94 47.23 39.35 28.54 31.60 32.03 36.20 34.98 35.10 32.68 34.90 34.90 35.79 35.34 33.84 37.14 36.05 33.75 31.47 30.18 39.52 43.58 40.81 38.74 38.91 37.26 28.72 22.37 26.05 31.12 37.96 32.73 38.54 44.18 49.08 50.72 51.47 51.48 52.21 52.78
43.90 47.50 49.10 47.96 49.76 49.00 42.64 33.90 30.81 31.60 33.27 32.22 34.19 31.51 32.12 34.11 34.09 34.65 34.34 33.67 35.41 37.18 31.41 30.37 31.19 39.48 41.54 42.97 42.40 38.18 34.58 39.40 32.02 33.87 29.90 34.94 38.95 44.00 47.12 47.16 48.00 48.95 49.78 50.24 51.29
45.55 45.22 43.95 48.51 49.32 46.66 39.71 29.45 32.66 34.61 34.64 34.11 28.65 31.53 28.80 31.51 31.44 32.54 32.41 35.28 34.29 36.87 38.49 34.35 28.28 36.93 38.36 42.46 41.54 38.48 41.54 31.43 31.85 24.17 23.43 31.96 33.64 36.25 41.96 43.05 45.71 45.31 45.12 46.25 48.07
43.48 40.97 44.34 48.30 48.61 43.29 34.98 32.39 32.85 35.78 34.95 31.54 30.53 29.94 30.85 30.37 32.14 31.11 31.42 34.86 36.57 36.19 38.19 36.16 32.65 31.84 36.64 35.06 35.00 34.30 34.45 36.28 35.57 32.66 27.50 26.54 31.15 42.27 43.45 42.84 42.50 43.02 43.61 44.95 45.32
42.86 38.10 44.82 47.53 39.98 40.52 35.01 32.98 31.30 33.56 36.03 33.71 33.86 33.01 31.80 32.11 30.50 30.49 30.38 33.57 37.85 37.41 33.14 36.30 32.41 27.78 31.10 37.84 40.24 37.72 35.31 33.68 31.43 29.58 33.04 32.83 32.56 43.88 45.22 44.58 44.92 43.95 44.02 44.83 45.75
40.88 39.22 46.53 45.71 34.90 34.29 33.76 32.69 33.50 32.91 33.11 32.40 31.51 33.59 34.69 31.46 27.83 31.35 32.33 36.92 37.75 36.57 33.97 35.78 30.95 24.68 27.72 34.02 38.54 33.69 34.08 34.30 33.74 32.79 28.56 28.91 31.68 44.31 44.60 45.02 45.00 42.97 43.51 44.40 45.58
41.45 34.92 40.38 42.02 40.38 34.94 29.91 29.89 29.50 33.84 32.49 33.42 33.08 35.01 33.29 31.29 34.05 30.16 31.79 35.46 37.88 37.89 39.38 37.40 31.87 28.60 24.06 27.91 30.25 29.43 31.14 33.55 31.94 27.63 30.04 31.30 33.32 38.09 39.78 43.00 41.89 42.42 43.66 44.43 44.98
40.50 36.63 37.95 33.41 35.15 34.47 33.44 31.17 28.52 28.50 33.76 35.54 32.67 32.50 31.34 27.76 29.94 29.54 31.78 34.01 36.95 38.71 38.11 36.17 27.80 30.79 31.75 33.09 32.80 32.20 31.58 32.42 30.05 31.14 28.20 33.30 34.06 36.80 41.04 41.03 42.10 42.73 43.07 43.40 44.05
35.99 37.30 38.88 35.77 34.79 33.30 29.25 30.45 29.14 30.86 28.25 30.39 30.63 32.82 33.57 29.91 30.55 28.18 31.58 32.38 31.55 36.02 35.34 36.17 27.92 31.08 27.95 32.10 32.71 30.22 32.18 33.00 33.36 32.69 33.06 34.32 34.61 41.18 42.52 42.62 41.53 41.92 42.53 43.15 43.97
43.11 42.78 41.87 32.40 33.33 32.83 32.40 30.57 30.07 31.36 34.12 34.93 34.17 33.44 32.07 34.03 36.44 37.52 38.26 37.74 36.69 34.53 33.48 33.09 30.80 28.27 24.10 30.52 30.44 26.08 31.09 32.68 33.60 34.96 34.21 30.24 35.95 40.49 39.16 39.92 41.02 42.82 43.92 44.42 44.73

GFSSW_sfc_wetblb_126.txt.gz
Wetbulb
52.72 52.71 52.76 52.67 52.13 52.04 52.10 52.16 52.16 52.12 52.42 52.85 53.37 53.85 54.28 54.77 54.07 52.67 49.66 54.79 55.11 59.34 55.84 51.23 50.47 54.56 55.40 54.18 55.40 55.21 47.41 45.08 46.60 47.68 49.52 53.46 52.24 53.51 54.32 52.22 53.12 55.90 55.72 58.18 59.85
52.07 52.33 52.04 51.64 51.58 51.37 51.32 51.28 51.29 51.61 52.08 52.42 52.90 53.60 54.33 54.50 51.55 50.25 57.44 60.21 60.01 56.92 51.78 50.04 47.80 51.34 50.78 50.86 51.80 50.33 47.07 46.87 50.83 51.56 51.06 52.76 53.23 51.87 51.60 51.57 51.88 54.04 56.40 58.53 58.63
51.78 51.49 51.20 51.27 51.29 51.29 51.18 50.91 50.97 51.21 51.70 52.10 52.74 53.37 54.05 53.82 50.27 51.05 58.99 59.74 58.60 57.15 55.07 54.64 53.08 50.61 49.20 50.73 50.51 50.32 46.39 50.03 51.13 52.78 53.28 52.15 52.19 53.66 50.97 49.66 52.21 51.94 54.21 56.27 57.10
50.69 50.50 50.72 50.66 50.95 50.94 50.49 50.52 50.80 51.14 51.78 52.14 52.76 53.20 54.57 53.08 42.87 53.57 59.18 59.37 58.98 55.63 54.13 53.44 52.56 48.83 47.60 47.03 50.52 47.07 50.49 51.41 51.76 52.87 52.11 50.91 52.78 51.40 51.53 51.70 54.74 54.91 55.43 55.94 56.08
49.79 50.14 50.17 50.39 50.66 50.19 50.18 50.29 50.94 51.35 51.49 52.09 52.43 53.18 52.77 48.84 49.04 51.23 56.71 57.31 54.11 53.52 50.48 50.48 50.18 49.54 46.24 47.93 48.97 47.82 49.21 50.49 51.77 52.27 51.89 52.21 50.38 50.60 51.14 53.99 55.36 55.30 55.58 55.83 56.35
49.97 50.20 49.97 50.24 50.01 49.91 50.14 50.56 50.86 50.97 51.11 51.79 52.43 53.37 50.11 43.29 53.33 52.61 51.14 50.39 49.28 48.53 49.09 50.71 49.65 51.39 49.23 48.60 47.98 49.75 49.60 49.59 50.60 50.65 51.30 49.71 50.09 50.56 51.62 54.04 54.22 54.92 55.29 56.02 56.52
49.90 49.90 49.92 49.88 49.62 49.56 49.71 50.37 50.88 51.01 51.30 52.08 53.02 53.18 48.51 46.27 53.24 54.00 52.15 51.68 52.78 51.17 46.38 48.07 50.29 48.29 49.66 47.38 50.65 49.47 46.56 48.60 49.13 49.77 49.32 50.74 47.30 47.98 51.84 52.79 52.32 53.30 54.40 55.40 56.02
49.71 49.43 49.56 49.31 49.05 49.11 49.27 50.37 50.72 50.90 51.77 53.07 53.00 52.16 46.42 53.67 52.58 51.85 52.89 50.17 51.50 53.55 52.09 52.47 50.43 46.24 46.08 48.17 46.35 44.80 45.73 41.59 47.14 48.66 49.48 48.93 43.21 49.15 52.48 52.16 51.55 52.48 53.46 54.68 55.89
49.00 49.15 49.05 48.75 48.81 49.12 49.74 50.11 50.39 51.34 52.46 53.05 52.42 52.09 46.36 52.89 50.28 51.03 51.22 48.01 49.38 49.21 49.41 52.29 51.08 45.51 43.79 41.49 40.31 42.07 38.22 40.75 43.52 48.62 48.09 47.46 44.46 48.88 51.38 51.11 51.24 52.58 53.35 54.02 55.17
48.77 48.49 48.18 48.25 48.82 48.86 49.14 50.09 52.24 49.86 51.49 54.14 53.14 46.27 49.06 44.43 48.62 50.26 51.47 50.42 47.71 47.16 46.68 47.30 46.51 40.72 40.59 38.92 33.70 37.30 38.47 40.63 40.92 45.13 45.73 44.16 44.31 47.62 50.01 49.86 50.71 52.00 52.97 53.67 54.15
48.20 47.77 47.77 47.99 48.42 48.75 48.67 51.07 46.44 47.06 48.31 43.04 43.48 43.68 44.90 48.23 51.62 48.16 50.01 49.59 48.34 45.71 41.16 44.73 41.56 37.76 39.62 41.56 41.66 40.74 39.47 38.63 42.19 44.73 42.82 41.42 42.73 45.81 48.09 49.48 49.20 51.13 52.03 51.66 52.76
47.35 47.35 47.47 47.54 47.55 48.78 49.88 45.09 43.37 44.64 40.49 45.01 45.07 46.18 45.62 46.97 43.84 45.26 47.79 43.95 44.29 41.18 44.14 41.41 38.09 43.08 44.64 43.47 41.44 40.60 39.19 39.26 42.24 43.87 42.52 41.09 41.23 44.16 45.57 46.40 47.55 46.75 50.62 50.95 52.10
46.61 46.96 47.21 46.97 47.12 48.21 46.31 44.33 48.48 48.56 40.82 43.44 45.74 44.59 43.06 44.39 41.61 43.24 44.53 42.33 40.71 40.00 41.23 39.37 41.34 44.33 42.67 41.86 40.50 40.39 38.47 38.97 38.29 41.56 42.82 40.90 38.67 41.19 44.18 45.66 46.86 47.04 48.10 51.19 50.12
46.43 46.37 46.80 46.65 44.49 47.52 46.62 47.50 49.24 49.66 38.42 38.18 41.76 43.69 42.90 42.86 40.40 44.94 44.99 41.61 39.16 37.78 39.45 39.55 43.44 41.91 40.82 39.83 40.93 37.00 41.75 41.11 39.80 38.08 33.24 40.73 31.07 38.87 41.80 42.67 44.94 45.83 46.43 48.79 51.24
45.79 46.18 46.32 45.89 47.16 45.81 46.22 49.11 49.49 48.06 28.83 38.65 40.62 45.43 42.90 39.35 39.80 41.03 44.72 41.69 36.57 36.72 37.18 35.71 37.77 38.22 37.74 39.88 42.08 38.89 42.68 40.74 40.27 37.91 36.67 37.10 34.01 37.49 41.62 40.74 43.28 45.28 46.99 48.99 51.69
45.66 46.01 46.04 47.39 49.01 48.59 49.48 49.48 47.99 36.13 26.68 35.24 39.05 37.76 37.72 38.81 39.29 41.37 40.75 43.33 41.97 37.51 37.87 37.10 41.57 40.26 39.11 40.99 42.12 43.42 40.09 39.75 39.87 37.18 29.59 35.09 34.59 34.86 38.57 41.12 44.42 46.95 48.48 50.95 53.61
45.45 45.49 44.91 47.83 45.87 50.25 50.14 46.33 35.08 29.69 36.89 34.07 34.77 36.84 36.07 35.64 36.97 38.06 36.83 36.40 34.44 31.15 31.56 35.69 36.87 40.09 40.96 38.54 42.41 41.36 36.92 29.13 26.48 27.26 26.86 36.66 33.80 36.22 42.00 44.25 46.36 46.28 48.94 52.52 53.18
45.36 44.45 47.56 48.37 50.13 50.45 46.99 38.91 28.85 33.20 33.56 37.45 35.52 35.51 33.73 35.35 35.46 35.99 35.31 33.86 37.30 35.42 31.83 29.37 27.99 36.94 42.24 40.27 37.65 38.10 34.91 29.42 21.84 23.65 28.89 37.05 31.03 36.39 44.50 45.73 49.04 49.02 51.54 52.08 52.43
44.39 47.06 48.02 49.07 49.58 48.58 42.04 32.53 31.25 33.03 34.57 33.18 34.57 32.65 33.16 35.22 35.02 34.59 34.41 33.51 35.40 35.95 29.48 28.45 28.90 37.55 38.44 40.03 39.88 36.93 33.67 39.22 31.90 33.40 28.70 31.81 37.53 42.66 45.23 45.61 48.55 49.47 50.42 50.61 51.95
44.91 46.10 44.49 48.79 49.71 46.80 39.32 31.24 34.06 35.78 35.37 34.59 29.16 32.68 29.25 31.62 31.54 32.58 32.71 36.09 34.81 36.99 37.74 32.98 26.04 34.76 36.35 38.22 39.30 38.06 40.11 31.09 32.28 23.25 22.00 29.22 32.40 34.85 40.58 43.49 46.79 47.32 48.10 50.00 50.48
43.21 41.34 45.19 48.73 49.06 42.88 34.83 33.17 34.17 36.99 35.77 32.29 31.24 30.28 31.09 30.43 32.05 31.17 31.48 34.84 36.67 35.77 37.37 34.48 31.03 30.14 34.94 32.56 32.05 34.39 32.55 34.34 34.09 32.28 25.44 24.88 30.97 42.79 41.37 42.09 44.69 45.77 46.23 46.12 46.47
43.29 38.52 45.52 48.69 39.53 39.16 34.95 34.58 32.34 34.69 37.03 34.97 34.55 33.35 31.57 31.50 29.86 30.00 29.77 32.94 37.34 36.70 31.75 34.80 31.23 25.64 29.26 36.31 38.71 36.73 33.30 34.14 26.04 26.59 29.58 30.66 30.94 43.44 44.50 44.62 43.96 43.46 44.41 45.88 47.00
41.05 38.37 46.13 45.68 35.45 34.37 34.31 34.10 34.91 34.23 34.34 33.51 32.04 33.71 34.33 31.33 27.80 31.62 32.59 37.38 38.32 36.07 33.12 34.72 28.87 21.55 25.72 32.27 36.20 31.93 33.04 34.17 32.44 32.19 26.79 25.85 30.72 44.12 44.54 43.77 45.08 43.90 44.42 44.79 46.44
41.99 36.42 39.53 41.90 40.60 36.44 32.56 31.39 31.12 35.31 33.53 34.12 33.48 35.22 33.45 30.98 33.53 30.16 31.13 35.12 37.43 35.55 38.42 38.27 30.64 26.35 21.61 26.18 29.92 27.89 31.03 33.57 31.50 26.05 27.10 28.19 31.02 37.22 39.32 40.88 42.23 43.49 43.92 43.91 44.86
41.28 38.54 40.02 34.16 34.93 35.19 35.13 32.81 30.11 29.76 34.47 35.54 33.29 33.44 31.45 27.49 29.83 29.44 32.48 33.71 35.77 38.07 36.04 35.23 27.12 29.43 30.67 32.17 32.23 31.02 30.68 31.58 30.03 31.10 26.80 29.74 30.55 33.63 35.09 37.83 42.14 43.95 42.38 42.34 43.14
36.82 36.92 39.43 36.48 36.52 34.86 30.51 31.90 30.58 32.22 31.87 31.29 30.84 32.68 33.32 29.73 31.20 28.12 31.23 31.77 31.04 34.94 33.27 34.92 26.79 29.04 27.20 31.82 32.03 29.66 31.84 32.21 32.22 32.69 32.44 32.29 31.28 39.05 41.67 41.28 41.11 41.53 42.08 42.61 43.81
42.64 43.36 41.14 34.11 35.23 33.74 33.28 32.21 31.82 33.13 34.73 35.30 34.33 33.24 32.14 33.76 35.96 36.86 37.60 37.01 36.08 33.89 33.07 32.57 29.88 27.34 23.10 29.91 29.38 24.89 30.45 31.90 32.33 33.98 33.36 28.92 34.05 38.92 38.20 40.07 41.33 42.44 43.33 43.58 44.26

GFSSW_sfc_wetblb_129.txt.gz
Wetbulb
52.82 52.78 52.69 52.13 52.07 51.83 52.14 52.18 51.95 52.06 52.38 52.85 53.10 53.43 54.15 55.08 54.21 50.83 46.01 52.35 53.83 58.11 56.52 50.02 47.89 46.12 49.84 47.35 49.19 48.29 41.65 39.35 40.53 42.63 44.98 49.92 50.09 52.06 49.92 48.04 49.76 52.21 52.85 57.14 60.52
52.73 52.54 52.03 51.66 51.58 51.70 51.97 51.75 51.65 51.63 52.04 52.40 52.76 53.23 54.15 54.50 50.19 47.87 54.29 59.31 58.69 58.18 49.52 47.04 44.72 45.10 43.07 44.55 45.33 43.49 40.80 41.79 46.09 47.01 46.76 50.33 50.62 49.15 48.45 49.33 49.03 53.10 54.20 56.92 58.36
52.08 51.58 51.30 51.18 51.22 51.51 51.37 51.04 51.14 51.61 51.93 52.35 52.62 53.15 54.09 53.64 47.62 48.45 58.60 59.64 59.39 56.60 51.65 51.48 51.41 48.71 41.85 44.55 44.66 43.40 41.03 45.24 47.16 49.00 49.67 48.99 49.04 49.77 46.90 44.46 48.82 49.17 51.15 52.96 53.79
51.24 50.68 51.06 51.00 51.11 51.33 50.77 50.72 50.95 51.63 52.03 52.18 52.81 53.15 53.85 50.79 39.16 48.11 57.94 58.21 58.85 54.10 50.19 47.95 48.47 44.75 41.74 41.11 44.69 41.93 45.74 46.89 47.57 49.37 49.25 48.26 48.10 47.94 44.25 47.29 50.76 50.67 50.88 51.73 52.05
50.30 50.45 50.90 50.84 51.05 50.69 50.49 50.65 50.91 51.39 51.63 51.82 52.31 52.87 51.16 45.22 47.32 51.42 58.53 57.51 55.16 52.46 48.71 47.46 45.13 44.93 42.76 43.37 44.45 43.63 44.86 46.91 48.40 48.69 48.31 49.46 48.21 47.72 48.10 49.42 52.10 51.93 53.07 51.85 52.17
50.00 50.33 50.59 50.68 50.51 50.11 50.08 50.33 50.88 50.88 51.37 51.92 52.13 52.72 48.33 39.83 51.57 50.66 52.05 49.13 48.23 46.66 45.47 44.67 45.77 46.67 44.39 44.36 43.08 45.98 46.38 46.19 46.82 46.75 47.03 46.71 47.40 45.77 49.03 50.14 51.41 51.96 51.57 52.05 52.60
50.16 50.29 50.08 50.27 49.93 49.61 49.67 50.03 50.89 50.87 51.43 52.40 52.54 51.92 46.48 44.27 50.65 49.15 49.88 48.71 48.62 49.10 46.96 47.17 45.70 41.69 41.57 40.47 45.74 44.46 40.37 43.20 44.98 46.07 45.95 46.48 43.74 44.55 48.18 49.41 50.22 50.53 51.00 51.68 51.89
50.19 49.84 49.72 49.89 49.25 49.27 49.51 50.33 50.73 50.72 51.61 52.86 53.42 49.61 43.23 54.15 47.41 50.41 48.40 47.80 49.03 47.94 47.85 48.10 48.88 45.85 42.01 42.16 41.40 39.93 39.38 35.18 43.00 44.92 46.38 45.56 39.51 46.24 48.45 48.61 48.52 50.01 50.22 51.10 51.84
49.74 49.52 49.27 49.54 49.57 49.70 49.71 50.26 50.41 51.39 52.14 53.36 49.80 47.69 44.88 54.48 48.06 48.19 47.89 46.54 47.80 48.00 46.89 48.40 46.18 43.08 42.69 35.05 32.03 35.48 31.59 34.60 38.36 44.31 44.55 43.82 41.17 46.34 47.99 48.61 48.00 49.02 50.05 50.77 51.28
49.26 49.09 48.47 48.28 49.17 48.99 49.36 49.96 50.98 49.98 50.99 51.95 51.82 44.09 48.26 43.40 46.83 48.69 49.13 48.94 46.49 45.99 43.92 42.58 41.46 37.18 34.30 30.61 26.03 30.08 32.00 36.04 36.16 40.27 42.56 41.85 41.79 42.90 45.04 45.81 44.14 44.53 47.20 48.69 50.46
48.42 48.01 47.92 47.91 48.63 48.86 47.32 44.64 42.09 41.25 44.25 42.57 42.34 43.38 44.31 46.08 48.56 47.38 45.70 44.74 45.85 43.36 36.48 40.27 33.69 32.06 34.75 35.45 36.67 36.07 34.62 33.77 37.36 41.01 38.57 38.73 38.44 40.28 42.74 44.16 43.62 44.60 45.40 46.08 49.10
47.24 47.21 47.47 47.63 47.97 48.68 46.13 40.81 41.39 41.06 35.35 44.84 44.62 45.17 47.00 45.84 40.93 43.94 44.84 39.22 38.37 34.85 38.74 36.84 32.16 38.61 41.12 41.00 39.42 37.62 35.03 34.38 37.72 39.86 39.00 38.41 39.15 38.71 40.87 43.81 44.43 44.06 43.95 44.20 45.70
46.34 46.56 46.90 47.34 47.37 45.16 40.43 41.45 45.78 45.63 34.96 43.12 43.99 44.43 43.24 42.99 39.63 39.91 42.57 39.45 35.77 33.90 34.24 32.27 36.37 41.22 40.78 38.80 37.46 36.89 35.54 35.16 35.35 38.26 38.43 36.77 34.64 36.53 40.73 43.80 45.39 46.12 46.02 46.29 45.83
45.81 46.03 46.43 47.26 44.73 43.41 40.59 44.63 45.27 45.49 32.35 37.38 40.03 42.88 42.84 41.38 38.23 41.80 41.94 38.93 36.08 33.02 34.21 33.57 38.13 36.28 35.58 35.16 37.06 32.73 38.76 38.42 36.70 33.78 29.37 34.80 27.52 35.57 37.41 40.15 42.93 44.02 44.76 45.27 45.99
45.49 45.77 46.28 45.73 40.60 41.18 43.46 44.90 44.04 42.87 23.86 38.43 39.80 43.14 40.74 38.20 38.03 39.45 41.68 39.38 34.27 34.37 33.92 31.12 33.08 32.79 32.27 34.44 36.84 33.72 38.09 37.11 36.72 32.89 31.33 33.20 29.76 34.24 37.85 37.62 40.02 42.96 44.45 45.78 46.95
44.83 45.90 45.69 45.17 42.29 43.90 45.92 44.48 42.62 30.98 23.59 33.85 38.56 37.59 36.46 37.71 37.88 39.44 39.37 41.08 40.14 35.82 35.16 33.53 36.59 35.01 34.71 38.07 38.06 38.99 36.02 36.12 34.67 31.40 26.02 31.97 29.61 31.02 34.43 37.87 40.80 43.07 44.45 46.11 49.07
45.00 45.60 43.24 44.76 40.49 45.74 44.74 40.91 30.10 25.35 36.76 32.92 34.04 36.41 34.64 33.63 35.68 36.33 34.85 33.08 29.94 26.77 27.39 32.27 32.80 34.89 39.27 34.63 37.28 36.19 33.05 24.89 23.56 22.56 23.11 33.97 30.90 32.95 37.92 40.41 41.95 42.90 47.17 47.08 49.54
44.96 45.08 45.54 45.12 45.35 44.96 42.06 33.88 23.68 33.07 32.96 36.45 34.85 34.10 31.44 34.53 34.26 34.52 32.44 29.69 34.42 31.87 27.00 24.90 22.74 31.94 36.08 33.34 31.37 31.78 33.19 27.04 20.19 21.22 24.03 33.78 27.74 32.82 39.93 42.52 44.25 44.93 48.84 49.44 48.45
44.49 40.62 42.77 44.45 44.67 43.58 36.86 26.36 25.00 31.53 34.23 31.85 32.68 30.31 31.54 34.21 32.48 32.16 30.74 30.60 32.91 33.12 25.77 24.79 25.30 34.34 35.74 35.93 33.94 30.95 27.95 35.08 29.32 30.02 26.33 27.72 32.41 37.47 41.07 41.87 43.76 44.25 48.55 47.22 47.49
39.77 41.24 40.34 43.95 44.56 41.27 33.98 30.27 31.78 35.57 34.68 33.91 27.76 32.12 26.51 28.96 29.08 29.43 29.85 34.14 32.26 35.25 34.94 30.26 22.53 32.17 34.10 35.48 35.42 33.95 36.61 26.40 29.92 21.72 20.02 25.55 26.39 28.40 36.74 41.28 42.05 43.93 46.00 47.91 47.84
38.64 35.59 40.15 43.83 43.95 37.63 28.79 28.07 33.90 36.41 35.49 31.47 29.76 28.47 29.68 28.48 28.89 27.45 29.04 32.49 34.82 34.10 34.64 31.24 27.85 26.57 31.36 29.09 27.88 30.06 29.30 31.27 31.37 28.92 22.69 22.02 23.71 38.16 37.13 40.52 41.22 41.51 45.33 45.33 44.37
39.18 31.85 40.98 44.01 34.44 35.44 27.33 33.73 34.27 34.51 36.80 34.69 34.38 32.53 29.44 29.50 27.56 28.05 28.36 31.65 36.60 35.55 29.75 32.60 28.10 21.78 25.61 33.03 35.73 34.33 30.77 33.01 25.71 23.51 25.42 24.71 25.75 37.71 37.49 40.49 41.08 40.44 43.93 44.00 43.18
36.62 32.99 42.32 41.76 27.96 27.35 32.57 33.23 34.91 33.74 33.72 32.78 31.35 33.20 32.92 29.50 25.03 29.72 30.58 36.03 36.40 34.29 31.28 33.10 26.05 19.32 21.82 28.92 32.79 28.96 31.25 32.51 32.23 30.59 22.97 21.95 26.69 38.27 38.53 37.85 41.74 41.80 42.63 42.06 42.17
37.56 29.09 33.92 37.32 35.27 32.48 30.69 31.33 30.65 35.37 33.27 33.89 32.52 34.09 31.58 28.13 31.17 27.86 29.92 34.45 35.92 34.80 37.60 35.53 28.61 24.24 18.74 22.87 28.73 26.10 28.82 31.57 30.71 24.55 24.07 25.78 28.18 34.04 35.60 35.99 38.19 41.25 43.11 42.88 40.75
37.73 33.36 35.84 28.52 28.81 31.94 33.33 31.73 29.94 29.53 34.35 34.72 32.54 31.84 29.36 24.48 26.99 26.73 29.78 30.90 33.83 36.45 34.85 33.06 24.30 27.28 27.80 29.15 29.67 29.16 28.96 30.36 27.99 28.23 24.33 28.47 29.43 33.49 36.15 36.89 37.95 40.50 42.39 43.55 43.57
32.76 33.04 35.11 31.94 34.11 30.86 29.67 29.76 30.78 31.21 31.52 30.37 29.33 31.28 31.31 26.32 25.69 23.69 28.19 28.22 28.59 32.66 31.21 33.33 23.05 27.87 24.83 29.43 29.80 27.37 29.03 29.80 30.05 30.52 29.07 31.17 30.90 37.62 39.09 40.03 39.46 40.16 43.19 43.60 44.10
37.89 38.56 36.49 32.58 30.00 28.75 27.75 31.44 31.16 32.57 34.30 34.80 30.53 28.67 29.38 30.97 32.52 33.07 33.83 33.62 32.57 31.61 31.28 30.38 27.09 24.51 20.83 27.36 26.67 22.15 27.33 29.83 30.87 31.46 31.28 26.55 32.58 37.39 37.10 38.69 39.39 39.56 40.50 40.57 41.30